     2.10           OBSERVATION DATA    G (GPS)             RINEX VERSION / TYPE
teqc 2002Apr3 20050812 22:29:18UTC                          PGM / RUN BY / DATE
                                                            COMMENT
L2: 1 -> 1; 5 -> 5; 40 -> 9                                 COMMENT
L2: 1 -> 1; 5 -> 5; 40 -> 9                                 COMMENT
L2: 1 -> 1; 5 -> 5; 40 -> 9                                 COMMENT
L2: 1 -> 1; 5 -> 5; 40 -> 9                                 COMMENT
Original Marker Name: -Unknown-                             COMMENT
Campaign Name: USGS Coachella Subsidence 1996-2000          COMMENT
4-Character Station Name: P572                              COMMENT
6-Character Antenna Code: DMRCHT                            COMMENT
Vertical Measurement Point: BPA                             COMMENT
Vertical Offset to Rinex Ref. Point: 0.0000                 COMMENT
Radial Measurement Point: RRP                               COMMENT
Radial Offset to Rinex Ref. Point: 0.0000                   COMMENT
Antenna Height from Field Measurement: 2.2000 m             COMMENT
Additional Antenna Identification Info.:                    COMMENT
Turborogue and Ashtech Choke Ring                           COMMENT
Original XYZ: -2342615.1400 -4779333.3400 3502689.3000      COMMENT
New XYZ position is based on association with SCEC monument COMMENT
E1D0K3P1+0011. Position of that monument is believed to be  COMMENT
valid to within 1 m horizontally; vertical accuracy         COMMENT
should be no worse than 3-times this value.                 COMMENT
                                                            COMMENT
Revised Rinex header created by UCSD GPS archive for        COMMENT
GSAC on 20-Apr-2005 (2005:110) 16:13:38 GMT                 COMMENT
For assistance contact dagnew@ucsd.edu                      COMMENT
or anderson@python.ucsd.edu                                 COMMENT
                                                            COMMENT
P572 1939                                                   MARKER NAME
-Unknown- US GEOLOGICAL SURVEY WATER RESOURC.               OBSERVER / AGENCY
831 ASHTECH L-XII 7A                                        REC # / TYPE / VERS
027 DORNE-MARGOL. TYPE T                                    ANT # / TYPE
 -2342613.0000 -4779171.0000  3502636.0000                  APPROX POSITION XYZ
        2.2000        0.0000        0.0000                  ANTENNA: DELTA H/E/N
     1     1     0                                          WAVELENGTH FACT L1/2
     4    C1    L1    L2    S1                              # / TYPES OF OBSERV
     0                                                      INTERVAL
  1996     6    10    14    46   15.000000                  TIME OF FIRST OBS
  1996     6    10    17    16   15.000000                  TIME OF LAST OBS
                                                            END OF HEADER
 96  6 10 14 46 15.0000000  0  4G15G 2G19G 7
  23737695.136      149680.865 6    -15187.94621        40.000
  21310472.237       34268.755 9    -10445.52526       100.000
  22215466.133   -14273846.988 8     33351.97321        68.000
  21204025.828      260153.481 9   -101361.88722        84.000
 96  6 10 14 46 30.0000000  0  4G15G 2G19G 7
  23735148.249      136273.877 6    -25635.05821        40.000
  21310014.634       31883.991 9    -12303.78126       102.000
  22222284.433   -14237995.693 8     61288.27721        64.000
  21198180.865      229427.129 9   -125304.46525        84.000
 96  6 10 14 46 45.0000000  0  5G15G 2G19G 7G26
  23732626.634      123053.457 6    -35936.70021        38.000
  21309583.712       29597.585 9    -14085.39527       102.000
  22229137.718   -14202000.187 8     89336.70223        64.000
  21192364.441      198874.967 9   -149111.33426        86.000
  23787752.681       34619.041 7    -11549.67321        44.000
 96  6 10 14 47  0.0000000  0  6G15G 2G27G19G 7G26
  23730152.627      110032.272 6    -46083.10522        40.000
  21309167.390       27420.239 9    -15782.04328       100.000
  20375157.482      146689.676 9      4689.23321       100.000
  22236013.188   -14165849.775 8    117505.81224        68.000
  21186586.331      168506.770 9   -172774.85827        88.000
  23782399.407        6490.290 7    -33467.71621        46.000
 96  6 10 14 47 15.0000000  0  6G15G 2G27G19G 7G26
  23727710.908       97218.617 7    -56067.75723        42.000
  21308776.101       25357.747 9    -17389.17828        98.000
  20376908.989      155898.531 9     11864.96625        96.000
  22242924.844   -14129538.090 8    145800.62325        64.000
  21180846.505      138330.960 9   -196288.47328        84.000
  23777080.490      -21444.865 7    -55235.30722        48.000
 96  6 10 14 47 30.0000000  0  6G15G 2G27G19G 7G26
  23725315.836       84617.464 7    -65886.81024        44.000
  21308406.667       23413.980 9    -18903.79728       100.000
  20378701.628      165314.938 9     19202.40326        98.000
  22249870.225   -14093062.283 7    174223.29525        62.000
  21175139.866      108353.570 9   -219647.46628        84.000
  23771803.273      -49180.702 7    -76847.70123        48.000
 96  6 10 14 47 45.0000000  0  6G15G 2G27G19G 7G26
  23722960.276       72231.397 7    -75538.26525        44.000
  21308060.796       21592.533 9    -20323.09629       100.000
  20380532.191      174938.478 9     26701.26327        98.000
  22256837.852   -14056421.086 7    202774.88025        58.000
  21169472.889       78578.367 9   -242848.91728        86.000
  23766566.199      -76714.571 7    -98302.66724        48.000
 96  6 10 14 48  0.0000000  0  6G15G 2G27G19G 7G26
  23720643.150       60061.649 7    -85021.13725        42.000
  21307737.141       19895.317 9    -21645.63329       102.000
  20382403.616      184769.808 9     34362.02128        98.000
  22263843.882   -14019611.496 7    231457.67425        58.000
  21163846.084       49008.382 9   -265890.47229        90.000
  23761364.500     -104044.492 7   -119598.75425        48.000
 96  6 10 14 48 15.0000000  0  6G15G 2G27G19G 7G26
  23718368.205       48111.628 7    -94332.83725        44.000
  21307439.537       18328.159 9    -22866.79929       102.000
  20384314.553      194810.930 9     42186.25929        96.000
  22270880.430   -13982630.659 7    260273.87325        56.000
  21158258.642       19648.830 9   -288768.05829        88.000
  23756203.572     -131164.733 7   -140731.37225        52.000
 96  6 10 14 48 30.0000000  0  6G15G 2G27G19G 7G26
  23716136.640       36378.479 7   -103475.58025        44.000
  21307164.867       16890.203 9    -23987.27829       100.000
  20386264.493      205057.036 9     50170.24829        96.000
  22277949.716   -13945480.427 7    289222.09225        52.000
  21152713.141       -9503.205 9   -311483.90129        88.000
  23751082.308     -158076.110 7   -161701.27925        52.000
 96  6 10 14 48 45.0000000  0  6G15G 2G27G19G 7G26
  23713944.138       24863.460 7   -112448.32725        42.000
  21306917.508       15585.695 9    -25003.78329       102.000
  20388254.275      215508.220 9     58313.99129        94.000
  22285052.219   -13908158.858 7    318303.78925        56.000
  21147203.466      -38450.997 9   -334040.61829        88.000
  23746002.714     -184777.120 7   -182507.26125        54.000
 96  6 10 14 49  0.0000000  0  6G15G 2G27G19G 7G26
  23711796.245       13567.604 7   -121250.24525        46.000
  21306695.152       14416.040 9    -25915.20829       100.000
  20390280.033      226166.544 9     66619.16929        92.000
  22292184.612   -13870667.772 7    347517.60525        56.000
  21141735.461      -67195.818 9   -356439.17229        90.000
  23740959.456     -211267.270 7   -203148.94325        54.000
 96  6 10 14 49 15.0000000  0  6G15G 2G27G19G 7G26
  23709685.736        2491.381 7   -129881.06025        48.000
  21306499.208       13381.780 9    -26721.12029       100.000
  20392347.731      237031.455 9     75085.32129        92.000
  22299353.459   -13833007.668 7    376863.13326        56.000
  21136300.943      -95738.790 9   -378680.44729        86.000
  23735959.127     -237546.043 7   -223625.91825        52.000
 96  6 10 14 49 30.0000000  0  6G15G 2G27G19G 7G26
  23707619.716       -8368.913 7   -138343.56325        44.000
  21306326.377       12481.129 9    -27422.94229       102.000
  20394452.394      248096.487 9     83707.42029        90.000
  22306554.803   -13795179.941 7    406339.29726        58.000
  21130906.388     -124085.154 9   -400768.52029        88.000
  23730997.113     -263620.418 7   -243943.60125        50.000
 96  6 10 14 49 45.0000000  0  6G15G 2G27G19G 7G26
  23705597.376      -19014.787 7   -146639.04325        48.000
  21306179.089       11715.728 9    -28019.36229       104.000
  20396597.949      259360.250 9     92484.35429        90.000
  22313781.151   -13757184.167 7    435946.38026        56.000
  21125550.206     -152238.163 9   -422705.93429        88.000
  23726071.852     -289493.751 7   -264104.63126        50.000
 96  6 10 14 50  0.0000000  0  6G15G 2G27G19G 7G26
  23703614.729      -29445.203 7   -154766.62125        44.000
  21306061.331       11086.004 9    -28510.06229       102.000
  20398779.329      270827.525 9    101419.87829        92.000
  22321039.576   -13719017.079 7    465686.96226        56.000
  21120231.408     -180197.638 9   -444492.52029        90.000
  23721187.693     -315166.493 7   -284109.38926        52.000
 96  6 10 14 50 15.0000000  0  6G15G 2G27G19G 7G26
  23701663.110      -39662.936 7   -162728.49825        42.000
  21305965.337       10586.508 9    -28899.28029       100.000
  20401002.650      282498.718 9    110514.32529        92.000
  22328333.586   -13680682.216 7    495558.26426        54.000
  21114947.506     -207969.033 9   -466132.56229        92.000
  23716343.647     -340642.997 7   -303961.18926        52.000
 96  6 10 14 50 30.0000000  0  6G15G 2G27G19G 7G26
  23699753.552      -49660.109 7   -170518.49725        42.000
  21305896.865       10223.242 9    -29182.32029       100.000
  20403260.986      294382.482 9    119774.39929        90.000
  22335669.358   -13642175.212 7    525563.68726        58.000
  21109698.860     -235546.340 9   -487621.35229        92.000
  23711534.466     -365915.658 7   -323654.16926        52.000
 96  6 10 14 50 45.0000000  0  6G15G 2G27G19G 7G26
  23697902.543      -59431.829 7   -178132.83525        42.000
  21305853.125       10001.103 9    -29355.45129        98.000
  20405566.600      306486.818 9    129206.32329        90.000
  22343027.704   -13603492.465 7    555706.07226        58.000
  21104489.126     -262925.419 9   -508955.70829        90.000
  23706756.404     -390982.078 7   -343186.45526        50.000
 96  6 10 14 51  0.0000000  0  6G15G 2G27G19G 7G26
  23696089.579      -68994.592 7   -185584.29725        44.000
  21305834.957        9901.064 9    -29433.42029       100.000
  20407909.748      318797.715 9    138799.21029        90.000
  22350420.946   -13564653.181 7    585970.43226        58.000
  21099311.531     -290120.638 9   -530146.78829        92.000
  23702027.208     -415859.483 7   -362571.44126        50.000
 96  6 10 14 51 15.0000000  0  6G15G 2G27G19G 7G26
  23694306.623      -78352.457 7   -192876.14525        46.000
  21305838.255        9915.096 9    -29422.50029       100.000
  20410290.670      331311.635 9    148550.31529        90.000
  22357838.620   -13525659.808 7    616354.91226        60.000
  21094170.000     -317131.781 9   -551194.42729        88.000
  23697330.989     -440550.133 7   -381810.90726        48.000
 96  6 10 14 51 30.0000000  0  6G15G 2G27G19G 7G26
  23692565.518      -87507.605 7   -200010.01525        46.000
  21305858.941       10039.623 9    -29325.45529        96.000
  20412711.644      344023.074 9    158455.32229        94.000
  22365289.003   -13486513.156 7    646858.78426        58.000
  21089071.190     -343959.646 9   -572099.26029        90.000
  23692668.227     -465053.743 7   -400904.64926        46.000
 96  6 10 14 51 45.0000000  0  6G15G 2G27G19G 7G26
  23690861.108      -96459.148 7   -206985.18125        46.000
  21305904.689       10274.567 9    -29142.38529       100.000
  20415165.865      356931.994 9    168514.21429        94.000
  22372768.824   -13447213.614 7    677481.78126        60.000
  21083998.821     -370597.505 9   -592856.02129        90.000
  23688041.350     -489367.086 7   -419850.12226        46.000
 96  6 10 14 52  0.0000000  0  6G15G 2G27G19G 7G26
  23689189.016     -105209.200 7   -213803.41825        42.000
  21305971.513       10614.231 9    -28877.70229       100.000
  20417662.117      370037.475 9    178726.26429        96.000
  22380272.150   -13407766.816 7    708219.53826        60.000
  21078965.096     -397044.631 9   -613464.16129        90.000
  23683452.457     -513491.850 7   -438648.63326        44.000
 96  6 10 14 52 15.0000000  0  6G15G 2G27G19G 7G26
  23687562.851     -113756.958 6   -220464.01625        40.000
  21306055.185       11055.790 9    -28533.64329       102.000
  20420190.326      383340.217 9    189092.01429        98.000
  22387810.821   -13368175.487 7    739069.91126        60.000
  21073970.674     -423299.838 9   -633922.75429        90.000
  23678893.573     -537426.129 6   -457298.71226        40.000
 96  6 10 14 52 30.0000000  0  6G15G 2G27G19G 7G26
  23685976.680     -122103.619 6   -226967.92325        40.000
  21306157.384       11598.457 9    -28110.78529       100.000
  20422757.389      396836.434 9    199608.54229        96.000
  22395365.021   -13328442.939 7    770030.32626        56.000
  21069010.278     -449364.119 9   -654232.57329        90.000
  23674376.150     -561169.403 7   -475799.95526        42.000
 96  6 10 14 52 45.0000000  0  6G15G 2G27G19G 7G26
  23684430.500     -130247.425 7   -233313.72625        42.000
  21306280.179       12245.152 9    -27606.88029       100.000
  20425367.652      410527.195 9    210276.65129        96.000
  22402959.064   -13288567.089 7    801102.39226        58.000
  21064086.966     -475234.595 9   -674391.38529        92.000
  23669892.694     -584720.157 6   -494151.18626        40.000
 96  6 10 14 53  0.0000000  0  6G15G 2G27G19G 7G26
  23682920.415     -138191.613 7   -239503.97425        44.000
  21306422.401       12993.804 9    -27023.51329       100.000
  20428007.085      424408.438 9    221093.19729        94.000
  22410570.885   -13248550.752 7    832283.94626        58.000
  21059201.758     -500916.605 9   -694403.34629        92.000
  23665445.213     -608081.642 6   -512354.98826        38.000
 96  6 10 14 53 15.0000000  0  6G15G 2G27G19G 7G26
  23681441.359     -145937.062 7   -245539.37225        44.000
  21306582.250       13842.305 9    -26362.34529       102.000
  20430682.883      438476.267 9    232055.12429        92.000
  22418213.074   -13208394.352 7    863574.65426        58.000
  21054348.448     -526413.654 9   -714271.16629        92.000
  23661038.114     -631254.203 6   -530411.50226        38.000
 96  6 10 14 53 30.0000000  0  6G15G 2G27G19G 7G26
  23680008.681     -153484.361 7   -251420.40025        42.000
  21306767.762       14791.502 9    -25622.72329       100.000
  20433394.895      452725.860 9    243158.70129        94.000
  22425880.086   -13168099.231 7    894973.44126        58.000
  21049529.944     -551729.831 9   -733998.06229        88.000
  23656664.292     -654238.785 7   -548321.57826        42.000
 96  6 10 14 53 45.0000000  0  6G15G 2G27G19G 7G26
  23678608.081     -160835.198 7   -257148.32525        42.000
  21306963.826       15843.109 9    -24803.30029       104.000
  20436138.686      467155.108 9    254402.25329        92.000
  22433577.827   -13127669.692 7    926476.97326        60.000
  21044746.245     -576868.748 9   -753586.81129        88.000
  23652326.205     -677039.828 7   -566088.59926        42.000
 96  6 10 14 54  0.0000000  0  6G15G 2G27G19G 7G26
  23677250.411     -167988.844 6   -262722.60725        40.000
  21307184.743       16999.539 9    -23902.17829       102.000
  20438921.299      481768.118 9    265789.00629        92.000
  22441294.185   -13087105.531 7    958085.37026        58.000
  21039996.514     -601831.728 9   -773038.47629        90.000
  23648017.558     -699660.601 7   -583715.16526        42.000
 96  6 10 14 54 15.0000000  0  6G15G 2G27G19G 7G26
  23675918.013     -174949.028 6   -268146.16325        40.000
  21307426.196       18258.426 9    -22921.24729       102.000
  20441737.070      496560.991 9    277315.90729        92.000
  22449039.174   -13046407.832 7    989797.85026        56.000
  21035277.720     -626628.360 9   -792360.53629        90.000
  23643755.739     -722106.555 7   -601205.55325        42.000
 96  6 10 14 54 30.0000000  0  6G15G 2G27G19G 7G26
  23674636.640     -181717.020 6   -273419.88825        40.000
  21307684.197       19621.804 9    -21858.85729       102.000
  20444583.659      511531.169 9    288980.97029        92.000
  22456808.835   -13005575.207 7   1021615.45826        56.000
  21030588.037     -651260.873 9   -811554.70029        90.000
  23639512.026     -744378.284 7   -618560.15425        42.000
 96  6 10 14 54 45.0000000  0  6G15G 2G27G19G 7G26
  23673378.621     -188290.573 7   -278542.12725        42.000
  21307966.242       21092.581 9    -20712.80629       104.000
  20447465.984      526680.421 9    300785.56629        92.000
  22464604.068   -12964603.604 7   1053541.37026        56.000
  21025933.339     -675724.267 9   -830617.07229        90.000
  23635307.977     -766473.837 7   -635777.48925        44.000
 96  6 10 14 55  0.0000000  0  6G15G 2G27G19G 7G26
  23672170.397     -194672.497 7   -283515.02125        42.000
  21308264.206       22668.733 9    -19484.64129       102.000
  20450383.414      542004.955 9    312726.75329        92.000
  22472423.405   -12923493.192 7   1085575.48126        54.000
  21021310.869     -700021.262 9   -849549.79029        88.000
  23631136.575     -788395.012 7   -652858.89525        44.000
 96  6 10 14 55 15.0000000  0  6G15G 2G27G19G 7G26
  23670995.931     -200863.492 7   -288339.17625        44.000
  21308584.294       24349.237 9    -18175.14829       104.000
  20453331.813      557503.247 9    324803.33829        92.000
  22480276.768   -12882243.786 7   1117717.85326        54.000
  21016719.998     -724149.243 9   -868350.81329        90.000
  23626998.269     -810142.194 7   -669804.75425        44.000
 96  6 10 14 55 30.0000000  0  6G15G 2G27G19G 7G26
  23669853.721     -206861.239 7   -293012.75725        44.000
  21308923.269       26133.062 9    -16785.15829       102.000
  20456315.378      573179.114 9    337018.28529        90.000
  22488154.954   -12840852.523 7   1149970.78426        56.000
  21012162.433     -748103.139 9   -887016.17129        90.000
  23622889.794     -831712.430 7   -686612.75125        44.000
 96  6 10 14 55 45.0000000  0  6G15G 2G27G19G 7G26
  23668745.898     -212666.920 6   -297536.66625        40.000
  21309282.061       28018.401 9    -15316.06929       102.000
  20459334.587      589034.107 9    349372.83029        92.000
  22496053.796   -12799320.949 7   1182333.02826        52.000
  21007637.635     -771883.232 9   -905546.11629        90.000
  23618824.488     -853105.602 7   -703282.78325        42.000
 96  6 10 14 56  0.0000000  0  6G15G 2G27G19G 7G26
  23667675.669     -218280.186 7   -301910.65425        42.000
  21309660.849       30002.884 9    -13769.72529       100.000
  20462383.657      605074.066 9    361871.48029        94.000
  22503988.643   -12757647.824 7   1214805.56026        54.000
  21003143.356     -795490.401 9   -923941.30929        88.000
  23614783.765     -874319.943 7   -719813.49125        44.000
 96  6 10 14 56 15.0000000  0  6G15G 2G27G19G 7G26
  23666643.753     -223699.723 6   -306133.66725        40.000
  21310056.965       32083.544 9    -12148.43329       102.000
  20465475.116      621300.335 9    374515.31429        96.000
  22511946.244   -12715832.037 7   1247389.26326        56.000
  20998683.524     -818925.482 9   -942202.40329        90.000
  23610781.026     -895354.205 7   -736203.76325        46.000
 96  6 10 14 56 30.0000000  0  6G15G 2G27G19G 7G26
  23665648.982     -228928.883 7   -310208.35125        42.000
  21310467.530       34254.457 9    -10456.81029       100.000
  20468598.264      637706.916 9    387299.65429        96.000
  22519931.006   -12673878.727 7   1280080.14926        58.000
  20994254.000     -842190.153 9   -960330.71629        88.000
  23606810.335     -916208.295 7   -752453.69326        42.000
 96  6 10 14 56 45.0000000  0  6G15G 2G27G19G 7G26
  23664697.831     -233969.503 7   -314136.11525        46.000
  21310897.822       36510.694 9     -8698.72129       100.000
  20471752.711      654292.986 9    400223.85429        96.000
  22527936.334   -12631792.804 7   1312874.37826        56.000
  20989862.521     -865283.112 9   -978325.22029        88.000
  23602880.626     -936881.426 7   -768562.65626        46.000
 96  6 10 14 57  0.0000000  0  6G15G 2G27G19G 7G26
  23663769.973     -238821.786 7   -317917.08425        42.000
  21311345.892       38851.860 9     -6874.41829       102.000
  20474941.813      671059.397 9    413288.57929        96.000
  22535968.883   -12589577.784 7   1345769.21126        54.000
  20985499.851     -888207.368 9   -996188.27529        88.000
  23598983.024     -957374.891 7   -784531.61125        48.000
 96  6 10 14 57 15.0000000  0  6G15G 2G27G19G 7G26
  23662881.688     -243486.646 6   -321552.05625        40.000
  21311807.333       41276.252 9     -4985.29129       104.000
  20478167.670      688007.010 9    426494.51229        94.000
  22544027.335   -12547235.766 7   1378762.99026        58.000
  20981168.479     -910966.851 9  -1013922.92029        84.000
  23595111.924     -977691.964 7   -800363.09826        42.000
 96  6 10 14 57 30.0000000  0  6G15G 2G27G19G 7G26
  23662024.102     -247965.898 6   -325042.38825        40.000
  21312282.684       43779.523 9     -3034.69629       102.000
  20481426.414      705134.263 9    439840.41029        96.000
  22552107.371   -12504770.646 7   1411852.66926        58.000
  20976870.355     -933564.063 9  -1031531.14829        86.000
  23591286.332     -997835.235 7   -816059.15126        46.000
 96  6 10 14 57 45.0000000  0  6G15G 2G27G19G 7G26
  23661210.315     -252260.105 7   -328388.53525        42.000
  21312772.694       46364.146 9     -1020.71329       100.000
  20484720.803      722440.255 9    453325.59429        92.000
  22560213.249   -12462182.563 7   1445038.16926        60.000
  20972600.231     -956003.042 9  -1049016.06729        88.000
  23587481.306    -1017806.206 7   -831620.91926        46.000
 96  6 10 14 58  0.0000000  0  6G15G 2G27G19G 7G26
  23660427.617     -256371.509 7   -331592.22325        42.000
  21313281.202       49031.712 9      1057.91329        98.000
  20488046.461      739920.455 9    466946.51929        94.000
  22568337.355   -12419474.187 7   1478317.40726        60.000
  20968359.097     -978287.218 9  -1066380.34429        88.000
  23583710.967    -1037610.793 7   -847053.06526        46.000
 96  6 10 14 58 15.0000000  0  6G15G 2G27G19G 7G26
  23659676.697     -260301.694 7   -334654.72125        42.000
  21313806.439       51782.972 9      3201.74629       102.000
  20491404.526      757570.355 9    480699.67329        94.000
  22576489.462   -12376646.254 8   1511689.78326        64.000
  20964146.084    -1000415.337 9  -1083623.02829        86.000
  23579975.643    -1057252.109 7   -862358.03026        48.000
 96  6 10 14 58 30.0000000  0  6G15G 2G27G19G 7G26
  23658967.987     -264051.714 7   -337576.82125        44.000
  21314346.365       54620.175 9      5412.54329       102.000
  20494794.879      775385.049 9    494581.24729        94.000
  22584663.633   -12333698.682 7   1545155.42926        60.000
  20959968.296    -1022385.475 9  -1100742.60229        88.000
  23576266.790    -1076730.223 7   -877535.78926        48.000
 96  6 10 14 58 45.0000000  0  6G15G 2G27G19G 7G26
  23658287.728     -267622.533 6   -340359.24625        40.000
  21314901.611       57544.868 9      7691.52629       104.000
  20498217.190      793363.887 9    508590.72729        92.000
  22592856.511   -12290632.986 7   1578713.14026        58.000
  20955816.140    -1044196.616 9  -1117738.30329        88.000
  23572593.343    -1096046.360 7   -892587.32126        50.000
 96  6 10 14 59  0.0000000  0  6G15G 2G27G19G 7G26
  23657645.303     -271015.070 7   -343002.78925        42.000
  21315475.294       60557.821 9     10039.27429       102.000
  20501668.011      811507.963 9    522728.95329        94.000
  22601074.901   -12247448.702 7   1612363.21226        62.000
  20951695.043    -1065851.914 9  -1134612.56029        88.000
  23568949.606    -1115204.131 7   -907515.44926        52.000
 96  6 10 14 59 15.0000000  0  6G15G 2G27G19G 7G26
  23657031.688     -274228.625 7   -345506.87125        42.000
  21316064.865       63661.615 9     12457.80829       102.000
  20505152.768      829818.544 9    536996.94529        92.000
  22609315.986   -12204143.086 7   1646107.86126        62.000
  20947603.326    -1087350.398 9  -1151364.62029        86.000
  23565335.158    -1134203.721 7   -922320.32226        52.000
 96  6 10 14 59 30.0000000  0  6G15G 2G27G19G 7G26
  23656456.986     -277264.279 6   -347872.31325        40.000
  21316675.183       66855.843 9     14946.81129       102.000
  20508668.015      848291.595 9    551391.52629        92.000
  22617578.956   -12160713.860 7   1679948.80326        62.000
  20943543.477    -1108689.493 9  -1167992.48029        88.000
  23561748.531    -1153044.090 7   -937001.12526        48.000
 96  6 10 14 59 45.0000000  0  6G15G 2G27G19G 7G26
  23655908.995     -280126.526 6   -350102.64125        40.000
  21317297.522       70137.564 9     17503.99429       102.000
  20512211.981      866922.348 9    565908.98029        92.000
  22625865.459   -12117166.657 7   1713881.67326        58.000
  20939510.698    -1129872.471 9  -1184498.69429        86.000
  23558190.954    -1171727.419 7   -951559.60326        52.000
 96  6 10 15  0  0.0000000  0  6G15G 2G27G19G 7G26
  23655398.418     -282818.382 7   -352200.20725        44.000
  21317939.917       73502.290 9     20125.85029       104.000
  20515787.216      885706.407 9    580545.90829        92.000
  22634173.518   -12073507.177 7   1747902.03826        56.000
  20935509.998    -1150902.614 9  -1200885.80529        86.000
  23554663.776    -1190257.881 7   -965998.92626        52.000
 96  6 10 15  0 15.0000000  0  6G15G 2G27G19G 7G26
  23654913.504     -285342.456 7   -354167.02525        42.000
  21318594.694       76941.369 9     22805.65529       102.000
  20519393.659      904642.164 9    595301.03029        94.000
  22642499.564   -12029740.498 7   1782005.94726        52.000
  20931538.018    -1171782.190 9  -1217155.59729        88.000
  23551167.656    -1208632.911 7   -980317.11426        52.000
 96  6 10 15  0 30.0000000  0  6G15G 2G27G19G 7G26
  23654463.636     -287701.475 7   -356005.21125        44.000
  21319260.143       80448.715 9     25538.65429       104.000
  20523026.484      923728.681 9    610173.64229        94.000
  22650853.700   -11985871.412 7   1816189.63226        56.000
  20927592.809    -1192514.639 9  -1233310.74829        86.000
  23547703.554    -1226851.408 7   -994513.35126        52.000
 96  6 10 15  0 45.0000000  0  6G15G 2G27G19G 7G26
  23654049.292     -289895.929 7   -357715.19425        44.000
  21319939.443       84020.514 9     28321.87829       102.000
  20526685.152      942964.939 9    625162.92429        94.000
  22659216.621   -11941903.650 7   1850450.20026        54.000
  20923675.001    -1213102.281 9  -1249353.07129        88.000
  23544263.705    -1244914.987 7  -1008588.85326        48.000
 96  6 10 15  1  0.0000000  0  6G15G 2G27G19G 7G26
  23653659.592     -291924.312 7   -359295.73725        42.000
  21320631.874       87656.964 9     31155.45529       104.000
  20530377.126      962353.418 9    640270.82029        96.000
  22667603.794   -11897836.619 7   1884788.15926        54.000
  20919785.104    -1233542.340 9  -1265280.38029        88.000
  23540854.256    -1262822.758 7  -1022542.95426        48.000
 96  6 10 15  1 15.0000000  0  6G15G 2G27G19G 7G26
  23653301.760     -293789.918 7   -360749.45825        42.000
  21321335.307       91353.868 9     34036.16829       102.000
  20534093.023      981889.544 9    655493.76429        96.000
  22676008.956   -11853672.821 7   1919201.46425        56.000
  20915919.850    -1253837.854 9  -1281095.05129        86.000
  23537479.132    -1280577.935 7  -1036378.16726        50.000
 96  6 10 15  1 30.0000000  0  6G15G 2G27G19G 7G26
  23652978.074     -295492.489 6   -362076.14625        40.000
  21322048.153       95109.580 9     36962.70029       102.000
  20537836.502     1001570.602 9    670829.65029        96.000
  22684434.563   -11809412.529 7   1953689.98925        54.000
  20912088.592    -1273989.229 9  -1296797.41829        86.000
  23534131.380    -1298180.723 7  -1050094.63426        48.000
 96  6 10 15  1 45.0000000  0  6G15G 2G27G19G 7G26
  23652687.485     -297030.902 7   -363274.87825        42.000
  21322775.570       98921.879 9     39933.31429       102.000
  20541608.191     1021396.706 9    686278.55629        96.000
  22692871.202   -11765056.417 7   1988253.19525        52.000
  20908279.879    -1293998.834 9  -1312389.31029        88.000
  23530810.069    -1315632.879 7  -1063693.72926        48.000
 96  6 10 15  2  0.0000000  0  6G15G 2G27G19G 7G26
  23652425.287     -298405.641 6   -364346.10825        40.000
  21323510.421      102787.275 9     42945.29929       104.000
  20545410.039     1041369.295 9    701841.60829        94.000
  22701328.018   -11720609.386 7   2022887.22725        50.000
  20904501.175    -1313870.780 9  -1327873.94529        88.000
  23527517.119    -1332937.696 7  -1077177.97726        52.000
 96  6 10 15  2 15.0000000  0  6G15G 2G27G19G 7G26
  23652193.967     -299618.119 7   -365290.88225        42.000
  21324256.634      106704.957 9     45998.03529       106.000
  20549239.468     1061487.887 9    717518.42829        96.000
  22709803.390   -11676069.787 7   2057593.37525        48.000
  20900741.718    -1333607.855 9  -1343253.48429        88.000
  23524246.893    -1350095.960 7  -1090548.03426        48.000
 96  6 10 15  2 30.0000000  0  6G15G 2G27G19G 7G26
  23651994.095     -300669.260 7   -366109.95825        42.000
  21325013.910      110677.871 9     49093.80829       104.000
  20553094.289     1081752.860 9    733309.31329        96.000
  22718296.601   -11631436.751 7   2092372.39025        48.000
  20897012.929    -1353207.567 9  -1358525.98329        86.000
  23521011.053    -1367109.516 7  -1103805.36926        48.000
 96  6 10 15  2 45.0000000  0  6G15G 2G27G19G 7G26
  23651825.912     -301558.301 7   -366802.74825        42.000
  21325778.291      114709.139 9     52235.05829       100.000
  20556978.370     1102162.214 9    749212.69929        98.000
  22726812.685   -11586708.528 7   2127225.52125        50.000
  20893310.042    -1372666.823 9  -1373689.02329        84.000
  23517800.935    -1383982.840 7  -1116953.40626        54.000
 96  6 10 15  3  0.0000000  0  6G15G 2G27G19G 7G26
  23651690.016     -302282.296 7   -367366.88025        42.000
  21326554.514      118802.115 9     55424.38229       100.000
  20560891.561     1122719.192 9    765231.10829        96.000
  22735338.992   -11541878.604 7   2162157.92926        50.000
  20889635.516    -1391981.157 9  -1388739.14629        84.000
  23514618.279    -1400714.197 7  -1129990.85226        50.000
 96  6 10 15  3 15.0000000  0  6G15G 2G27G19G 7G26
  23651581.521     -302842.372 7   -367803.29025        42.000
  21327348.214      122955.704 9     58660.95029       102.000
  20564832.033     1143425.031 9    781365.52529        96.000
  22743888.114   -11496946.434 7   2197170.02725        54.000
  20885987.612    -1411152.302 9  -1403677.68829        86.000
  23511461.734    -1417302.171 7  -1142916.55226        46.000
 96  6 10 15  3 30.0000000  0  6G15G 2G27G19G 7G26
  23651508.851     -303240.145 7   -368113.19725        42.000
  21328150.159      127164.913 9     61940.84429       102.000
  20568800.176     1164279.618 9    797615.85129        96.000
  22752458.791   -11451914.840 7   2232259.54225        46.000
  20882364.950    -1430183.450 9  -1418507.15229        86.000
  23508328.063    -1433747.701 7  -1155731.22926        50.000
 96  6 10 15  3 45.0000000  0  6G15G 2G27G19G 7G26
  23651468.379     -303476.115 7   -368297.07625        42.000
  21328961.667      131430.170 9     65264.42129       104.000
  20572794.671     1185283.648 9    813982.62129        94.000
  22761047.605   -11406785.212 7   2267425.46425        46.000
  20878769.479    -1449074.542 9  -1433227.48529        86.000
  23505229.408    -1450049.176 7  -1168433.67926        48.000
 96  6 10 15  4  0.0000000  0  6G15G 2G27G19G 7G26
  23651452.460     -303549.728 7   -368354.40825        42.000
  21329782.829      135752.516 9     68632.45629       100.000
  20576819.654     1206440.433 9    830468.42029        92.000
  22769654.466   -11361561.227 7   2302664.87425        50.000
  20875203.028    -1467820.553 9  -1447834.75129        86.000
  23502152.548    -1466202.952 7  -1181021.03226        48.000
 96  6 10 15  4 15.0000000  0  6G15G 2G27G19G 7G26
  23651461.814     -303461.950 7   -368286.02025        42.000
  21330617.901      140133.610 9     72046.30629       100.000
  20580876.865     1227749.742 9    847073.07529        90.000
  22778282.853   -11316243.515 7   2337977.37425        52.000
  20871664.038    -1486419.672 9  -1462327.56529        88.000
  23499110.704    -1482208.344 7  -1193492.78626        50.000
 96  6 10 15  4 30.0000000  0  6G15G 2G27G19G 7G26
  23651517.395     -303213.293 6   -368092.25025        40.000
  21331462.866      144573.896 9     75506.28429       102.000
  20584961.358     1249209.312 9    863794.81529        92.000
  22786918.315   -11270830.542 7   2373364.11425        48.000
  20868154.457    -1504870.060 9  -1476704.48729        88.000
  23496090.175    -1498064.990 7  -1205848.62726        50.000
 96  6 10 15  4 45.0000000  0  6G15G 2G27G19G 7G26
  23651592.943     -302805.467 6   -367774.45825        40.000
  21332317.664      149069.983 9     79009.71829       104.000
  20589070.463     1270816.285 9    880631.40229        92.000
  22795579.259   -11225325.741 7   2408822.40526        48.000
  20864671.259    -1523174.925 9  -1490968.01429        88.000
  23493099.536    -1513775.759 7  -1218090.78926        46.000
 96  6 10 15  5  0.0000000  0  6G15G 2G27G19G 7G26
  23651698.740     -302237.798 7   -367332.09625        44.000
  21333184.754      153621.598 9     82556.41629       102.000
  20593213.745     1292571.577 9    897583.58529        90.000
  22804255.492   -11179726.703 7   2444354.11826        52.000
  20861213.662    -1541338.835 9  -1505121.71029        88.000
  23490140.254    -1529338.899 7  -1230217.88426        50.000
 96  6 10 15  5 15.0000000  0  6G15G 2G27G19G 7G26
  23651842.040     -301511.027 7   -366765.74425        42.000
  21334059.548      158229.259 9     86146.81029       102.000
  20597381.310     1314475.594 9    914651.65629        92.000
  22812950.943   -11134035.194 7   2479957.87225        52.000
  20857781.668    -1559365.640 9  -1519168.55529        86.000
  23487205.766    -1544753.074 7  -1242228.91026        48.000
 96  6 10 15  5 30.0000000  0  6G15G 2G27G19G 7G26
  23652003.719     -300626.090 7   -366076.14725        42.000
  21334950.771      162892.194 9     89780.26229       104.000
  20601576.905     1336525.344 9    931833.26729        92.000
  22821660.843   -11088254.940 7   2515630.73525        50.000
  20854374.557    -1577259.823 9  -1533112.07729        84.000
  23484302.336    -1560020.220 7  -1254125.41426        48.000
 96  6 10 15  5 45.0000000  0  6G15G 2G27G19G 7G26
  23652204.070     -299583.858 6   -365263.98625        38.000
  21335848.709      167613.057 9     93458.85429       102.000
  20605798.942     1358717.252 9    949125.66329        92.000
  22830393.378   -11042387.567 7   2551371.53425        54.000
  20850996.256    -1595023.562 9  -1546953.94229        84.000
  23481422.949    -1575143.111 7  -1265909.50926        50.000
 96  6 10 15  6  0.0000000  0  6G15G 2G27G19G 7G26
  23652426.606     -298385.295 6   -364330.05625        36.000
  21336759.329      172394.564 9     97184.68929       102.000
  20610051.318     1381048.584 9    966526.70529        92.000
  22839135.535   -10996433.944 7   2587179.54725        54.000
  20847642.897    -1612657.929 9  -1560695.00029        84.000
  23478575.610    -1590123.641 7  -1277582.65526        50.000
 96  6 10 15  6 15.0000000  0  6G15G 2G27G19G 7G26
  23652686.526     -297031.410 6   -363275.05925        40.000
  21337679.812      177234.968 9    100956.43329       102.000
  20614321.562     1403517.467 9    984034.91629        92.000
  22847891.844   -10950393.156 7   2623055.47925        52.000
  20844308.486    -1630166.863 9  -1574338.31829        88.000
  23475750.426    -1604964.779 7  -1289147.16526        48.000
 96  6 10 15  6 30.0000000  0  6G15G 2G27G19G 7G26
  23652982.151     -295520.411 7   -362097.63025        42.000
  21338609.438      182136.897 9    104776.13129       100.000
  20618628.530     1426123.473 9   1001649.97629        94.000
  22856672.285   -10904257.638 7   2659005.23826        52.000
  20841001.115    -1647551.731 9  -1587884.95729        88.000
  23472948.656    -1619666.110 7  -1300602.73126        46.000
 96  6 10 15  6 45.0000000  0  6G15G 2G27G19G 7G26
  23653296.184     -293853.077 6   -360798.39925        40.000
  21339555.403      187097.838 9    108641.79829        98.000
  20622953.606     1448863.433 9   1019369.42229        92.000
  22865472.423   -10858029.027 7   2695027.54225        54.000
  20837714.940    -1664814.750 9  -1601336.65329        88.000
  23470180.192    -1634226.375 7  -1311948.42426        50.000
 96  6 10 15  7  0.0000000  0  6G15G 2G27G19G 7G26
  23653646.881     -292030.001 7   -359377.82125        42.000
  21340510.092      192117.023 9    112552.84929       100.000
  20627306.623     1471736.644 9   1037192.70029        90.000
  22874288.270   -10811710.835 7   2731119.61025        52.000
  20834455.297    -1681955.255 9  -1614692.89929        90.000
  23467437.361    -1648643.958 7  -1323182.91026        50.000
 96  6 10 15  7 15.0000000  0  6G15G 2G27G19G 7G26
  23654014.936     -290050.666 6   -357835.48225        40.000
  21341477.043      197194.346 9    116509.19029        98.000
  20631684.942     1494742.980 9   1055119.70829        90.000
  22883115.629   -10765304.786 7   2767280.14225        52.000
  20831213.641    -1698969.657 9  -1627950.87129        90.000
  23464722.081    -1662916.492 7  -1334304.37726        50.000
 96  6 10 15  7 30.0000000  0  6G15G 2G27G19G 7G26
  23654420.495     -287916.645 6   -356172.56925        40.000
  21342452.298      202329.519 9    120510.62829       100.000
  20636087.064     1517881.225 9   1073149.50329        90.000
  22891962.324   -10718816.726 7   2803504.56925        50.000
  20828002.114    -1715856.034 9  -1641109.07429        88.000
  23462034.591    -1677044.681 7  -1345313.35726        52.000
 96  6 10 15  7 45.0000000  0  6G15G 2G27G19G 7G26
  23654861.010     -285626.540 7   -354388.07425        42.000
  21343442.033      207523.367 9    124557.77929       100.000
  20640516.138     1541153.064 9   1091283.39629        90.000
  22900821.941   -10672244.273 7   2839794.78325        50.000
  20824816.609    -1732608.635 9  -1654163.05029        88.000
  23459371.415    -1691027.367 7  -1356208.94226        50.000
 96  6 10 15  8  0.0000000  0  6G15G 2G27G19G 7G26
  23655327.038     -283181.026 7   -352482.45625        44.000
  21344439.292      212773.925 9    128649.11929       100.000
  20644972.073     1564559.088 9   1109521.84629        90.000
  22909704.582   -10625587.586 7   2876150.63425        48.000
  20821655.598    -1749224.480 9  -1667110.45029        90.000
  23456736.090    -1704862.806 7  -1366989.81826        50.000
 96  6 10 15  8 15.0000000  0  6G15G 2G27G19G 7G26
  23655819.477     -280581.396 7   -350456.74325        44.000
  21345449.623      218076.294 9    132780.83329        98.000
  20649450.403     1588099.435 9   1127864.96429        92.000
  22918596.726   -10578847.628 7   2912571.40625        44.000
  20818517.011    -1765702.652 9  -1679950.58229        88.000
  23454132.662    -1718553.062 7  -1377657.55226        48.000
 96  6 10 15  8 30.0000000  0  6G15G 2G27G19G 7G26
  23656343.904     -277827.345 7   -348310.76425        42.000
  21346467.688      223427.732 9    136950.78629        98.000
  20653954.125     1611771.464 9   1146310.70629        90.000
  22927509.436   -10532023.053 7   2949058.06725        46.000
  20815408.852    -1782040.772 9  -1692681.56529        88.000
  23451557.265    -1732099.573 7  -1388213.28126        50.000
 96  6 10 15  8 45.0000000  0  6G15G 2G27G19G 7G26
  23656899.150     -274920.384 7   -346045.61325        42.000
  21347499.064      228826.732 9    141157.79929        98.000
  20658483.210     1635574.418 9   1164858.45829        92.000
  22936435.126   -10485118.316 7   2985607.21725        44.000
  20812326.296    -1798239.529 9  -1705303.97029        88.000
  23449004.652    -1745502.775 7  -1398657.33226        48.000
 96  6 10 15  9  0.0000000  0  6G15G 2G27G19G 7G26
  23657480.477     -271861.254 6   -343661.85925        40.000
  21348533.468      234273.074 9    145401.68929        98.000
  20663040.235     1659511.248 9   1183510.51729        92.000
  22945381.953   -10438137.784 7   3022215.36525        46.000
  20809268.173    -1814298.196 9  -1717817.20629        88.000
  23446481.838    -1758764.822 7  -1408991.39226        50.000
 96  6 10 15  9 15.0000000  0  6G15G 2G27G19G 7G26
  23658089.655     -268648.911 7   -341158.71625        42.000
  21349576.146      239767.684 9    149683.20829        98.000
  20667620.284     1683588.097 9   1202271.69129        92.000
  22954329.348   -10391078.073 7   3058885.21025        44.000
  20806242.068    -1830216.244 9  -1730220.86429        88.000
  23443984.058    -1771888.070 7  -1419217.28526        52.000
 96  6 10 15  9 30.0000000  0  6G15G 2G27G19G 7G26
  23658733.370     -265284.057 7   -338536.73325        44.000
  21350631.385      245310.452 9    154002.25129        98.000
  20672227.285     1707804.602 9   1221141.69529        94.000
  22963301.567   -10343936.476 7   3095618.90325        46.000
  20803238.867    -1845997.819 9  -1742518.19729        86.000
  23441515.596    -1784875.044 7  -1429337.03626        52.000
 96  6 10 15  9 45.0000000  0  6G15G 2G27G19G 7G26
  23659404.875     -261767.000 7   -335796.12625        44.000
  21351693.970      250898.754 9    158356.75529        98.000
  20676865.104     1732159.235 9   1240119.32029        94.000
  22972288.206   -10296708.469 7   3132419.95525        44.000
  20800261.239    -1861643.870 9  -1754709.92129        86.000
  23439064.493    -1797726.937 7  -1439351.49026        50.000
 96  6 10 15 10  0.0000000  0  6G15G 2G27G19G 7G26
  23660098.445     -258097.296 7   -332936.59125        42.000
  21352766.477      256529.358 9    162744.23629        96.000
  20681525.348     1756652.126 9   1259204.68529        94.000
  22981295.230   -10249392.480 7   3169289.56825        46.000
  20797308.823    -1877157.644 9  -1766798.56129        88.000
  23436655.121    -1810442.883 7  -1449260.01526        52.000
 96  6 10 15 10 15.0000000  0  6G15G 2G27G19G 7G26
  23660828.499     -254275.319 6   -329958.45425        40.000
  21353846.809      262202.599 9    167164.94629        98.000
  20686211.404     1781283.069 9   1278397.62029        92.000
  22990310.979   -10201989.881 7   3206226.63825        46.000
  20794381.050    -1892544.686 9  -1778788.47829        86.000
  23434252.704    -1823027.292 7  -1459066.05026        52.000
 96  6 10 15 10 30.0000000  0  6G15G 2G27G19G 7G26
  23661578.940     -250302.853 6   -326863.08025        40.000
  21354934.097      267918.172 9    171618.64329        98.000
  20690924.921     1806048.945 9   1297695.69229        92.000
  22999348.582   -10154503.264 7   3243229.18525        46.000
  20791476.121    -1907807.901 9  -1790681.88029        84.000
  23431879.098    -1835481.226 7  -1468770.40726        48.000
 96  6 10 15 10 45.0000000  0  6G15G 2G27G19G 7G26
  23662368.113     -246179.997 6   -323650.45625        40.000
  21356029.568      273679.968 9    176108.33429        98.000
  20695661.911     1830951.138 9   1317100.00129        92.000
  23008397.668   -10106935.019 7   3280295.32025        46.000
  20788594.755    -1922951.596 9  -1802482.14729        86.000
  23429533.881    -1847802.081 7  -1478371.07426        48.000
 96  6 10 15 11  0.0000000  0  6G15G 2G27G19G 7G26
  23663182.829     -241906.885 7   -320320.75625        44.000
  21357135.533      279490.571 9    180636.07629        96.000
  20700425.254     1855991.929 9   1336612.29729        88.000
  23017465.160   -10059288.935 7   3317422.11725        48.000
  20785736.894    -1937977.682 9  -1814190.77629        88.000
  23427213.578    -1859988.935 7  -1487867.32126        50.000
 96  6 10 15 11 15.0000000  0  6G15G 2G27G19G 7G26
  23664024.017     -237484.020 7   -316874.34325        42.000
  21358253.129      285348.584 9    185200.75829        98.000
  20705218.995     1881165.605 9   1356228.15029        92.000
  23026554.718   -10011564.843 7   3354609.66225        52.000
  20782896.330    -1952884.820 9  -1825806.73029        84.000
  23424922.024    -1872041.364 7  -1497258.83526        50.000
 96  6 10 15 11 30.0000000  0  6G15G 2G27G19G 7G26
  23664896.473     -232912.427 7   -313312.02925        42.000
  21359374.383      291252.847 9    189801.47229        98.000
  20710032.943     1906465.996 9   1375942.74129        90.000
  23035640.378    -9963763.242 7   3391857.64325        50.000
  20780083.078    -1967674.160 9  -1837330.88929        86.000
  23422656.732    -1883959.512 7  -1506545.69626        50.000
 96  6 10 15 11 45.0000000  0  6G15G 2G27G19G 7G26
  23665785.388     -228190.947 6   -309632.91225        40.000
  21360509.817      297203.941 9    194438.69429        98.000
  20714868.715     1931890.589 9   1395754.09429        90.000
  23044759.855    -9915886.229 7   3429164.43025        52.000
  20777292.610    -1982344.009 9  -1848761.92729        88.000
  23420415.544    -1895741.679 7  -1515726.58426        50.000
 96  6 10 15 12  0.0000000  0  6G15G 2G27G19G 7G26
  23666719.391     -223320.882 7   -305838.09625        42.000
  21361648.039      303200.758 9    199111.54229        96.000
  20719731.408     1957440.048 9   1415662.75829        90.000
  23053881.610    -9867938.497 7   3466526.31125        50.000
  20774521.958    -1996895.630 9  -1860100.85629        86.000
  23418200.287    -1907391.111 7  -1524804.06726        50.000
 96  6 10 15 12 15.0000000  0  6G15G 2G27G19G 7G26
  23667671.922     -218302.315 7   -301927.58525        42.000
  21362794.895      309246.325 9    203822.36129        98.000
  20724618.235     1983116.624 9   1435670.46529        92.000
  23063018.055    -9819924.143 7   3503940.07625        50.000
  20771777.328    -2011331.562 9  -1871349.63229        86.000
  23416004.367    -1918911.149 7  -1533780.74726        50.000
 96  6 10 15 12 30.0000000  0  6G15G 2G27G19G 7G26
  23668653.232     -213135.040 6   -297901.15525        40.000
  21363959.349      315341.660 9    208571.96629        98.000
  20729528.476     2008920.040 9   1455777.03329        90.000
  23072168.080    -9771843.284 7   3541405.66625        52.000
  20769052.904    -2025647.054 9  -1882504.55029        90.000
  23413840.945    -1930301.882 7  -1542656.64126        52.000
 96  6 10 15 12 45.0000000  0  6G15G 2G27G19G 7G26
  23669672.197     -207818.110 7   -293758.04525        42.000
  21365126.651      321486.248 9    213359.95929        96.000
  20734463.540     2034851.330 9   1475983.21229        92.000
  23081332.706    -9723696.510 7   3578922.58725        52.000
  20766353.093    -2039839.085 9  -1893563.26829        90.000
  23411695.600    -1941558.283 7  -1551427.85526        54.000
 96  6 10 15 13  0.0000000  0  6G15G 2G27G19G 7G26
  23670708.340     -202352.257 7   -289498.91125        42.000
  21366306.274      327677.216 9    218184.07729        96.000
  20739424.085     2060911.509 9   1496289.84129        94.000
  23090499.760    -9675483.668 7   3616490.99925        48.000
  20763676.186    -2053907.505 9  -1904525.68429        90.000
  23409581.134    -1952683.571 7  -1560096.91826        54.000
 96  6 10 15 13 15.0000000  0  6G15G 2G27G19G 7G26
  23671773.082     -196739.723 6   -285125.49825        40.000
  21367493.122      333907.572 9    223038.90229        98.000
  20744405.527     2087096.549 9   1516693.75229        94.000
  23099694.214    -9627205.205 7   3654110.58925        50.000
  20761022.483    -2067851.323 9  -1915390.98229        88.000
  23407486.065    -1963680.922 7  -1568666.27026        50.000
 96  6 10 15 13 30.0000000  0  6G15G 2G27G19G 7G26
  23672870.653     -190980.489 7   -280637.77925        42.000
  21368683.688      340173.244 9    227921.23929        98.000
  20749411.341     2113409.114 9   1537197.04929        94.000
  23108890.948    -9578857.856 7   3691783.84325        46.000
  20758391.025    -2081671.948 9  -1926160.29729        90.000
  23405420.884    -1974549.738 7  -1577135.50626        50.000
 96  6 10 15 13 45.0000000  0  6G15G 2G27G19G 7G26
  23673996.163     -185075.245 7   -276036.31125        44.000
  21369883.488      346473.821 9    232830.79429       100.000
  20754443.658     2139852.109 9   1557801.96729        94.000
  23118100.902    -9530443.811 7   3729509.10725        46.000
  20755784.180    -2095372.882 9  -1936836.34429        88.000
  23403376.929    -1985292.095 7  -1585506.17326        54.000
 96  6 10 15 14  0.0000000  0  6G15G 2G27G19G 7G26
  23675146.347     -179023.875 6   -271321.00725        40.000
  21371089.133      352809.241 9    237767.47029        98.000
  20759502.446     2166426.611 9   1578509.36729        96.000
  23127327.734    -9481963.590 7   3767285.90125        46.000
  20753199.219    -2108953.853 9  -1947418.90429        88.000
  23401354.020    -1995906.468 7  -1593777.10326        50.000
 96  6 10 15 14 15.0000000  0  6G15G 2G27G19G 7G26
  23676323.332     -172827.209 7   -266492.44325        42.000
  21372302.063      359181.252 9    242732.67229       100.000
  20764582.579     2193132.320 9   1599319.00929        96.000
  23136568.477    -9433417.468 7   3805114.04525        48.000
  20750635.184    -2122413.452 9  -1957906.89929        84.000
  23399360.730    -2006391.840 7  -1601947.54326        52.000
 96  6 10 15 14 30.0000000  0  6G15G 2G27G19G 7G26
  23677531.706     -166485.095 6   -261550.53125        40.000
  21373520.869      365589.308 9    247725.96329       100.000
  20769689.453     2219964.963 9   1620227.54529        96.000
  23145818.873    -9384804.578 7   3842994.19525        44.000
  20748101.308    -2135747.712 9  -1968297.23329        86.000
  23397386.746    -2016744.823 7  -1610014.80226        52.000
 96  6 10 15 14 45.0000000  0  6G15G 2G27G19G 7G26
  23678765.022     -159998.959 6   -256496.40125        38.000
  21374748.400      372030.724 9    252745.25329       102.000
  20774817.163     2246919.547 9   1641231.11629        96.000
  23155080.811    -9336126.550 7   3880925.08825        44.000
  20745589.197    -2148955.832 9  -1978589.26229        88.000
  23395448.618    -2026961.465 7  -1617975.79926        52.000
 96  6 10 15 15  0.0000000  0  6G15G 2G27G19G 7G26
  23680030.296     -153367.942 6   -251329.38225        40.000
  21375978.178      378504.809 9    257789.99129       100.000
  20779972.305     2273995.446 9   1662329.21929        98.000
  23164357.739    -9287380.504 7   3918909.01325        42.000
  20743096.573    -2162038.619 9  -1988783.63529        86.000
  23393525.749    -2037043.073 7  -1625831.59926        48.000
 96  6 10 15 15 15.0000000  0  6G15G 2G27G19G 7G26
  23681320.063     -146594.068 6   -246051.03725        40.000
  21377216.711      385011.455 9    262860.10429        98.000
  20785146.872     2301188.083 9   1683518.28329        98.000
  23173647.078    -9238566.698 6   3956945.74325        40.000
  20740629.311    -2174996.415 9  -1998880.61229        86.000
  23391633.849    -2046993.030 7  -1633584.81826        50.000
 96  6 10 15 15 30.0000000  0  6G15G 2G27G19G 7G26
  23682634.383     -139676.521 6   -240660.79025        38.000
  21378458.001      391551.878 9    267956.54729       100.000
  20790343.894     2328496.854 9   1704797.82429        98.000
  23182949.128    -9189682.816 6   3995037.07825        38.000
  20738192.328    -2187828.774 9  -2008879.85229        88.000
  23389762.005    -2056809.296 7  -1641233.87926        46.000
 96  6 10 15 15 45.0000000  0  6G15G 2G27G19G 7G26
  23683980.721     -132614.461 6   -235157.90325        38.000
  21379712.993      398130.692 9    273082.88129       102.000
  20795562.262     2355921.981 9   1726168.07229        98.000
  23192265.419    -9140730.051 6   4033182.08525        36.000
  20735770.755    -2200534.818 9  -2018780.65329        88.000
  23387922.718    -2066492.717 7  -1648779.41226        46.000
 96  6 10 15 16  0.0000000  0  6G15G 2G27G19G 7G26
  23685354.071     -125409.319 7   -229543.50725        42.000
  21380970.352      404749.017 9    278240.01029       100.000
  20800802.124     2383461.038 9   1747627.07029        98.000
  23201596.969    -9091708.431 6   4071380.74125        36.000
  20733381.169    -2213113.892 9  -2028582.53829        86.000
  23386107.475    -2076044.660 7  -1656222.45826        48.000
 96  6 10 15 16 15.0000000  0  6G15G 2G27G19G 7G26
  23686747.446     -118059.793 6   -223816.59425        38.000
  21382243.121      411407.819 9    283428.68729        98.000
  20806065.161     2411116.372 9   1769176.67729        98.000
  23210935.444    -9042616.041 6   4109634.52625        36.000
  20731006.783    -2225562.839 8  -2038283.00829        82.000
  23384312.977    -2085464.235 7  -1663562.37126        48.000
 96  6 10 15 16 30.0000000  0  6G15G 2G27G19G 7G26
  23688168.702     -110566.487 6   -217977.67225        40.000
  21383512.862      418104.577 9    288646.94429        98.000
  20811349.093     2438887.292 9   1790816.34629        98.000
  23220295.144    -8993453.489 6   4147942.96225        38.000
  20728665.074    -2237884.096 9  -2047883.97929        86.000
  23382545.161    -2094754.364 7  -1670801.45726        48.000
 96  6 10 15 16 45.0000000  0  6G15G 2G27G19G 7G26
  23689624.644     -102929.949 7   -212027.21525        42.000
  21384792.616      424835.971 9    293892.18129       100.000
  20816656.618     2466773.270 9   1812545.67329        98.000
  23229651.997    -8944221.835 6   4186305.25725        36.000
  20726345.100    -2250080.625 9  -2057387.74629        86.000
  23380799.319    -2103915.503 7  -1677940.01326        48.000
 96  6 10 15 17  0.0000000  0  6G15G 2G27G19G 7G26
  23691106.069      -95149.774 6   -205964.71525        40.000
  21386081.754      431601.640 9    299164.13129       100.000
  20821986.689     2494778.733 9   1834368.09929        98.000
  23239035.321    -8894918.504 6   4224723.41125        38.000
  20724045.242    -2262155.535 9  -2066796.77929        84.000
  23379081.269    -2112949.117 7  -1684979.20426        48.000
 96  6 10 15 17 15.0000000  0  6G15G 2G27G19G 7G26
  23692613.575      -87225.403 6   -199789.87525        40.000
  21387376.587      438405.795 9    304466.06329       100.000
  20827336.365     2522908.568 9   1856287.44029        96.000
  23248438.101    -8845542.992 6   4263197.82225        40.000
  20721769.667    -2274110.703 9  -2076112.49129        84.000
  23377385.763    -2121857.421 7  -1691920.74226        46.000
 96  6 10 15 17 30.0000000  0  6G15G 2G27G19G 7G26
  23694155.408      -79157.230 7   -193502.96325        44.000
  21388680.954      445248.967 9    309798.41029        98.000
  20832715.031     2551165.304 9   1878305.67929        94.000
  23257845.768    -8796099.791 6   4301725.00325        40.000
  20719517.297    -2285948.587 9  -2085336.78929        86.000
  23375713.011    -2130638.193 7  -1698762.89026        48.000
 96  6 10 15 17 45.0000000  0  6G15G 2G27G19G 7G26
  23695716.097      -70945.005 6   -187103.79525        40.000
  21389987.750      452130.570 9    315160.69229       100.000
  20838115.073     2579551.558 9   1900424.83129        96.000
  23267265.877    -8746590.718 7   4340303.50825        44.000
  20717291.817    -2297670.698 9  -2094470.90029        88.000
  23374069.428    -2139291.127 7  -1705505.44026        50.000
 96  6 10 15 18  0.0000000  0  6G15G 2G27G19G 7G26
  23697304.218      -62589.119 6   -180592.75125        40.000
  21391305.637      459052.006 9    320554.01829        98.000
  20843543.895     2608066.823 9   1922644.52229        96.000
  23276704.843    -8697018.476 7   4378931.20625        48.000
  20715078.869    -2309279.317 9  -2103516.57329        84.000
  23372449.860    -2147817.574 7  -1712149.38826        50.000
 96  6 10 15 18 15.0000000  0  6G15G 2G27G19G 7G26
  23698917.131      -54089.599 6   -173969.74325        40.000
  21392628.022      466011.466 9    325976.96229        98.000
  20848992.323     2636711.525 9   1944965.05929        92.000
  23286145.097    -8647384.096 7   4417607.32325        52.000
  20712893.952    -2320773.297 9  -2112472.91429        88.000
  23370847.229    -2156214.758 7  -1718692.67326        50.000
 96  6 10 15 18 30.0010000  0  6G15G 2G27G19G 7G26
  23700564.341      -45445.240 6   -167233.92825        40.000
  21393962.758      473009.392 9    331429.89029       100.000
  20854473.039     2665486.638 9   1967387.22029        94.000
  23295598.633    -8597686.418 7   4456332.76325        50.000
  20710726.362    -2332154.481 9  -2121341.36229        90.000
  23369278.835    -2164481.375 7  -1725134.20726        52.000
 96  6 10 15 18 45.0010000  0  6G15G 2G27G19G 7G26
  23702243.238      -36657.508 6   -160386.36225        40.000
  21395300.821      480045.758 9    336912.77329       100.000
  20859970.513     2694387.509 9   1989907.36729        94.000
  23305069.286    -8547931.059 7   4495103.15925        48.000
  20708581.617    -2343421.476 9  -2130120.83129        86.000
  23367728.338    -2172614.139 7  -1731471.43426        52.000
 96  6 10 15 19  0.0010000  0  6G15G 2G27G19G 7G26
  23703938.745      -27726.131 6   -153426.83525        40.000
  21396648.089      487121.316 9    342426.19029       100.000
  20865493.409     2723416.809 9   2012527.59729        94.000
  23314550.523    -8498114.432 7   4533921.30125        52.000
  20706460.885    -2354573.862 9  -2138810.99429        86.000
  23366203.684    -2180613.235 7  -1737704.50626        50.000
 96  6 10 15 19 15.0010000  0  6G15G 2G27G19G 7G26
  23705665.130      -18650.994 7   -146355.28525        42.000
  21398002.101      494238.881 9    347972.34929        98.000
  20871042.268     2752574.427 9   2035247.81229        92.000
  23324042.881    -8448236.762 7   4572787.01325        50.000
  20704359.400    -2365610.159 9  -2147410.71329        86.000
  23364707.809    -2188481.415 7  -1743835.54026        50.000
 96  6 10 15 19 30.0010000  0  6G15G 2G27G19G 7G26
  23707414.419       -9431.654 6   -139171.37825        40.000
  21399362.170      501398.232 9    353551.06529        98.000
  20876616.279     2781856.736 9   2058065.20029        92.000
  23333547.561    -8398301.211 7   4611697.84225        52.000
  20702284.297    -2376526.843 9  -2155917.19629        88.000
  23363237.507    -2196216.063 7  -1749862.52426        50.000
 96  6 10 15 19 45.0010000  0  6G15G 2G27G19G 7G26
  23709198.214         -67.318 6   -131874.52225        40.000
  21400735.129      508597.789 9    359161.11029       102.000
  20882208.968     2811261.709 9   2080978.17229        92.000
  23343061.265    -8348306.471 7   4650654.78425        50.000
  20700224.603    -2387322.895 9  -2164329.70229        86.000
  23361786.542    -2203815.685 7  -1755784.28426        50.000
 96  6 10 15 20  0.0010000  0  6G15G 2G27G19G 7G26
  23711004.013        9443.521 6   -124463.51225        40.000
  21402111.417      515840.345 9    364804.65729        98.000
  20887828.427     2840786.617 9   2103984.58229        92.000
  23352585.372    -8298248.553 7   4689660.92425        54.000
  20698196.807    -2397996.051 9  -2172646.44729        86.000
  23360370.802    -2211278.613 7  -1761599.57426        50.000
 96  6 10 15 20 15.0010000  0  6G15G 2G27G19G 7G26
  23712855.682       19099.934 6   -116939.03725        40.000
  21403500.715      523124.314 9    370480.47929       100.000
  20893468.603     2870429.986 9   2127083.28129        92.000
  23362124.408    -8248126.990 7   4728716.65725        48.000
  20696190.176    -2408544.890 9  -2180866.32229        88.000
  23358975.028    -2218603.577 7  -1767307.35326        54.000
 96  6 10 15 20 30.0010000  0  6G15G 2G27G19G 7G26
  23714708.969       28905.967 6   -109297.97225        38.000
  21404892.231      530452.306 9    376190.57929       100.000
  20899136.719     2900195.684 9   2150277.33829        94.000
  23371673.877    -8197937.850 7   4767825.03125        44.000
  20694206.809    -2418964.531 9  -2188985.52129        90.000
  23357611.632    -2225786.022 7  -1772904.07126        52.000
 96  6 10 15 20 45.0010000  0  6G15G 2G27G19G 7G26
  23716608.304       38862.969 6   -101539.25825        38.000
  21406297.509      537826.127 9    381936.43929       102.000
  20904822.043     2930082.777 9   2173565.97929        92.000
  23381240.374    -8147679.758 7   4806987.16925        44.000
  20692249.044    -2429254.887 9  -2197003.95929        88.000
  23356272.609    -2232828.287 7  -1778391.55226        58.000
 96  6 10 15 21  0.0010000  0  6G15G 2G27G19G 7G26
  23718532.462       48970.803 6    -93663.00725        38.000
  21407709.051      545244.395 9    387716.90429       100.000
  20910534.558     2960090.917 9   2196948.94529        92.000
  23390813.587    -8097353.385 7   4846202.51625        44.000
  20690313.524    -2439416.145 9  -2204921.81729        88.000
  23354955.381    -2239731.245 7  -1783770.45826        56.000
 96  6 10 15 21 15.0010000  0  6G15G 2G27G19G 7G26
  23720481.652       59228.778 6    -85669.81925        36.000
  21409127.310      552705.475 9    393530.73629        98.000
  20916263.742     2990218.540 9   2220424.99629        90.000
  23400404.277    -8046960.755 6   4885469.48925        38.000
  20688405.375    -2449450.394 9  -2212740.69829        90.000
  23353670.261    -2246498.276 7  -1789043.46726        54.000
 96  6 10 15 21 30.0010000  0  6G15G 2G27G19G 7G26
  23722457.554       69637.798 6    -77558.88925        36.000
  21410554.412      560210.470 9    399378.78729       100.000
  20922021.496     3020466.720 9   2243995.00329        94.000
  23409993.918    -7996502.743 6   4924787.38325        34.000
  20686522.498    -2459358.195 9  -2220461.07729        90.000
  23352408.494    -2253126.411 7  -1794208.27126        54.000
 96  6 10 15 21 45.0010000  0  6G15G 2G27G19G 7G26
  23724472.310       80196.500 6    -69331.37125        38.000
  21411990.268      567757.055 9    405259.24929       100.000
  20927798.257     3050835.988 9   2267659.37129        92.000
  23419618.905    -7945979.674 6   4964155.97725        38.000
  20684656.230    -2469142.890 9  -2228085.50029        88.000
  23351171.580    -2259615.147 7  -1799264.42826        56.000
 96  6 10 15 22  0.0010000  0  6G15G 2G27G19G 7G26
  23726507.541       90902.544 6    -60989.00225        38.000
  21413437.516      575344.581 9    411171.59529        98.000
  20933601.040     3081326.729 9   2291418.36729        92.000
  23429247.310    -7895390.489 6   5003576.07725        40.000
  20682817.483    -2478807.264 9  -2235616.16929        88.000
  23349969.413    -2265967.683 7  -1804214.47826        58.000
 96  6 10 15 22 15.0010000  0  6G15G 2G27G19G 7G26
  23728574.280      101755.807 6    -52531.89825        38.000
  21414888.661      582972.319 9    417115.28929        96.000
  20939428.525     3111940.773 9   2315273.45829        92.000
  23438883.688    -7844735.629 6   5043047.37625        38.000
  20681002.390    -2488350.341 9  -2243052.33629        88.000
  23348781.425    -2272186.217 7  -1809060.09626        54.000
 96  6 10 15 22 30.0010000  0  6G15G 2G27G19G 7G26
  23730673.367      112755.864 6    -43960.39425        40.000
  21416347.391      590638.105 9    423088.63829       100.000
  20945276.577     3142682.482 9   2339228.03929        92.000
  23448534.487    -7794017.289 6   5082568.15925        38.000
  20679212.209    -2497774.234 9  -2250395.62229        88.000
  23347621.288    -2278274.004 7  -1813803.79426        54.000
 96  6 10 15 22 45.0010000  0  6G15G 2G27G19G 7G26
  23732789.662      123902.707 6    -35274.53525        38.000
  21417813.376      598342.783 9    429092.27629       100.000
  20951152.689     3173551.449 9   2363281.76329        92.000
  23458194.790    -7743234.690 6   5122138.97825        40.000
  20677438.487    -2507081.616 9  -2257648.11229        86.000
  23346486.094    -2284234.829 7  -1818448.57226        56.000
 96  6 10 15 23  0.0010000  0  6G15G 2G27G19G 7G26
  23734939.114      135194.160 6    -26475.99225        36.000
  21419285.747      606083.798 9    435124.24529        98.000
  20957049.606     3204547.775 9   2387434.74329        92.000
  23467880.964    -7692386.177 7   5161761.18925        42.000
  20675689.708    -2516275.600 9  -2264812.24829        88.000
  23345380.220    -2290069.419 7  -1822995.02426        56.000
 96  6 10 15 23 15.0010000  0  6G15G 2G27G19G 7G26
  23737120.314      146630.384 6    -17564.70325        38.000
  21420766.032      613862.297 9    441185.41329        96.000
  20962972.966     3235673.347 9   2411688.42929        92.000
  23477561.982    -7641470.815 7   5201435.49825        44.000
  20673961.194    -2525356.298 9  -2271888.11229        88.000
  23344291.553    -2295777.436 7  -1827442.84326        56.000
 96  6 10 15 23 30.0010000  0  6G15G 2G27G19G 7G26
  23739315.154      158209.462 6     -8542.04525        38.000
  21422253.602      621678.257 9    447275.77729        98.000
  20968921.448     3266926.963 9   2436041.89329        92.000
  23487263.476    -7590490.360 6   5241160.51525        40.000
  20672254.086    -2534325.695 9  -2278877.26329        86.000
  23343227.290    -2301360.546 7  -1831793.31626        54.000
 96  6 10 15 23 45.0010000  0  6G15G 2G27G19G 7G26
  23741553.674      169931.879 6       592.30625        36.000
  21423746.959      629532.824 9    453396.21129       100.000
  20974892.204     3298306.585 9   2460493.52129        94.000
  23496981.668    -7539445.961 6   5280935.31825        38.000
  20670566.824    -2543183.575 9  -2285779.49029        86.000
  23342193.756    -2306819.178 7  -1836046.80026        54.000
 96  6 10 15 24  0.0010000  0  6G15G 2G27G19G 7G26
  23743807.424      181796.211 6      9837.24025        38.000
  21425249.009      637423.098 9    459544.48229       100.000
  20980885.235     3329806.776 9   2485039.11929        92.000
  23506707.685    -7488339.690 6   5320758.32725        40.000
  20668903.006    -2551930.308 9  -2292595.13829        88.000
  23341173.532    -2312156.271 7  -1840205.55426        56.000
 96  6 10 15 24 15.0010000  0  6G15G 2G27G19G 7G26
  23746094.241      193802.543 6     19192.85025        40.000
  21426757.085      645346.701 9    465718.71829        96.000
  20986901.111     3361425.266 9   2509676.90729        90.000
  23516431.993    -7437173.407 6   5360628.13325        40.000
  20667262.332    -2560565.347 9  -2299323.72929        88.000
  23340182.538    -2317372.819 7  -1844270.38126        58.000
 96  6 10 15 24 30.0010000  0  6G15G 2G27G19G 7G26
  23748404.921      205951.204 6     28659.34825        38.000
  21428272.775      653301.857 9    471917.53329       100.000
  20992940.999     3393160.628 9   2534405.74929        90.000
  23526188.079    -7385948.731 6   5400543.51125        40.000
  20665636.737    -2569088.295 9  -2305964.98829        86.000
  23339212.709    -2322468.739 7  -1848241.23926        56.000
 96  6 10 15 24 45.0010000  0  6G15G 2G27G19G 7G26
  23750739.016      218242.002 6     38236.62325        38.000
  21429790.655      661288.971 9    478141.26329        98.000
  20999004.662     3425009.122 9   2559222.75029        90.000
  23535944.794    -7334665.851 6   5440504.18925        38.000
  20664037.944    -2577499.623 9  -2312519.24829        86.000
  23338264.766    -2327441.395 7  -1852116.05626        58.000
 96  6 10 15 25  0.0010000  0  6G15G 2G27G19G 7G26
  23753111.213      230676.138 6     47925.56525        40.000
  21431316.808      669310.620 9    484391.89129        98.000
  21005085.382     3456967.429 9   2584125.31529        88.000
  23545714.131    -7283325.392 6   5480509.73825        40.000
  20662461.306    -2585795.626 9  -2318983.67529        88.000
  23337349.199    -2332284.162 7  -1855889.67526        58.000
 96  6 10 15 25 15.0010000  0  6G15G 2G27G19G 7G26
  23755505.596      243253.468 6     57726.06125        40.000
  21432852.045      677366.628 9    490669.30629        98.000
  21011185.889     3489034.193 9   2609112.40629        88.000
  23555493.121    -7231929.959 6   5520558.12725        40.000
  20660905.143    -2593973.691 9  -2325356.17829        88.000
  23336446.524    -2336994.138 7  -1859559.76226        56.000
 96  6 10 15 25 30.0010000  0  6G15G 2G27G19G 7G26
  23757923.662      255974.528 6     67638.56425        38.000
  21434390.970      685457.161 9    496973.61029        96.000
  21017307.861     3521207.375 9   2634182.40229        90.000
  23565288.720    -7180481.141 6   5560648.06325        40.000
  20659374.283    -2602031.829 9  -2331635.23629        88.000
  23335579.794    -2341570.564 7  -1863125.80826        56.000
 96  6 10 15 25 45.0010000  0  6G15G 2G27G19G 7G26
  23760371.137      268839.872 6     77663.49825        40.000
  21435934.511      693582.150 9    503304.77429        96.000
  21023450.638     3553487.595 9   2659335.82429        88.000
  23575086.927    -7128978.867 6   5600779.67325        38.000
  20657859.911    -2609968.095 9  -2337819.34729        90.000
  23334734.499    -2346012.381 7  -1866586.95626        58.000
 96  6 10 15 26  0.0010000  0  6G15G 2G27G19G 7G26
  23762849.522      281848.994 7     87800.46525        42.000
  21437487.466      701740.885 9    509662.24329        98.000
  21029615.450     3585877.501 9   2684574.70629        86.000
  23584894.877    -7077421.773 6   5640954.00725        38.000
  20656373.001    -2617782.476 9  -2343908.45629        88.000
  23333914.777    -2350318.105 7  -1869942.05826        56.000
 96  6 10 15 26 15.0010000  0  6G15G 2G27G19G 7G26
  23765356.266      295000.798 7     98048.64325        44.000
  21439044.288      709932.786 9    516045.52929        94.000
  21035798.640     3618380.539 9   2709901.74529        86.000
  23594714.969    -7025808.535 6   5681172.11425        36.000
  20654910.673    -2625474.807 9  -2349902.48629        88.000
  23333119.787    -2354487.935 7  -1873191.31426        56.000
 96  6 10 15 26 30.0010000  0  6G15G 2G27G19G 7G26
  23767882.617      308296.055 7    108408.60625        42.000
  21440610.524      718161.989 9    522457.89329        94.000
  21042003.984     3651001.697 9   2735320.81529        86.000
  23604558.474    -6974137.426 6   5721435.32625        38.000
  20653468.371    -2633045.295 9  -2355801.56429        88.000
  23332352.409    -2358522.922 7  -1876335.46626        54.000
 96  6 10 15 26 45.0010000  0  6G15G 2G27G19G 7G26
  23770433.971      321734.751 6    118880.32025        40.000
  21442189.711      726431.750 9    528901.86529        98.000
  21048235.290     3683741.286 9   2760832.17029        84.000
  23614400.031    -6922409.065 6   5761743.14425        36.000
  20652052.691    -2640494.475 9  -2361606.12229        88.000
  23331613.420    -2362420.919 7  -1879372.86726        54.000
 96  6 10 15 27  0.0010000  0  6G15G 2G27G19G 7G26
  23773022.139      335316.319 7    129463.33725        44.000
  21443769.557      734742.487 9    535377.75929        98.000
  21054486.143     3716600.049 9   2786436.40929        84.000
  23624254.359    -6870623.952 6   5802095.12425        36.000
  20650656.798    -2647822.544 9  -2367316.29229        88.000
  23330893.768    -2366182.938 7  -1882304.29226        56.000
 96  6 10 15 27 15.0010000  0  6G15G 2G27G19G 7G26
  23775635.340      349040.964 7    140157.81825        44.000
  21445355.100      743092.093 9    541883.93829        96.000
  21060763.137     3749582.472 9   2812136.99529        84.000
  23634113.274    -6818780.443 6   5842492.63125        36.000
  20649285.247    -2655030.549 9  -2372932.91429        86.000
  23330201.278    -2369810.865 7  -1885131.26326        52.000
 96  6 10 15 27 30.0010000  0  6G15G 2G27G19G 7G26
  23778272.554      362907.511 7    150962.97625        42.000
  21446954.253      751478.782 9    548419.02229        94.000
  21067066.274     3782690.647 9   2837935.55229        86.000
  23643991.315    -6766880.010 6   5882934.50125        36.000
  20647937.470    -2662121.698 9  -2378458.49029        86.000
  23329538.856    -2373309.885 7  -1887857.76226        54.000
 96  6 10 15 27 45.0010000  0  6G15G 2G27G19G 7G26
  23780938.309      376917.042 7    161879.50525        44.000
  21448557.393      759905.530 9    554985.32129        98.000
  21073391.235     3815929.185 9   2863835.70329        84.000
  23653884.497    -6714923.279 6   5923420.20725        36.000
  20646609.450    -2669095.966 9  -2383892.96929        86.000
  23328893.103    -2376680.047 7  -1890483.87526        52.000
 96  6 10 15 28  0.0010000  0  6G15G 2G27G19G 7G26
  23783621.601      391069.041 6    172907.04625        40.000
  21450167.548      768371.855 9    561582.46029        96.000
  21079742.338     3849299.144 9   2889838.27329        86.000
  23663779.776    -6662914.137 6   5963946.81325        38.000
  20645301.305    -2675955.400 9  -2389237.97229        84.000
  23328279.728    -2379921.215 7  -1893009.46826        52.000
 96  6 10 15 28 15.0010000  0  6G15G 2G27G19G 7G26
  23786349.923      405363.970 6    184045.94425        38.000
  21451783.699      776876.875 9    568209.74229        96.000
  21086117.395     3882798.501 9   2915941.66629        86.000
  23673684.919    -6610853.834 6   6004513.25825        38.000
  20644019.003    -2682698.471 9  -2394492.30929        88.000
  23327682.571    -2383033.549 7  -1895434.68026        54.000
 96  6 10 15 28 30.0010000  0  6G15G 2G27G19G 7G26
  23789103.636      419800.373 7    195295.09425        42.000
  21453413.971      785418.085 9    574865.23729        96.000
  21092513.377     3916422.471 9   2942142.15829        84.000
  23683606.580    -6558744.408 6   6045117.99025        40.000
  20642758.196    -2689328.815 9  -2399658.79429        90.000
  23327113.445    -2386019.942 7  -1897761.72626        52.000
 96  6 10 15 28 45.0010000  0  6G15G 2G27G19G 7G26
  23791875.128      434379.453 7    206655.42225        44.000
  21455045.021      793996.074 9    581549.38029        96.000
  21098935.651     3950169.946 9   2968438.88429        88.000
  23693516.550    -6506584.499 6   6085762.04825        36.000
  20641518.644    -2695843.558 9  -2404735.22529        88.000
  23326578.046    -2388877.101 7  -1899988.07426        52.000
 96  6 10 15 29  0.0010000  0  6G15G 2G27G19G 7G26
  23794671.921      449100.089 6    218126.01125        40.000
  21456681.798      802606.895 9    588259.10029        94.000
  21105383.977     3984039.169 9   2994830.49729        90.000
  23703463.214    -6454373.930 6   6126445.58425        38.000
  20640302.116    -2702242.187 9  -2409721.14629        88.000
  23326053.559    -2391605.567 7  -1902114.14826        54.000
 96  6 10 15 29 15.0010000  0  6G15G 2G27G19G 7G26
  23797501.213      463962.458 6    229707.09425        40.000
  21458327.329      811251.022 9    594994.79729        98.000
  21111850.980     4018030.705 9   3021317.38729        88.000
  23713405.441    -6402111.486 6   6167169.51525        40.000
  20639105.165    -2708524.718 9  -2414616.64329        90.000
  23325557.043    -2394205.632 7  -1904140.19026        48.000
 96  6 10 15 29 30.0010000  0  6G15G 2G27G19G 7G26
  23800357.875      478965.877 7    241398.07225        42.000
  21459980.265      819930.715 9    601758.19229        98.000
  21118342.596     4052143.567 9   3047898.82529        90.000
  23723364.397    -6349798.575 6   6207932.81325        38.000
  20637929.589    -2714691.010 9  -2419421.54429        86.000
  23325088.048    -2396677.944 7  -1906066.67926        52.000
 96  6 10 15 29 45.0010000  0  6G15G 2G27G19G 7G26
  23803236.782      494109.981 6    253198.68725        40.000
  21461637.607      828647.420 9    608550.42029        96.000
  21124853.968     4086373.600 9   3074571.56629        90.000
  23733322.603    -6297436.797 6   6248734.16625        38.000
  20636778.206    -2720739.674 9  -2424134.78129        84.000
  23324645.644    -2399023.264 7  -1907894.21326        52.000
 96  6 10 15 30  0.0010000  0  6G15G 2G27G19G 7G26
  23806150.675      509394.227 7    265108.45225        42.000
  21463302.145      837399.181 9    615369.96429        98.000
  21131392.441     4120717.802 9   3101333.28929        92.000
  23743299.846    -6245024.006 6   6289575.29325        38.000
  20635650.806    -2726671.450 8  -2428756.94529        82.000
  23324224.136    -2401240.999 7  -1909622.31226        50.000
 96  6 10 15 30 15.0010000  0  6G15G 2G27G19G 7G26
  23809081.116      524819.930 6    277128.52625        40.000
  21464975.796      846186.814 9    622217.48429        98.000
  21137949.082     4155175.169 9   3128183.16729        92.000
  23753283.144    -6192554.910 6   6330460.32925        38.000
  20634546.820    -2732484.260 9  -2433286.38729        86.000
  23323828.979    -2403331.214 7  -1911251.05026        52.000
 96  6 10 15 30 30.0010000  0  6G15G 2G27G19G 7G26
  23812044.774      540386.618 6    289258.36725        40.000
  21466654.784      855011.095 9    629093.53329       100.000
  21144525.959     4189744.629 9   3155120.41629        90.000
  23763284.820    -6140025.491 6   6371392.32025        36.000
  20633464.210    -2738177.597 9  -2437722.74929        84.000
  23323453.759    -2405295.100 7  -1912781.33226        48.000
 96  6 10 15 30 45.0010000  0  6G15G 2G27G19G 7G26
  23815033.675      556094.089 6    301497.92825        40.000
  21468343.005      863874.977 9    636000.45829        96.000
  21151128.109     4224426.294 9   3182145.08629        94.000
  23773284.578    -6087435.399 6   6412371.59525        36.000
  20632399.887    -2743751.558 9  -2442066.09829        84.000
  23323100.723    -2407130.605 7  -1914211.59326        46.000
 96  6 10 15 31  0.0010000  0  6G15G 2G27G19G 7G26
  23818051.206      571942.437 6    313847.29525        40.000
  21470033.265      872778.940 9    642938.61829        96.000
  21157748.755     4259220.291 9   3209257.28229        92.000
  23783306.490    -6034787.862 6   6453395.51825        38.000
  20631365.063    -2749205.220 9  -2446315.69129        86.000
  23322785.881    -2408836.860 7  -1915541.18026        52.000
 96  6 10 15 31 15.0010000  0  6G15G 2G27G19G 7G26
  23821089.423      587932.590 7    326307.18225        42.000
  21471735.907      881723.287 9    649908.24229        96.000
  21164391.107     4294124.748 9   3236455.55529        92.000
  23793332.239    -5982085.809 6   6494462.07725        36.000
  20630349.486    -2754541.392 9  -2450473.73729        86.000
  23322477.695    -2410411.951 7  -1916768.51026        50.000
 96  6 10 15 31 30.0010000  0  6G15G 2G27G19G 7G26
  23824162.895      604064.512 6    338877.52425        38.000
  21473447.931      890708.561 9    656909.74929        98.000
  21171053.724     4329140.501 9   3263740.55029        90.000
  23803378.134    -5929332.104 6   6535568.83825        40.000
  20629355.974    -2759760.004 9  -2454540.17329        88.000
  23322202.006    -2411855.473 7  -1917893.34826        48.000
 96  6 10 15 31 45.0010000  0  6G15G 2G27G19G 7G26
  23827264.578      620339.527 6    351559.36525        38.000
  21475164.243      899734.074 9    663942.61929        98.000
  21177736.968     4364266.846 9   3291111.72229        88.000
  23813422.141    -5876526.271 6   6576716.26125        38.000
  20628385.426    -2764859.994 9  -2458514.20029        86.000
  23321954.107    -2413166.433 7  -1918914.87226        54.000
 96  6 10 15 32  0.0010000  0  6G15G 2G27G19G 7G26
  23830383.199      636757.256 6    364352.35825        38.000
  21476888.350      908799.709 9    671006.75429        96.000
  21184441.406     4399501.363 9   3318567.18429        88.000
  23823489.471    -5823666.740 6   6617905.49125        40.000
  20627439.551    -2769842.086 9  -2462396.34429        86.000
  23321730.432    -2414342.700 7  -1919831.43326        50.000
 96  6 10 15 32 15.0010000  0  6G15G 2G27G19G 7G26
  23833536.656      653316.541 6    377255.70825        40.000
  21478621.240      917904.806 9    678101.63029        96.000
  21191166.651     4434844.553 9   3346107.34029        88.000
  23833554.254    -5770753.975 6   6659136.25225        38.000
  20626510.614    -2774707.819 9  -2466187.80129        84.000
  23321527.982    -2415383.938 7  -1920642.78126        52.000
 96  6 10 15 32 30.0010000  0  6G15G 2G27G19G 7G26
  23836712.028      670018.426 6    390270.15925        40.000
  21480360.306      927048.681 9    685226.73229        94.000
  21197913.780     4470297.270 9   3373732.82729        86.000
  23843632.587    -5717789.779 6   6700406.96225        38.000
  20625608.029    -2779453.881 9  -2469886.03429        84.000
  23321361.777    -2416287.216 7  -1921346.64326        54.000
 96  6 10 15 32 45.0010000  0  6G15G 2G27G19G 7G26
  23839921.126      686863.029 6    403395.78225        38.000
  21482108.276      936228.907 9    692380.16929        96.000
  21204683.693     4505858.718 9   3401443.04529        88.000
  23853722.162    -5664778.035 6   6741714.75625        40.000
  20624726.069    -2784083.306 9  -2473493.37629        84.000
  23321212.720    -2417052.381 7  -1921942.89126        50.000
 96  6 10 15 33  0.0010000  0  6G15G 2G27G19G 7G26
  23843150.700      703849.401 6    416631.93325        40.000
  21483861.732      945441.445 9    699558.75529        98.000
  21211470.365     4541528.785 9   3429237.89829        88.000
  23863811.647    -5611721.846 6   6783057.21625        36.000
  20623866.474    -2788600.026 9  -2477012.89529        84.000
  23321094.242    -2417682.535 7  -1922433.96126        54.000
 96  6 10 15 33 15.0010000  0  6G15G 2G27G19G 7G26
  23846407.556      720978.882 6    429979.60425        38.000
  21485623.822      954686.406 9    706762.63229        98.000
  21218278.262     4577309.535 9   3457118.98929        88.000
  23873916.781    -5558621.083 6   6824434.41825        32.000
  20623026.546    -2793003.172 8  -2480443.91629        82.000
  23320998.669    -2418180.268 7  -1922821.78826        50.000
 96  6 10 15 33 30.0010000  0  6G15G 2G27G19G 7G26
  23849698.797      738251.296 6    443438.62725        38.000
  21487388.341      963963.390 9    713991.45229        98.000
  21225109.452     4613203.167 9   3485088.04129        88.000
  23884035.916    -5505471.388 6   6865849.76425        32.000
  20622211.920    -2797290.959 8  -2483785.04329        82.000
  23320928.397    -2418548.587 7  -1923108.79426        52.000
 96  6 10 15 33 45.0010000  0  6G15G 2G27G19G 7G26
  23853006.377      755667.017 6    457009.29525        36.000
  21489159.155      973273.755 9    721246.29629        98.000
  21231962.498     4649213.190 9   3513147.80229        86.000
  23894158.618    -5452268.545 6   6907306.51425        32.000
  20621420.078    -2801461.331 9  -2487034.68229        84.000
  23320884.927    -2418788.455 7  -1923295.67626        52.000
 96  6 10 15 34  0.0010000  0  6G15G 2G27G19G 7G26
  23856352.271      773226.227 6    470691.79325        38.000
  21490938.213      982616.561 9    728526.39429        98.000
  21238832.842     4685338.838 9   3541297.64729        84.000
  23904289.835    -5399008.378 6   6948807.92925        32.000
  20620647.723    -2805514.516 9  -2490192.99729        84.000
  23320865.111    -2418898.719 7  -1923381.62226        52.000
 96  6 10 15 34 15.0010000  0  6G15G 2G27G19G 7G26
  23859725.116      790929.310 6    484486.42025        38.000
  21492720.030      991992.679 9    735832.45829        98.000
  21245734.034     4721584.641 9   3569541.12429        86.000
  23914437.150    -5345692.107 6   6990352.98925        30.000
  20619896.862    -2809449.490 9  -2493259.21229        84.000
  23320865.890    -2418879.503 7  -1923366.64926        52.000
 96  6 10 15 34 30.0010000  0  6G15G 2G27G19G 7G26
  23863120.565      808775.392 6    498392.46225        38.000
  21494512.728     1001398.810 9    743161.91929        98.000
  21252653.214     4757952.802 9   3597879.95129        84.000
  23924588.152    -5292323.815 6   7031938.62825        28.000
  20619172.954    -2813269.777 8  -2496236.05829        82.000
  23320895.810    -2418735.184 7  -1923254.20626        50.000
 96  6 10 15 34 45.0010000  0  6G15G 2G27G19G 7G26
  23866537.390      826765.321 6    512410.63425        40.000
  21496306.447     1010837.280 9    750516.57429        98.000
  21259597.187     4794443.854 9   3626314.54629        84.000
  23934757.502    -5238903.145 6   7073565.11025        32.000
  20618465.623    -2816976.165 8  -2499124.14229        82.000
  23320946.265    -2418467.600 7  -1923045.71326        52.000
 96  6 10 15 35  0.0010000  0  6G15G 2G27G19G 7G26
  23869997.355      844899.033 6    526540.75525        38.000
  21498111.227     1020313.125 9    757900.34829        96.000
  21266564.274     4831057.676 9   3654844.78629        84.000
  23944935.486    -5185427.450 6   7115234.44825        34.000
  20617784.675    -2820569.391 8  -2501924.06329        82.000
  23321016.146    -2418078.756 7  -1922742.70326        50.000
 96  6 10 15 35 15.0010000  0  6G15G 2G27G19G 7G26
  23873466.013      863176.010 6    540782.57825        38.000
  21499922.603     1029829.681 9    765315.84129        98.000
  21273554.864     4867794.543 9   3683470.89629        84.000
  23955123.393    -5131896.737 6   7156946.70125        36.000
  20617120.814    -2824046.127 8  -2504633.21229        82.000
  23321117.087    -2417566.760 7  -1922343.74726        50.000
 96  6 10 15 35 30.0010000  0  6G15G 2G27G19G 7G26
  23876975.294      881596.947 6    555136.49625        40.000
  21501739.885     1039388.919 9    772764.60229        96.000
  21280569.708     4904654.912 9   3712193.26029        84.000
  23965318.076    -5078308.419 6   7198703.83525        36.000
  20616484.115    -2827404.410 9  -2507250.03629        84.000
  23321233.226    -2416926.717 7  -1921845.01426        52.000
 96  6 10 15 35 45.0010000  0  6G15G 2G27G19G 7G26
  23880510.147      900161.172 6    569602.18225        40.000
  21503567.570     1048990.770 9    780246.54929        98.000
  21287606.107     4941636.223 8   3741009.86729        82.000
  23975532.184    -5024663.267 6   7240505.23325        34.000
  20615864.774    -2830645.566 9  -2509775.60729        86.000
  23321383.032    -2416156.531 7  -1921244.87926        52.000
 96  6 10 15 36  0.0010000  0  6G15G 2G27G19G 7G26
  23884069.853      918869.232 6    584179.86725        40.000
  21505404.158     1058635.917 9    787762.24329        98.000
  21294668.408     4978734.173 8   3769917.36129        82.000
  23985749.681    -4970964.401 6   7282348.38225        36.000
  20615271.664    -2833770.657 9  -2512210.73829        84.000
  23321556.013    -2415254.468 7  -1920542.00626        54.000
 96  6 10 15 36 15.0010000  0  6G15G 2G27G19G 7G26
  23887655.430      937719.912 6    598868.70925        40.000
  21507241.736     1068324.161 9    795311.53729        98.000
  21301745.039     5015946.179 8   3798913.70629        82.000
  23995971.315    -4917216.969 6   7324229.52025        32.000
  20614699.001    -2836780.738 9  -2514556.24829        86.000
  23321752.407    -2414222.554 7  -1919737.90926        54.000
 96  6 10 15 36 30.0010000  0  6G15G 2G27G19G 7G26
  23891267.899      956714.039 6    613669.34625        40.000
  21509099.430     1078056.373 9    802895.08029        98.000
  21308851.949     5053271.545 9   3827998.41429        84.000
  24006208.088    -4863422.184 6   7366147.52925        36.000
  20614147.413    -2839677.013 9  -2516813.08229        86.000
  23321974.703    -2413061.999 7  -1918833.56526        54.000
 96  6 10 15 36 45.0010000  0  6G15G 2G27G19G 7G26
  23894913.586      975851.985 6    628582.04225        40.000
  21510957.874     1087833.223 9    810513.39329        98.000
  21315974.478     5090706.516 8   3857168.52529        80.000
  24016465.667    -4809575.663 6   7408105.84825        36.000
  20613620.587    -2842455.981 9  -2518978.51229        88.000
  23322218.344    -2411770.854 7  -1917827.48326        52.000
 96  6 10 15 37  0.0010000  0  6G15G 2G27G19G 7G26
  23898583.135      995133.892 6    643606.93825        40.000
  21512828.459     1097655.789 9    818167.34529        98.000
  21323118.532     5128250.719 8   3886423.73729        82.000
  24026710.325    -4755674.207 6   7450106.95825        28.000
  20613114.927    -2845115.256 9  -2521050.67829        86.000
  23322490.346    -2410345.916 7  -1916717.14426        52.000
 96  6 10 15 37 15.0010000  0  6G15G 2G27G19G 7G26
  23902272.261     1014558.913 6    658743.31525        40.000
  21514707.978     1107520.177 9    825853.88629        96.000
  21330284.501     5165903.486 9   3915763.53029        84.000
  24036980.705    -4701720.265 6   7492148.95624        30.000
  20612628.214    -2847655.388 9  -2523029.98329        84.000
  23322790.108    -2408785.025 7  -1915500.87626        56.000
 96  6 10 15 37 30.0010000  0  6G15G 2G27G19G 7G26
  23905994.844     1034126.890 6    673991.12125        38.000
  21516590.944     1117422.042 9    833569.61329        94.000
  21337468.218     5203666.267 8   3945189.08529        82.000
  24047260.738    -4647714.419 6   7534231.33724        34.000
  20612170.281    -2850078.176 9  -2524917.86029        88.000
  23323110.796    -2407088.424 7  -1914178.87026        54.000
 96  6 10 15 37 45.0010000  0  6G15G 2G27G19G 7G26
  23909749.205     1053836.796 6    689349.48725        40.000
  21518480.926     1127358.856 9    841312.59029        94.000
  21344673.880     5241535.781 8   3974697.78929        82.000
  24057546.887    -4593657.996 6   7576353.23224        36.000
  20611725.899    -2852387.050 9  -2526716.98329        84.000
  23323463.472    -2405259.779 7  -1912753.96526        56.000
 96  6 10 15 38  0.0010000  0  6G15G 2G27G19G 7G26
  23913529.678     1073687.867 6    704817.88525        40.000
  21520377.413     1137330.697 9    849082.84429        94.000
  21351902.446     5279512.040 8   4004289.66229        82.000
  24067832.586    -4539552.238 6   7618513.56025        36.000
  20611307.209    -2854582.323 9  -2528427.57829        84.000
  23323828.889    -2403302.473 7  -1911228.77226        54.000
 96  6 10 15 38 15.0010000  0  6G15G 2G27G19G 7G26
  23917333.624     1093680.112 7    720396.22025        42.000
  21522282.954     1147336.636 9    856879.69129        92.000
  21359149.868     5317597.346 8   4033966.51729        82.000
  24078143.588    -4485396.629 6   7660712.69925        36.000
  20610914.871    -2856664.873 9  -2530050.33829        88.000
  23324224.855    -2401215.645 7  -1909602.67526        52.000
 96  6 10 15 38 30.0010000  0  6G15G 2G27G19G 7G26
  23921167.700     1113812.486 7    736083.77425        42.000
  21524191.732     1157375.260 9    864701.99029        94.000
  21366416.088     5355792.192 9   4063728.73929        84.000
  24088466.222    -4431191.574 6   7702950.38025        34.000
  20610539.351    -2858637.631 9  -2531587.54429        88.000
  23324651.040    -2399002.009 7  -1907877.74326        54.000
 96  6 10 15 38 45.0010000  0  6G15G 2G27G19G 7G26
  23925026.359     1134085.803 7    751881.13925        42.000
  21526109.924     1167446.516 9    872549.72329        96.000
  21373706.201     5394097.124 8   4093576.73729        82.000
  24098787.267    -4376934.433 6   7745228.71724        32.000
  20610185.475    -2860499.696 9  -2533038.50229        86.000
  23325092.305    -2396658.593 7  -1906051.72026        54.000
 96  6 10 15 39  0.0010000  0  6G15G 2G27G19G 7G26
  23928904.804     1154500.750 6    767788.91925        40.000
  21528033.063     1177550.696 9    880423.10229        96.000
  21381019.218     5432515.587 8   4123513.20029        82.000
  24109123.451    -4322627.980 6   7787545.34924        32.000
  20609851.986    -2862250.894 9  -2534403.06429        88.000
  23325565.467    -2394184.867 7  -1904124.16726        52.000
 96  6 10 15 39 15.0010000  0  6G15G 2G27G19G 7G26
  23932822.132     1175055.492 7    783805.62025        42.000
  21529961.058     1187685.994 9    888320.72629        94.000
  21388351.932     5471046.419 9   4153537.22329        84.000
  24119462.783    -4268279.330 6   7829894.90824        34.000
  20609539.513    -2863897.078 9  -2535685.79929        88.000
  23326059.945    -2391581.660 7  -1902095.70726        52.000
 96  6 10 15 39 30.0010000  0  6G15G 2G27G19G 7G26
  23936758.347     1195751.348 6    799932.25725        40.000
  21531895.799     1197854.101 9    896243.93029        96.000
  21395706.201     5509690.177 9   4183649.23429        84.000
  24129806.193    -4213888.783 6   7872277.13924        32.000
  20609245.326    -2865435.301 9  -2536884.41729        86.000
  23326582.123    -2388847.943 7  -1899965.53826        52.000
 96  6 10 15 39 45.0010000  0  6G15G 2G27G19G 7G26
  23940719.835     1216588.334 6    816168.91225        40.000
  21533835.666     1208058.259 9    904195.21329        94.000
  21403081.125     5548447.809 9   4213849.97529        86.000
  24140169.269    -4159456.348 6   7914692.02725        30.000
  20608974.704    -2866863.275 8  -2537997.12229        82.000
  23327125.467    -2385985.044 7  -1897734.70826        52.000
 96  6 10 15 40  0.0010000  0  6G15G 2G27G19G 7G26
  23944710.462     1237563.292 6    832513.04725        38.000
  21535786.925     1218297.420 9    912173.78929        96.000
  21410475.656     5587317.196 9   4244137.79729        84.000
  24150530.875    -4104985.133 6   7957137.09525        28.000
  20608721.589    -2868180.199 9  -2539023.29029        84.000
  23327690.816    -2382996.104 7  -1895405.64626        52.000
 96  6 10 15 40 15.0010000  0  6G15G 2G27G19G 7G26
  23948736.944     1258679.014 6    848966.84825        40.000
  21537738.754     1228573.634 9    920181.23029        92.000
  21417895.370     5626303.443 9   4274516.69129        86.000
  24160903.425    -4050472.321 6   7999614.52824        28.000
  20608493.357    -2869382.134 9  -2539959.85829        84.000
  23328281.887    -2379877.122 7  -1892975.28826        52.000
 96  6 10 15 40 30.0010000  0  6G15G 2G27G19G 7G26
  23952782.074     1279936.231 7    865530.90225        42.000
  21539704.613     1238889.285 9    928219.40229        92.000
  21425334.090     5665405.533 9   4304985.84729        84.000
  24171283.619    -3995920.500 6   8042122.39324        28.000
  20608287.879    -2870468.079 9  -2540806.04829        84.000
  23328904.885    -2376627.175 7  -1890442.88026        52.000
 96  6 10 15 40 45.0010000  0  6G15G 2G27G19G 7G26
  23956854.125     1301333.750 6    882204.27825        38.000
  21541674.819     1249244.705 9    936288.56929        94.000
  21432796.494     5704622.196 8   4335544.27529        82.000
  24181678.712    -3941329.431 6   8084660.88324        30.000
  20608106.415    -2871437.991 9  -2541561.81929        84.000
  23329550.308    -2373247.533 7  -1887809.40326        52.000
 96  6 10 15 41  0.0010000  0  6G15G 2G27G19G 7G26
  23960946.442     1322871.018 6    898986.55725        34.000
  21543654.109     1259641.379 9    944389.86229        92.000
  21440284.230     5743955.076 9   4366193.27229        84.000
  24192073.596    -3886699.967 6   8127229.31524        32.000
  20607942.129    -2872289.417 9  -2542225.27229        86.000
  23330218.546    -2369738.312 7  -1885074.96626        52.000
 96  6 10 15 41 15.0010000  0  6G15G 2G27G19G 7G26
  23965072.066     1344548.998 6    915878.48725        36.000
  21545639.874     1270083.895 9    952526.88429        92.000
  21447789.744     5783405.728 8   4396934.03729        82.000
  24202480.501    -3832029.933 6   8169829.34724        32.000
  20607799.068    -2873019.558 9  -2542794.19129        84.000
  23330908.338    -2366098.384 7  -1882238.64526        54.000
 96  6 10 15 41 30.0010000  0  6G15G 2G27G19G 7G26
  23969222.213     1366367.215 6    932879.72325        36.000
  21547639.430     1280575.493 9    960702.15129        94.000
  21455320.830     5822972.063 8   4427764.92629        82.000
  24212893.103    -3777315.029 6   8212464.31024        32.000
  20607688.684    -2873626.286 9  -2543266.96229        86.000
  23331629.429    -2362328.597 7  -1879301.14626        54.000
 96  6 10 15 41 45.0010000  0  6G15G 2G27G19G 7G26
  23973402.998     1388325.914 6    949990.38725        36.000
  21549642.253     1291117.504 9    968916.71529        96.000
  21462870.744     5862655.707 8   4458687.24229        82.000
  24223311.880    -3722550.417 6   8255138.00525        32.000
  20607595.868    -2874108.454 9  -2543642.67629        90.000
  23332367.878    -2358432.065 7  -1876264.85126        50.000
 96  6 10 15 42  0.0010000  0  6G15G 2G27G19G 7G26
  23977610.016     1410424.399 6    967209.95825        38.000
  21551658.627     1301707.670 9    977168.78729        94.000
  21470443.921     5902454.525 9   4489699.29729        84.000
  24233740.251    -3667736.791 6   8297849.89325        30.000
  20607529.134    -2874469.758 9  -2543924.20929        88.000
  23333130.100    -2354409.930 7  -1873130.74426        50.000
 96  6 10 15 42 15.0010000  0  6G15G 2G27G19G 7G26
  23981836.790     1432662.987 6    984538.73425        38.000
  21553682.046     1312344.428 9    985457.17029        94.000
  21478038.983     5942365.171 8   4520798.49428        82.000
  24244174.078    -3612872.772 6   8340600.97925        28.000
  20607478.649    -2874714.375 9  -2544114.81629        86.000
  23333922.362    -2350259.924 7  -1869897.02226        52.000
 96  6 10 15 42 30.0010000  0  6G15G 2G27G19G 7G26
  23986088.027     1455040.905 6   1001976.04025        34.000
  21555714.939     1323027.511 9    993781.65529        94.000
  21485655.090     5982385.154 9   4551982.89828        84.000
  24254631.948    -3557960.465 6   8383389.73425        30.000
  20607456.495    -2874845.743 9  -2544217.15729        90.000
  23334734.769    -2345982.613 7  -1866564.06726        50.000
 96  6 10 15 42 45.0010000  0  6G15G 2G27G19G 7G26
  23990381.415     1477557.609 6   1019521.53825        38.000
  21557756.256     1333754.878 9   1002140.64529        96.000
  21493293.023     6022515.149 8   4583253.01128        82.000
  24265090.208    -3502997.400 6   8426218.10725        28.000
  20607454.276    -2874862.032 9  -2544229.84529        88.000
  23335573.738    -2341578.059 7  -1863131.94226        50.000
 96  6 10 15 43  0.0010000  0  6G15G 2G27G19G 7G26
  23994695.668     1500214.182 6   1037176.02525        40.000
  21559806.297     1344525.883 9   1010533.61929        94.000
  21500950.232     6062758.491 8   4614611.47528        78.000
  24275557.461    -3447980.820 6   8469088.16525        28.000
  20607470.975    -2874760.272 9  -2544150.54929        86.000
  23336441.278    -2337043.958 7  -1859598.86026        52.000
 96  6 10 15 43 15.0010000  0  6G15G 2G27G19G 7G26
  23999033.425     1523009.228 6   1054938.38925        40.000
  21561862.693     1355337.962 9   1018958.61429        94.000
  21508631.304     6103113.004 8   4646056.51928        80.000
  24286040.634    -3392912.271 6   8511998.74525        30.000
  20607512.526    -2874540.973 9  -2543979.65729        86.000
  23337328.514    -2332380.095 7  -1855964.67526        52.000
 96  6 10 15 43 30.0010000  0  6G15G 2G27G19G 7G26
  24003398.523     1545941.735 6   1072807.86925        40.000
  21563930.871     1366186.739 9   1027412.21329        98.000
  21516330.304     6143576.319 8   4677586.36928        78.000
  24296525.905    -3337794.194 6   8554947.83425        30.000
  20607576.352    -2874208.414 9  -2543720.52929        88.000
  23338237.394    -2327587.359 7  -1852230.08226        52.000
 96  6 10 15 43 45.0010000  0  6G15G 2G27G19G 7G26
  24007788.084     1569012.153 6   1090784.78725        38.000
  21566000.519     1377068.067 9   1035891.16029        96.000
  21524050.590     6184147.423 8   4709200.22428        78.000
  24307026.706    -3282628.306 6   8597934.21325        34.000
  20607659.574    -2873764.175 8  -2543374.35429        82.000
  23339174.786    -2322667.608 7  -1848396.53126        56.000
 96  6 10 15 44  0.0010000  0  6G15G 2G27G19G 7G26
  24012204.747     1592219.500 6   1108868.38825        38.000
  21568072.714     1387977.267 9   1044391.83029        94.000
  21531788.293     6224823.943 8   4740896.20728        74.000
  24317538.478    -3227419.259 6   8640954.18225        36.000
  20607765.611    -2873208.223 9  -2542941.14429        84.000
  23340136.670    -2317619.328 7  -1844462.81626        56.000
 96  6 10 15 44 15.0010000  0  6G15G 2G27G19G 7G26
  24016650.669     1615563.661 6   1127058.69025        40.000
  21570157.141     1398914.586 9   1052914.43729        96.000
  21539549.380     6265605.510 8   4772674.02328        78.000
  24328040.538    -3172169.363 6   8684006.05725        30.000
  20607893.112    -2872539.573 9  -2542420.11629        86.000
  23341124.306    -2312438.574 7  -1840425.89226        56.000
 96  6 10 15 44 30.0010000  0  6G15G 2G27G19G 7G26
  24021114.369     1639043.875 6   1145354.96925        36.000
  21572243.726     1409881.309 9   1061459.90729        96.000
  21547331.933     6306494.642 8   4804535.68128        80.000
  24338566.491    -3116879.613 6   8727088.94025        30.000
  20608042.199    -2871754.964 9  -2541808.73829        84.000
  23342132.778    -2307125.771 7  -1836286.03226        58.000
 96  6 10 15 44 45.0010000  0  6G15G 2G27G19G 7G26
  24025612.934     1662660.567 6   1163757.59425        36.000
  21574334.989     1420879.565 9   1070029.97029        96.000
  21555132.622     6347494.204 8   4836483.38028        80.000
  24349100.299    -3061550.644 6   8770202.44925        30.000
  20608212.901    -2870851.188 8  -2541104.47729        82.000
  23343165.623    -2301680.446 7  -1832042.91026        56.000
 96  6 10 15 45  0.0010000  0  6G15G 2G27G19G 7G26
  24030120.943     1686412.763 6   1182265.81125        34.000
  21576433.956     1431910.777 9   1078625.72229        94.000
  21562957.295     6388600.241 8   4868514.05028        82.000
  24359621.215    -3006182.541 6   8813346.43025        26.000
  20608407.946    -2869830.898 9  -2540309.45229        84.000
  23344230.785    -2296102.727 7  -1827696.66326        56.000
 96  6 10 15 45 15.0010000  0  6G15G 2G27G19G 7G26
  24034676.560     1710300.772 6   1200879.81125        36.000
  21578539.998     1442976.830 9   1087248.63329        96.000
  21570792.341     6429807.963 8   4900623.96628        78.000
  24370183.743    -2950776.448 6   8856519.95225        28.000
  20608626.225    -2868697.565 9  -2539426.32829        86.000
  23345313.696    -2290392.683 7  -1823247.30426        56.000
 96  6 10 15 45 30.0010000  0  6G15G 2G27G19G 7G26
  24039238.142     1734323.340 6   1219598.66425        36.000
  21580651.406     1454076.593 9   1095897.79229       100.000
  21578654.638     6471114.037 8   4932810.50628        82.000
  24380722.497    -2895332.979 6   8899722.66825        28.000
  20608860.902    -2867453.734 9  -2538457.10529        84.000
  23346429.073    -2284555.697 7  -1818699.02626        56.000
 96  6 10 15 45 45.0010000  0  6G15G 2G 4G27G 7G26
  24043846.312     1758481.104 6   1238422.86525        38.000
  21582770.939     1465210.455 9   1104573.51729        94.000
  24472012.988      424912.749 6  -1229662.41124        34.000
  21586534.473     6512519.290 8   4965074.32828        82.000
  20609121.602    -2866099.213 9  -2537401.63029        86.000
  23347563.968    -2278593.544 7  -1814053.20026        56.000
 96  6 10 15 46  0.0010000  0  6G15G 2G 4G27G 7G26
  24048462.846     1782774.854 6   1257353.05825        36.000
  21584895.628     1476381.222 9   1113278.01329        94.000
  24463045.806      377791.325 6  -1266380.33424        36.000
  21594435.383     6554023.885 8   4997415.57128        82.000
  20609397.141    -2864630.560 9  -2536257.22029        86.000
  23348723.085    -2272503.482 7  -1809307.69926        58.000
 96  6 10 15 46 15.0010000  0  6G15G 2G 4G27G 7G26
  24053109.149     1807204.104 6   1276388.87125        36.000
  21587029.311     1487590.528 9   1122012.53929        96.000
  24454082.701      330662.265 6  -1303104.21625        36.000
  21602354.641     6595629.817 8   5029835.75628        82.000
  20609700.531    -2863052.063 9  -2535027.21129        84.000
  23349905.227    -2266284.061 7  -1804461.37626        54.000
 96  6 10 15 46 30.0010000  0  6G15G 2G 4G27G 7G26
  24057786.331     1831768.878 6   1295530.22925        36.000
  21589173.216     1498841.161 9   1130779.25829       100.000
  24445111.082      283528.557 6  -1339831.73525        32.000
  21610289.308     6637338.827 8   5062336.28028        82.000
  20610018.821    -2861365.393 9  -2533712.90729        86.000
  23351114.320    -2259937.823 7  -1799516.24226        56.000
 96  6 10 15 46 45.0010000  0  6G15G 2G 4G27G 7G26
  24062487.736     1856468.517 6   1314776.67825        34.000
  21591317.392     1510130.650 9   1139576.26229        92.000
  24436139.433      236390.969 6  -1376562.34024        34.000
  21618246.429     6679148.116 8   5094914.94628        82.000
  20610360.674    -2859574.896 9  -2532317.72129        86.000
  23352346.227    -2253468.498 7  -1794475.27226        58.000
 96  6 10 15 47  0.0010000  0  6G15G 2G 4G27G 7G26
  24067212.675     1881301.206 6   1334126.84125        34.000
  21593472.990     1521455.407 9   1148400.74929        94.000
  24427170.512      189246.464 6  -1413298.40024        34.000
  21626219.050     6721052.955 9   5127568.04828        84.000
  20610721.744    -2857684.195 9  -2530844.43729        86.000
  23353601.188    -2246878.991 7  -1789340.60726        58.000
 96  6 10 15 47 15.0010000  0  6G15G 2G 4G27G 7G26
  24071958.570     1906266.320 6   1353580.16825        34.000
  21595635.123     1532811.853 9   1157249.93329       100.000
  24418198.683      142093.119 6  -1450041.23424        32.000
  21634212.506     6763053.611 9   5160295.82828        84.000
  20611098.763    -2855694.122 9  -2529293.73229        84.000
  23354876.266    -2240172.421 7  -1784114.69926        56.000
 96  6 10 15 47 30.0010000  0  6G15G 2G 4G27G 7G26
  24076743.797     1931364.429 6   1373137.10725        32.000
  21597800.014     1544197.461 9   1166121.83329        98.000
  24409226.824       94933.565 6  -1486788.88525        32.000
  21642223.800     6805156.571 8   5193103.31028        80.000
  20611498.686    -2853602.529 9  -2527663.91429        86.000
  23356173.767    -2233351.845 7  -1778799.96626        58.000
 96  6 10 15 47 45.0010000  0  6G15G 2G 4G27G 7G26
  24081542.035     1956595.333 6   1392797.52125        34.000
  21599972.760     1555612.541 9   1175016.70329        94.000
  24400256.074       47771.360 6  -1523538.54925        32.000
  21650255.630     6847368.003 8   5225995.33428        80.000
  20611913.329    -2851410.726 9  -2525956.01329        84.000
  23357486.828    -2226415.927 7  -1773395.33526        56.000
 96  6 10 15 48  0.0010000  0  6G15G 2G 4G27G 7G26
  24086363.028     1981958.895 6   1412561.32725        30.000
  21602156.119     1567059.226 9   1183936.19029        96.000
  24391272.673         608.433 6  -1560288.85125        30.000
  21658308.415     6889687.973 8   5258971.92328        82.000
  20612352.106    -2849120.068 9  -2524171.07829        86.000
  23358838.083    -2219360.854 7  -1767897.88426        58.000
 96  6 10 15 48 15.0010000  0  6G15G 2G 4G27G 7G26
  24091223.323     2007456.297 6   1432429.42525        34.000
  21604340.197     1578540.444 9   1192882.58729       100.000
  24382291.161      -46554.846 6  -1597039.41525        30.000
  21666382.516     6932119.312 8   5292035.29628        80.000
  20612805.871    -2846731.342 9  -2522309.72529        84.000
  23360200.430    -2212186.997 7  -1762307.85526        60.000
 96  6 10 15 48 30.0010000  0  6G15G 2G 4G27G 7G26
  24096102.355     2033085.634 6   1452400.33325        36.000
  21606529.251     1590053.358 9   1201853.68329        98.000
  24373317.413      -93720.907 6  -1633792.18825        28.000
  21674479.730     6974661.203 8   5325184.81028        78.000
  20613276.486    -2844245.067 9  -2520372.38529        86.000
  23361585.981    -2204900.288 7  -1756629.93726        58.000
 96  6 10 15 48 45.0010000  0  6G15G 2G 4G27G 7G26
  24100997.517     2058845.852 6   1472473.24625        34.000
  21608725.351     1601596.989 9   1210848.73229        94.000
  24364334.402     -140893.634 6  -1670550.20925        28.000
  21682596.401     7017311.952 8   5358419.15528        78.000
  20613766.796    -2841658.361 9  -2518356.76229        88.000
  23362994.765    -2197502.674 7  -1750865.57326        58.000
 96  6 10 15 49  0.0010000  0  6G15G 2G 4G27G 7G26
  24105926.464     2084736.286 6   1492647.59925        34.000
  21610928.436     1613170.815 9   1219867.30829        98.000
  24355373.336     -188072.851 6  -1707313.15525        26.000
  21690732.438     7060070.116 8   5391737.18128        76.000
  20614281.360    -2838971.233 9  -2516262.89329        88.000
  23364425.645    -2189995.138 7  -1745015.56526        60.000
 96  6 10 15 49 15.0010000  0  6G15G 2G 4G27G 7G26
  24110876.937     2110757.371 6   1512923.72425        34.000
  21613137.636     1624777.311 9   1228911.32629        98.000
  24346387.207     -235255.940 6  -1744079.16125        26.000
  21698889.371     7102937.719 8   5425140.49428        74.000
  20614814.061    -2836179.189 9  -2514087.26929        88.000
  23365868.246    -2182375.830 7  -1739078.44326        56.000
 96  6 10 15 49 30.0010000  0  6G15G 2G 4G27G 7G26
  24115857.389     2136908.482 6   1533301.22725        36.000
  21615349.625     1636418.755 9   1237982.56029        96.000
  24337411.541     -282441.370 6  -1780846.93825        28.000
  21707062.883     7145916.514 8   5458630.46828        74.000
  20615362.292    -2833284.198 9  -2511831.44529        88.000
  23367345.383    -2174644.065 7  -1733053.68426        56.000
 96  6 10 15 49 45.0010000  0  6G15G 2G 4G27G 7G26
  24120853.281     2163188.041 6   1553778.81625        34.000
  21617574.984     1648097.709 9   1247083.04529        94.000
  24328419.656     -329629.323 6  -1817616.68325        28.000
  21715270.661     7189003.967 8   5492205.08928        74.000
  20615934.955    -2830288.236 9  -2509496.90929        90.000
  23368835.772    -2166795.943 7  -1726938.26426        60.000
 96  6 10 15 50  0.0010000  0  6G15G 2G 4G27G 7G26
  24125873.965     2189596.438 6   1574356.79625        32.000
  21619803.252     1659817.540 9   1256215.37629        98.000
  24319446.717     -376819.975 6  -1854388.59425        32.000
  21723487.373     7232196.017 8   5525861.22828        72.000
  20616522.968    -2827188.348 9  -2507081.40729        90.000
  23370352.452    -2158828.130 7  -1720729.59026        56.000
 96  6 10 15 50 15.0010000  0  6G15G 2G 4G27G 7G26
  24130926.487     2216134.560 6   1595035.84125        34.000
  21622040.153     1671578.636 9   1265379.86829        98.000
  24310467.004     -424013.496 6  -1891162.71925        36.000
  21731721.023     7275490.270 8   5559597.00128        70.000
  20617133.226    -2823978.869 9  -2504580.50829        92.000
  23371892.905    -2150741.523 7  -1714428.38426        56.000
 96  6 10 15 50 30.0010000  0  6G15G 2G 4G27G 7G26
  24136001.854     2242804.682 6   1615817.75425        34.000
  21624290.905     1683380.353 9   1274576.00229        98.000
  24301488.999     -471204.686 6  -1927935.00925        38.000
  21739985.731     7318888.756 8   5593413.99328        72.000
  20617767.736    -2820655.368 9  -2501990.77729        90.000
  23373454.554    -2142532.850 7  -1708032.03626        56.000
 96  6 10 15 50 45.0010000  0  6G15G 2G 4G27G 7G26
  24141101.503     2269607.571 6   1636703.10225        34.000
  21626540.158     1695224.784 9   1283805.43029        98.000
  24292510.515     -518391.685 6  -1964704.08625        38.000
  21748261.082     7362389.557 8   5627310.70128        72.000
  20618420.505    -2817214.624 9  -2499309.66529        90.000
  23375035.420    -2134196.998 7  -1701536.54726        54.000
 96  6 10 15 51  0.0010000  0  6G15G 2G 4G27G 7G26
  24146233.380     2296542.318 6   1657691.20825        36.000
  21628804.610     1707113.776 9   1293069.58529        98.000
  24283534.009     -565574.149 6  -2001469.57125        38.000
  21756556.669     7405989.140 8   5661284.36628        70.000
  20619101.603    -2813657.737 9  -2496538.06329        88.000
  23376649.502    -2125729.679 7  -1694938.63626        58.000
 96  6 10 15 51 15.0010000  0  6G15G 2G 4G27G 7G26
  24151385.044     2323609.509 6   1678782.53925        32.000
  21631074.998     1719047.865 9   1302368.86829        98.000
  24274549.769     -612749.629 6  -2038229.73425        34.000
  21764871.443     7449687.644 8   5695335.14328        72.000
  20619796.732    -2809984.491 9  -2493675.78929        88.000
  23378288.558    -2117128.939 7  -1688236.77326        56.000
 96  6 10 15 51 30.0010000  0  6G15G 2G 4G27G 7G26
  24156558.263     2350808.825 6   1699976.76625        32.000
  21633356.929     1731025.783 9   1311702.30929       100.000
  24265577.460     -659920.017 6  -2074985.86025        36.000
  21773208.761     7493486.536 8   5729464.14728        70.000
  20620515.424    -2806196.697 9  -2490724.26429        86.000
  23379951.596    -2108391.567 7  -1681428.46226        54.000
 96  6 10 15 51 45.0010000  0  6G15G 2G 4G27G 7G26
  24161755.615     2378139.957 6   1721273.74925        32.000
  21635643.506     1743045.891 9   1321068.62029       100.000
  24256603.773     -707084.854 6  -2111737.65625        34.000
  21781560.380     7537385.218 8   5763670.90228        68.000
  20621257.980    -2802295.763 9  -2487684.56629        86.000
  23381640.507    -2099518.895 7  -1674514.72226        56.000
 96  6 10 15 52  0.0010000  0  6G15G 2G 4G27G 7G26
  24166984.085     2405602.422 6   1742673.06325        34.000
  21637936.798     1755105.442 9   1330465.66629        98.000
  24247627.507     -754243.118 6  -2148484.28225        36.000
  21789935.801     7581380.757 8   5797953.12528        72.000
  20622028.297    -2798280.764 9  -2484555.99329        84.000
  23383351.633    -2090513.737 7  -1667497.72126        56.000
 96  6 10 15 52 15.0010000  0  6G15G 2G 4G27G 7G26
  24172243.164     2433195.370 6   1764174.11025        36.000
  21640235.277     1767199.953 9   1339889.96929        94.000
  24238657.806     -801394.196 6  -2185225.31025        36.000
  21798326.483     7625471.723 8   5832309.70728        74.000
  20622809.256    -2794152.562 9  -2481339.21329        86.000
  23385090.099    -2081381.196 7  -1660381.45926        56.000
 96  6 10 15 52 30.0010000  0  6G15G 2G 4G27G 7G26
  24177513.246     2460918.813 6   1785776.76425        34.000
  21642545.058     1779328.510 9   1349340.77629        94.000
  24229680.761     -848538.019 6  -2221960.70225        36.000
  21806735.871     7669657.885 8   5866740.46628        76.000
  20623615.938    -2789915.390 9  -2478037.51929        86.000
  23386854.498    -2072121.090 7  -1653165.78126        56.000
 96  6 10 15 52 45.0010000  0  6G15G 2G 4G27G 7G26
  24182812.767     2488770.164 6   1807479.08325        32.000
  21644861.314     1791491.594 9   1358818.50129        96.000
  24220715.198     -895677.515 6  -2258692.67925        38.000
  21815158.330     7713936.428 8   5901243.23128        76.000
  20624442.016    -2785575.239 9  -2474655.57829        88.000
  23388640.511    -2062734.567 7  -1645851.61326        58.000
 96  6 10 15 53  0.0010000  0  6G15G 2G 4G27G 7G26
  24188130.456     2516750.200 6   1829281.67425        34.000
  21647182.397     1803691.673 9   1368325.04429        94.000
  24211742.829     -942813.188 6  -2295421.69425        38.000
  21823604.083     7758309.635 8   5935819.73128        78.000
  20625289.769    -2781133.125 9  -2471194.19129        88.000
  23390446.071    -2053223.080 7  -1638440.07626        58.000
 96  6 10 15 53 15.0010000  0  6G15G 2G 4G27G 7G26
  24193484.659     2544858.232 6   1851184.04325        38.000
  21649509.177     1815923.822 9   1377856.59429        94.000
  24202774.448     -989943.821 6  -2332146.84125        36.000
  21832061.858     7802778.599 8   5970470.86928        76.000
  20626155.120    -2776591.969 9  -2467655.62529        88.000
  23392283.919    -2043590.970 7  -1630934.56326        58.000
 96  6 10 15 53 30.0010000  0  6G15G 2G 4G27G 7G26
  24198859.218     2573094.021 6   1873185.97425        34.000
  21651843.061     1828184.348 9   1387410.24829        94.000
  24193800.401    -1037070.076 6  -2368868.63424        34.000
  21840542.297     7847345.849 8   6005198.59528        78.000
  20627036.000    -2771953.892 9  -2464041.54129        88.000
  23394137.566    -2033841.986 7  -1623337.96826        56.000
 96  6 10 15 53 45.0010000  0  6G15G 2G 4G27G 7G26
  24204246.759     2601456.886 6   1895286.86025        32.000
  21654182.102     1840473.383 9   1396986.10929        94.000
  24184844.161    -1084192.124 6  -2405587.23824        34.000
  21849043.602     7892009.321 8   6040001.28528        80.000
  20627935.467    -2767218.441 9  -2460351.57429        88.000
  23396010.549    -2023978.488 7  -1615652.11626        56.000
 96  6 10 15 54  0.0010000  0  6G15G 2G 4G27G 7G26
  24209672.822     2629945.797 6   1917486.00125        32.000
  21656523.990     1852791.185 9   1406584.41229        94.000
  24175871.223    -1131311.363 6  -2442303.42224        32.000
  21857562.444     7936766.513 8   6074877.01628        80.000
  20628854.631    -2762383.907 9  -2456584.39329        84.000
  23397913.062    -2014003.369 7  -1607879.29726        58.000
 96  6 10 15 54 15.0010000  0  6G15G 2G 4G27G 7G26
  24215122.330     2658560.928 6   1939783.47925        34.000
  21658875.532     1865139.526 9   1416206.46029        94.000
  24166899.214    -1178429.263 6  -2479018.65325        32.000
  21866099.874     7981618.615 8   6109826.69627        80.000
  20629793.971    -2757449.879 9  -2452739.70829        84.000
  23399829.245    -2003915.395 7  -1600018.53526        58.000
 96  6 10 15 54 30.0010000  0  6G15G 2G 4G27G 7G26
  24220591.563     2687301.348 6   1962178.64825        36.000
  21661230.013     1877518.917 9   1425852.74829        94.000
  24157937.428    -1225549.056 6  -2515735.28025        34.000
  21874648.546     8026565.205 8   6144850.00627        78.000
  20630748.060    -2752417.044 9  -2448818.00629        84.000
  23401776.187    -1993713.603 7  -1592069.10726        58.000
 96  6 10 15 54 45.0010000  0  6G15G 2G 4G27G 7G26
  24226088.288     2716167.909 6   1984672.07225        36.000
  21663594.326     1889931.460 9   1435524.84329        96.000
  24148970.965    -1272668.939 6  -2552452.02025        32.000
  21883222.640     8071607.256 8   6179947.69427        76.000
  20631728.711    -2747284.263 9  -2444818.45029        84.000
  23403737.250    -1983396.997 7  -1584030.25726        60.000
 96  6 10 15 55  0.0010000  0  6G15G 2G 4G27G 7G26
  24231601.621     2745160.570 6   2007263.71825        36.000
  21665963.106     1902376.132 9   1445221.98129        94.000
  24139998.147    -1319788.024 6  -2589168.15025        32.000
  21891810.495     8116748.497 8   6215122.67827        74.000
  20632726.691    -2742048.175 8  -2440738.36729        82.000
  23405720.137    -1972966.192 7  -1575902.35626        56.000
 96  6 10 15 55 15.0010000  0  6G15G 2G 4G27G 7G26
  24237138.638     2774278.947 6   2029953.32425        36.000
  21668334.254     1914848.749 9   1454940.90929        94.000
  24131037.920    -1366905.113 6  -2625882.79125        34.000
  21900420.894     8161988.537 8   6250374.65827        74.000
  20633743.047    -2736707.244 9  -2436576.60329        84.000
  23407728.327    -1962423.348 7  -1567687.16426        56.000
 96  6 10 15 55 30.0010000  0  6G15G 2G 4G27G 7G26
  24242708.092     2803524.461 6   2052742.00325        38.000
  21670714.307     1927352.418 9   1464684.02629        92.000
  24122075.355    -1414019.698 6  -2662595.46725        34.000
  21909048.112     8207328.018 8   6285704.11427        74.000
  20634777.811    -2731260.221 9  -2432332.17429        86.000
  23409755.464    -1951765.963 7  -1559382.68126        56.000
 96  6 10 15 55 45.0010000  0  6G15G 2G 4G27G 7G26
  24248296.913     2832897.050 6   2075629.78625        38.000
  21673101.254     1939891.376 9   1474454.64229        92.000
  24113106.973    -1461134.087 6  -2699307.93025        34.000
  21917694.576     8252764.502 8   6321109.13527        70.000
  20635835.388    -2725708.197 9  -2428005.92329        86.000
  23411804.035    -1940991.364 7  -1550986.89026        56.000
 96  6 10 15 56  0.0010000  0  6G15G 2G 4G27G 7G26
  24253910.767     2862396.984 6   2098616.72625        38.000
  21675491.709     1952469.181 9   1484255.51329        90.000
  24104139.072    -1508245.175 6  -2736017.81525        36.000
  21926357.409     8298297.390 8   6356589.30127        68.000
  20636910.954    -2720050.777 9  -2423597.54229        86.000
  23413876.980    -1930099.550 7  -1542499.79526        58.000
 96  6 10 15 56 15.0010000  0  6G15G 2G 4G27G 7G26
  24259547.225     2892024.139 6   2121702.82725        36.000
  21677895.505     1965086.040 9   1494086.82329        90.000
  24095181.513    -1555349.868 6  -2772722.71625        38.000
  21935041.257     8343926.955 8   6392144.79227        68.000
  20638007.984    -2714291.785 9  -2419110.02129        86.000
  23415975.288    -1919089.707 7  -1533920.74526        60.000
 96  6 10 15 56 30.0010000  0  6G15G 2G 4G27G 7G26
  24265207.966     2921780.959 6   2144889.91925        34.000
  21680303.588     1977744.895 9   1503950.86729        94.000
  24086218.408    -1602443.108 6  -2809418.68225        40.000
  21943743.572     8389653.306 8   6427775.70327        66.000
  20639123.542    -2708428.255 9  -2414541.03529        88.000
  23418094.970    -1907959.664 7  -1525247.99926        56.000
 96  6 10 15 56 45.0010000  0  6G15G 2G 4G27G 7G26
  24270899.466     2951667.777 6   2168178.35525        40.000
  21682720.545     1990446.724 9   1513848.39429        94.000
  24077260.579    -1649523.741 6  -2846104.87425        40.000
  21952463.156     8435476.226 8   6463481.85927        66.000
  20640257.477    -2702460.157 9  -2409890.56329        86.000
  23420233.600    -1896707.900 7  -1516480.39126        58.000
 96  6 10 15 57  0.0010000  0  6G15G 2G 4G27G 7G26
  24276611.262     2981684.734 7   2191568.17225        42.000
  21685141.249     2003192.635 9   1523780.27129        92.000
  24068305.659    -1696589.872 7  -2882779.77125        42.000
  21961202.076     8481398.127 8   6499265.16927        64.000
  20641414.616    -2696388.013 9  -2405159.02229        86.000
  23422398.341    -1885334.707 7  -1507618.16226        58.000
 96  6 10 15 57 15.0010000  0  6G15G 2G 4G27G 7G26
  24282347.131     3011831.239 7   2215058.93825        42.000
  21687577.123     2015979.896 9   1533744.36329        90.000
  24059349.899    -1743643.584 7  -2919445.00425        42.000
  21969959.314     8527417.581 8   6535124.46727        66.000
  20642589.832    -2690213.635 9  -2400347.82329        86.000
  23424585.237    -1873839.007 7  -1498660.47226        56.000
 96  6 10 15 57 30.0010000  0  6G15G 2G 4G27G 7G26
  24288107.163     3042107.332 6   2238650.71125        36.000
  21690020.581     2028810.028 9   1543741.85029        92.000
  24050401.573    -1790683.081 7  -2956099.16125        44.000
  21978735.438     8573531.457 8   6571057.33727        68.000
  20643782.767    -2683938.119 9  -2395457.80829        88.000
  23426793.418    -1862219.176 7  -1489606.09126        54.000
 96  6 10 15 57 45.0010000  0  6G15G 2G 4G27G 7G26
  24293887.702     3072513.363 6   2262343.69625        34.000
  21692471.924     2041688.094 9   1553776.71129        92.000
  24041451.060    -1837706.651 7  -2992740.85525        44.000
  21987524.064     8619740.768 8   6607064.56427        66.000
  20644996.986    -2677561.054 9  -2390488.66829        88.000
  23429029.450    -1850472.641 7  -1480452.96726        58.000
 96  6 10 15 58  0.0010000  0  6G15G 2G 4G27G 7G26
  24299702.386     3103046.589 6   2286135.77525        38.000
  21694933.160     2054611.353 9   1563846.77729        94.000
  24032504.893    -1884711.722 7  -3029368.12425        44.000
  21996338.981     8666044.157 8   6643145.12127        66.000
  20646227.904    -2671081.971 9  -2385440.02929        86.000
  23431292.014    -1838603.594 7  -1471204.39526        54.000
 96  6 10 15 58 15.0010000  0  6G15G 2G 4G27G 7G26
  24305540.395     3133707.075 6   2310027.07825        38.000
  21697397.125     2067577.833 9   1573950.52329        92.000
  24023568.560    -1931696.526 7  -3065979.62425        46.000
  22005166.970     8712443.558 8   6679300.47427        68.000
  20647485.233    -2664496.824 9  -2380308.76129        88.000
  23433572.805    -1826612.909 7  -1461860.99826        52.000
 96  6 10 15 58 30.0010000  0  6G15G 2G 4G27G 7G26
  24311396.420     3164495.643 6   2334018.19325        34.000
  21699873.470     2080584.820 9   1584085.82929        92.000
  24014624.282    -1978663.670 6  -3102577.39025        40.000
  22014014.415     8758938.922 8   6715530.61727        68.000
  20648757.253    -2657801.042 9  -2375091.25829        90.000
  23435873.742    -1814500.391 7  -1452422.65726        52.000
 96  6 10 15 58 45.0010000  0  6G15G 2G 4G27G 7G26
  24317282.276     3195413.193 6   2358109.78125        34.000
  21702354.373     2093632.588 9   1594252.91929        92.000
  24005689.507    -2025615.857 6  -3139163.52925        38.000
  22022882.696     8805532.901 8   6751837.60227        72.000
  20650053.196    -2650993.343 9  -2369786.56829        90.000
  23438205.828    -1802263.649 7  -1442887.51926        52.000
 96  6 10 15 59  0.0010000  0  6G15G 2G 4G27G 7G26
  24323187.378     3226458.833 6   2382301.13625        32.000
  21704845.018     2106719.686 9   1604450.66829        90.000
  23996757.401    -2072552.152 6  -3175737.25825        36.000
  22031766.176     8852226.487 8   6788222.21327        72.000
  20651368.955    -2644077.870 9  -2364397.87929        90.000
  23440554.672    -1789903.961 7  -1433256.61426        52.000
 96  6 10 15 59 15.0010000  0  6G15G 2G 4G27G 7G26
  24329113.615     3257632.274 6   2406592.10425        30.000
  21707343.249     2119846.489 9   1614679.33729        92.000
  23987827.603    -2119470.849 6  -3212297.24125        34.000
  22040674.299     8899018.028 8   6824683.13227        74.000
  20652705.250    -2637054.686 9  -2358925.27429        88.000
  23442935.324    -1777422.447 7  -1423530.81426        52.000
 96  6 10 15 59 30.0010000  0  6G15G 2G 4G27G 7G26
  24335078.945     3288931.764 6   2430981.27225        32.000
  21709850.473     2133015.289 9   1624940.72329        94.000
  23978910.006    -2166371.693 6  -3248843.29925        32.000
  22049594.893     8945904.382 8   6861217.93827        74.000
  20654061.811    -2629923.709 9  -2353368.67529        88.000
  23445331.595    -1764822.047 7  -1413712.35226        54.000
 96  6 10 15 59 45.0010000  0  6G15G 2G 4G27G 7G26
  24341055.128     3320354.505 6   2455466.56125        32.000
  21712363.184     2146229.329 9   1635237.37628        94.000
  23969984.705    -2213257.918 6  -3285377.99725        32.000
  22058536.803     8992884.348 8   6897825.68927        74.000
  20655441.006    -2622686.670 9  -2347729.42329        88.000
  23447750.890    -1752106.865 7  -1403804.38826        50.000
 96  6 10 16  0  0.0010000  0  6G15G 2G 4G27G 7G26
  24347055.204     3351902.349 6   2480049.27425        28.000
  21714889.655     2159490.343 9   1645570.63128        94.000
  23961062.761    -2260127.142 6  -3321899.43925        32.000
  22067491.753     9039960.391 8   6934508.28827        74.000
  20656837.109    -2615341.982 9  -2342006.28529        90.000
  23450189.462    -1739278.245 7  -1393808.08226        50.000
 96  6 10 16  0 15.0010000  0  6G15G 2G 4G27G 7G26
  24353079.504     3383575.750 6   2504729.83725        30.000
  21717417.954     2172793.325 9   1655936.58728        94.000
  23952149.212    -2306981.932 6  -3358409.60725        30.000
  22076471.287     9087131.749 8   6971265.18327        74.000
  20658254.828    -2607889.993 9  -2336199.54629        90.000
  23452658.043    -1726338.068 7  -1383724.80426        52.000
 96  6 10 16  0 30.0010000  0  6G15G 2G 4G27G 7G26
  24359143.706     3415374.796 6   2529508.30525        32.000
  21719960.284     2186138.166 9   1666335.16728        94.000
  23943230.836    -2353824.500 6  -3394910.24725        32.000
  22085463.532     9134396.578 8   7008094.92827        74.000
  20659694.371    -2600333.441 9  -2330311.30929        88.000
  23455137.116    -1713284.400 7  -1373553.11826        50.000
 96  6 10 16  0 45.0010000  0  6G15G 2G 4G27G 7G26
  24365213.544     3447298.152 6   2554383.61425        32.000
  21722507.381     2199527.825 9   1676768.66528        94.000
  23934318.636    -2400653.318 6  -3431400.26825        32.000
  22094476.252     9181753.997 8   7044996.81127        74.000
  20661150.793    -2592678.986 9  -2324346.80629        88.000
  23457642.002    -1700117.309 7  -1363293.06926        48.000
 96  6 10 16  1  0.0010000  0  6G15G 2G 4G27G 7G26
  24371312.971     3479345.920 6   2579355.84825        30.000
  21725065.480     2212966.612 9   1687240.44528        92.000
  23925413.871    -2447465.385 6  -3467877.25225        34.000
  22103507.050     9229204.657 8   7081971.35127        72.000
  20662622.204    -2584928.939 9  -2318307.79829        90.000
  23460166.615    -1686835.594 7  -1352943.75726        50.000
 96  6 10 16  1 15.0010000  0  5G 2G 4G27G 7G26
  21727630.954     2226454.773 9   1697750.69028        92.000
  23916512.793    -2494258.025 6  -3504338.97625        38.000
  22112554.877     9276748.257 8   7119018.30127        72.000
  20664118.798    -2577081.374 9  -2312192.83029        90.000
  23462714.311    -1673441.673 7  -1342506.92226        50.000
 96  6 10 16  1 30.0010000  0  5G 2G 4G27G 7G26
  21730207.191     2239992.904 9   1708299.88128        94.000
  23907615.102    -2541029.268 6  -3540784.04825        40.000
  22121619.551     9324386.510 8   7156139.00327        72.000
  20665630.172    -2569132.988 9  -2305999.28229        90.000
  23465291.926    -1659932.874 7  -1331980.58926        50.000
 96  6 10 16  1 45.0010000  0  5G 2G 4G27G 7G26
  21732797.158     2253576.973 9   1718884.86128        94.000
  23898715.104    -2587781.225 7  -3577214.09025        42.000
  22130701.104     9372120.137 8   7193334.01227        68.000
  20667160.463    -2561085.150 9  -2299728.23429        88.000
  23467881.204    -1646310.494 7  -1321365.74426        48.000
 96  6 10 16  2  0.0010000  0  5G 2G 4G27G 7G26
  21735383.557     2267199.225 9   1729499.59328        92.000
  23889825.898    -2634511.925 7  -3613627.61625        42.000
  22139800.435     9419949.049 8   7230603.27627        66.000
  20668708.261    -2552938.675 9  -2293380.34129        86.000
  23470496.114    -1632573.658 7  -1310661.72026        50.000
 96  6 10 16  2 15.0010000  0  5G 2G 4G27G 7G26
  21737984.916     2280857.995 9   1740142.79828        94.000
  23880937.321    -2681216.352 7  -3650020.64425        46.000
  22148925.758     9467875.230 8   7267948.34027        66.000
  20670277.974    -2544691.466 9  -2286953.93629        86.000
  23473131.319    -1618718.499 7  -1299865.52726        50.000
 96  6 10 16  2 30.0010000  0  5G 2G 4G27G 7G26
  21740587.085     2294552.265 9   1750813.66728        92.000
  23872051.653    -2727895.933 7  -3686394.41125        46.000
  22158064.001     9515896.341 8   7305367.38027        64.000
  20671868.823    -2536344.430 9  -2280449.75629        84.000
  23475797.314    -1604745.075 7  -1288977.16926        52.000
 96  6 10 16  2 45.0010000  0  5G 2G 4G27G 7G26
  21743203.613     2308284.423 9   1761514.04228        90.000
  23863176.147    -2774550.914 7  -3722748.94325        46.000
  22167213.787     9564010.415 7   7342858.84627        62.000
  20673474.332    -2527899.812 9  -2273869.53629        84.000
  23478475.270    -1590649.808 7  -1277993.84526        50.000
 96  6 10 16  3  0.0010000  0  6G 2G 4G27G 7G26G 9
  21745822.900     2322053.430 9   1772243.13128        92.000
  23854302.770    -2821183.104 7  -3759085.64625        46.000
  22176391.334     9612217.959 8   7380423.14527        64.000
  20675105.173    -2519353.475 9  -2267210.05329        84.000
  23481177.869    -1576435.085 7  -1266917.44726        48.000
  24619208.806    -2712009.956 6  -2218898.99525        38.000
 96  6 10 16  3 15.0010000  0  6G 2G 4G27G 7G26G 9
  21748450.881     2335855.421 9   1782997.91428        92.000
  23845430.742    -2867793.541 7  -3795405.40125        44.000
  22185583.540     9660519.268 8   7418060.51227        64.000
  20676747.945    -2510703.931 9  -2260470.14029        84.000
  23483908.049    -1562100.840 7  -1255747.87826        50.000
  24610741.348    -2756512.153 6  -2253576.03025        38.000
 96  6 10 16  3 30.0010000  0  6G 2G 4G27G 7G26G 9
  21751080.031     2349688.007 9   1793776.54028        92.000
  23836566.179    -2914383.569 7  -3831709.26926        44.000
  22194791.576     9708912.422 8   7455769.43827        64.000
  20678412.003    -2501950.086 9  -2253648.96529        86.000
  23486658.555    -1547647.455 7  -1244485.53026        48.000
  24602283.304    -2800994.685 6  -2288237.71425        38.000
 96  6 10 16  3 45.0010000  0  6G 2G 4G27G 7G26G 9
  21753720.842     2363550.401 9   1804578.39628        92.000
  23827703.534    -2960955.845 7  -3867999.29126        48.000
  22204018.648     9757396.833 8   7493549.47327        64.000
  20680100.734    -2493091.897 9  -2246746.48929        88.000
  23489427.468    -1533076.781 7  -1233131.76726        46.000
  24593818.094    -2845455.892 6  -2322882.80525        36.000
 96  6 10 16  4  0.0010000  0  6G 2G 4G27G 7G26G 9
  21756363.873     2377443.950 9   1815404.55328        92.000
  23818844.157    -3007511.770 7  -3904276.61626        46.000
  22213259.061     9805972.150 8   7531400.36827        64.000
  20681806.673    -2484129.730 9  -2239762.97629        86.000
  23492227.379    -1518388.657 7  -1221686.52326        48.000
  24585364.127    -2889892.710 6  -2357508.88125        36.000
 96  6 10 16  4 15.0010000  0  6G 2G 4G27G 7G26G 9
  21759013.378     2391375.190 9   1826260.05228        90.000
  23809988.318    -3054050.353 7  -3940540.40625        46.000
  22222522.258     9854636.213 8   7569320.39327        66.000
  20683529.760    -2475063.714 9  -2232698.56529        88.000
  23495041.861    -1503582.988 7  -1210149.63426        48.000
  24576903.564    -2934300.112 6  -2392112.03325        36.000
 96  6 10 16  4 30.0010000  0  6G 2G 4G27G 7G26G 9
  21761673.437     2405347.521 9   1837147.57928        90.000
  23801133.528    -3100573.341 7  -3976792.11625        44.000
  22231800.565     9903386.782 8   7607307.84927        66.000
  20685272.814    -2465894.488 9  -2225553.72029        88.000
  23497884.403    -1488660.911 7  -1198522.06526        48.000
  24568468.453    -2978677.091 6  -2426691.44825        34.000
 96  6 10 16  4 45.0010000  0  6G 2G 4G27G 7G26G 9
  21764341.110     2419362.158 9   1848068.06728        90.000
  23792283.025    -3147082.280 7  -4013032.84025        42.000
  22241090.533     9952223.967 8   7645362.78127        66.000
  20687036.762    -2456622.607 9  -2218328.86829        88.000
  23500742.984    -1473624.809 7  -1186805.61126        50.000
  24560027.047    -3023024.997 6  -2461248.22925        34.000
 96  6 10 16  5  0.0010000  0  6G 2G 4G27G 7G26G 9
  21767014.989     2433418.062 9   1859020.71728        88.000
  23783436.539    -3193577.188 7  -4049262.58225        42.000
  22250399.539    10001149.565 8   7683486.59727        68.000
  20688822.386    -2447248.335 9  -2211024.25329        88.000
  23503625.968    -1458478.257 7  -1175003.10726        48.000
  24551589.358    -3067346.737 6  -2495784.65725        34.000
 96  6 10 16  5 15.0010000  0  6G 2G 4G27G 7G26G 9
  21769698.521     2447512.159 9   1870003.11328        90.000
  23774590.294    -3240056.687 7  -4085480.31325        44.000
  22259728.810    10050164.330 8   7721679.90127        70.000
  20690627.347    -2437774.641 9  -2203642.14529        88.000
  23506528.079    -1443226.931 7  -1163118.94726        48.000
  24543166.479    -3111645.830 6  -2530303.44325        32.000
 96  6 10 16  5 30.0010000  0  6G 2G 4G27G 7G26G 9
  21772384.962     2461643.761 9   1881014.75828        88.000
  23765749.534    -3286519.379 7  -4121684.93825        44.000
  22269071.363    10099266.329 8   7759941.18027        70.000
  20692447.387    -2428204.341 9  -2196184.75029        88.000
  23509447.308    -1427869.518 7  -1151152.21226        48.000
  24534740.123    -3155922.852 6  -2564805.03025        28.000
 96  6 10 16  5 45.0010000  0  6G 2G 4G27G 7G26G 9
  21775085.492     2475814.716 9   1892057.06429        90.000
  23756905.267    -3332964.294 7  -4157875.73426        44.000
  22278433.941    10148454.950 8   7798269.95527        70.000
  20694286.434    -2418536.193 9  -2188651.12829        88.000
  23512388.812    -1412407.911 7  -1139104.22026        50.000
  24526314.006    -3200179.085 6  -2599290.36025        26.000
 96  6 10 16  6  0.0010000  0  6G 2G 4G27G 7G26G 9
  21777788.601     2490026.706 9   1903131.33029        90.000
  23748079.047    -3379387.687 7  -4194049.76025        44.000
  22287812.588    10197732.862 8   7836668.31827        72.000
  20696145.716    -2408773.211 9  -2181043.60929        88.000
  23515358.106    -1396839.553 7  -1126973.04126        50.000
  24517897.303    -3244416.174 6  -2633760.81025        22.000
 96  6 10 16  6 15.0010000  0  6G 2G 4G27G 7G26G 9
  21780498.784     2504278.771 9   1914236.83529        88.000
  23739246.741    -3425788.475 7  -4230206.14525        44.000
  22297204.007    10247097.117 8   7875133.96027        70.000
  20698019.689    -2398917.866 9  -2173364.12629        88.000
  23518333.906    -1381163.110 7  -1114757.62926        50.000
  24509477.602    -3288634.630 6  -2668216.68525        22.000
 96  6 10 16  6 30.0010000  0  6G 2G 4G27G 7G26G 9
  21783216.523     2518566.825 9   1925370.37829        88.000
  23730420.282    -3472166.106 7  -4266344.55725        42.000
  22306613.713    10296547.659 8   7913666.82827        70.000
  20699912.519    -2388970.395 9  -2165612.85629        88.000
  23521341.214    -1365380.066 7  -1102459.14126        48.000
  24501072.351    -3332837.104 6  -2702660.17525        22.000
 96  6 10 16  6 45.0010000  0  6G 2G 4G27G 7G26G 9
  21785943.915     2532887.585 9   1936529.40428        88.000
  23721605.454    -3518521.183 7  -4302465.49325        46.000
  22316039.038    10346087.363 8   7952269.17727        68.000
  20701821.117    -2378928.862 9  -2157788.27829        88.000
  23524365.251    -1349488.406 7  -1090076.03926        50.000
  24492678.432    -3377022.761 6  -2737090.47425        22.000
 96  6 10 16  7  0.0010000  0  6G 2G 4G27G 7G26G 9
  21788679.401     2547241.714 9   1947714.41728        90.000
  23712788.618    -3564852.616 7  -4338567.85825        46.000
  22325488.406    10395718.910 8   7990943.08727        68.000
  20703754.419    -2368793.022 9  -2149890.23829        90.000
  23527413.600    -1333485.167 7  -1077606.06226        52.000
  24484256.632    -3421190.602 6  -2771506.95326        24.000
 96  6 10 16  7 15.0010000  0  6G 2G 4G27G 7G26G 9
  21791412.339     2561628.358 9   1958924.79129        86.000
  23703973.700    -3611159.722 7  -4374651.24525        48.000
  22334945.719    10445441.273 8   8029687.76327        68.000
  20705703.040    -2358563.078 9  -2141918.84929        88.000
  23530479.938    -1317367.756 7  -1065047.04726        52.000
  24475861.813    -3465337.329 6  -2805906.94226        24.000
 96  6 10 16  7 30.0010000  0  6G 2G 4G27G 7G26G 9
  21794156.969     2576047.210 9   1970160.27929        86.000
  23695164.119    -3657441.944 7  -4410715.24225        44.000
  22344424.617    10495249.568 8   8068499.40327        68.000
  20707666.411    -2348240.586 9  -2133875.35129        86.000
  23533567.950    -1301135.221 7  -1052398.32626        50.000
  24467456.143    -3509461.917 6  -2840289.72625        26.000
 96  6 10 16  7 45.0010000  0  6G 2G 4G27G 7G26G 9
  21796909.454     2590500.257 9   1981422.38529        88.000
  23686363.622    -3703700.482 7  -4446760.81725        46.000
  22353917.755    10545142.617 8   8107377.08927        64.000
  20709647.110    -2337823.440 9  -2125758.08929        86.000
  23536674.819    -1284788.765 7  -1039660.83826        50.000
  24459064.322    -3553565.360 6  -2874656.03925        26.000
 96  6 10 16  8  0.0010000  0  6G 2G 4G27G 7G26G 9
  21799663.377     2604988.810 9   1992712.17229        88.000
  23677564.743    -3749934.258 7  -4482787.11225        44.000
  22363432.898    10595120.793 8   8146321.13727        64.000
  20711646.965    -2327313.600 9  -2117568.60429        90.000
  23539810.618    -1268328.204 7  -1026834.41626        54.000
  24450677.688    -3597646.528 6  -2909004.97825        26.000
 96  6 10 16  8 15.0010000  0  6G 2G 4G27G 7G26G 9
  21802427.164     2619513.857 9   2004030.38829        86.000
  23668772.430    -3796144.231 7  -4518794.79825        44.000
  22372958.593    10645182.488 7   8185330.24226        60.000
  20713664.059    -2316710.996 9  -2109306.84329        90.000
  23542965.874    -1251753.108 7  -1013918.78126        54.000
  24442303.675    -3641701.660 6  -2943333.65925        28.000
 96  6 10 16  8 30.0010000  0  6G 2G 4G27G 7G26G 9
  21805199.495     2634076.181 9   2015377.63429        88.000
  23659983.174    -3842333.717 7  -4554786.58425        42.000
  22382498.619    10695324.546 7   8224401.94126        58.000
  20715700.609    -2306015.401 9  -2100972.60729        90.000
  23546139.807    -1235066.126 7  -1000915.97426        54.000
  24433913.624    -3685729.262 6  -2977640.87225        30.000
 96  6 10 16  8 45.0010000  0  6G 2G 4G27G 7G26G 9
  21807977.911     2648678.950 9   2026756.41429        88.000
  23651196.018    -3888503.275 7  -4590762.94825        42.000
  22392058.431    10745547.047 7   8263536.34826        58.000
  20717753.048    -2295227.141 9  -2092566.15829        90.000
  23549337.663    -1218268.003 7   -987826.56026        56.000
  24425540.450    -3729730.496 6  -3011927.52125        32.000
 96  6 10 16  9  0.0010000  0  6G 2G 4G27G 7G26G 9
  21810767.000     2663329.451 9   2038172.37429        86.000
  23642415.666    -3934649.874 7  -4626721.33325        44.000
  22401630.084    10795851.281 7   8302734.43126        56.000
  20719821.676    -2284346.622 9  -2084087.86229        92.000
  23552551.918    -1201356.447 7   -974648.74326        52.000
  24417180.438    -3773703.159 6  -3046191.94725        36.000
 96  6 10 16  9 15.0010000  0  6G 2G 4G27G 7G26G 9
  21813558.937     2678029.731 8   2049627.15529        82.000
  23633637.173    -3980768.002 7  -4662657.45725        46.000
  22411217.957    10846236.682 7   8341995.75326        54.000
  20721911.919    -2273376.334 9  -2075539.57129        92.000
  23555794.323    -1184332.350 7   -961383.20126        50.000
  24408811.791    -3817646.621 6  -3080433.59125        40.000
 96  6 10 16  9 30.0010000  0  6G 2G 4G27G 7G26G 9
  21816371.230     2692780.557 9   2061121.29729        84.000
  23624864.856    -4026856.368 7  -4698570.41625        46.000
  22420817.371    10896701.965 7   8381319.31726        54.000
  20724014.124    -2262316.263 9  -2066921.33829        92.000
  23559054.626    -1167198.163 7   -948031.89426        52.000
  24400461.462    -3861560.135 7  -3114651.95025        42.000
 96  6 10 16  9 45.0010000  0  6G 2G 4G27G 7G26G 9
  21819184.303     2707583.313 9   2072655.89429        86.000
  23616100.154    -4072912.634 7  -4734458.35725        48.000
  22430437.321    10947247.714 7   8420705.63126        52.000
  20726137.074    -2251164.885 9  -2058231.95129        94.000
  23562335.555    -1149952.694 7   -934593.84526        50.000
  24392112.212    -3905443.910 7  -3148847.06325        44.000
 96  6 10 16 10  0.0010000  0  6G 2G 4G27G 7G26G 9
  21822016.502     2722438.089 9   2084231.04729        88.000
  23607344.176    -4118938.032 7  -4770322.27825        46.000
  22440068.784    10997873.099 7   8460153.96426        52.000
  20728275.823    -2239924.234 9  -2049473.01229        92.000
  23565636.329    -1132597.749 7   -921070.56826        48.000
  24383768.868    -3949297.529 7  -3183018.72125        46.000
 96  6 10 16 10 15.0010000  0  6G 2G 4G27G 7G26G 9
  21824850.710     2737342.521 9   2095844.87929        86.000
  23598589.666    -4164932.062 7  -4806161.75325        46.000
  22449723.030    11048577.443 7   8499663.81426        56.000
  20730432.680    -2228595.543 9  -2040645.44829        90.000
  23568965.645    -1115130.541 7   -907459.80026        50.000
  24375426.274    -3993117.518 7  -3217164.11325        46.000
 96  6 10 16 10 30.0010000  0  6G 2G 4G27G 7G26G 9
  21827696.850     2752295.934 9   2107496.87129        86.000
  23589841.722    -4210894.674 7  -4841976.82125        46.000
  22459380.095    11099361.789 7   8539236.01826        56.000
  20732604.856    -2217177.992 9  -2031748.65629        92.000
  23572306.382    -1097551.680 7   -893761.99226        48.000
  24367095.551    -4036905.110 7  -3251284.33525        44.000
 96  6 10 16 10 45.0010000  0  6G 2G 4G27G 7G26G 9
  21830551.594     2767297.960 9   2119186.77229        84.000
  23581107.569    -4256820.948 7  -4877763.49125        46.000
  22469064.710    11150229.636 7   8578873.28726        58.000
  20734792.952    -2205669.828 9  -2022781.25829        94.000
  23575673.951    -1079860.328 7   -879976.50326        48.000
  24358767.766    -4080661.442 7  -3285380.17125        44.000
 96  6 10 16 11  0.0010000  0  6G 2G 4G27G 7G26G 9
  21833414.312     2782344.196 9   2130911.11529        86.000
  23572375.724    -4302708.753 7  -4913520.17525        46.000
  22478759.039    11201181.200 7   8618575.79426        58.000
  20737002.902    -2194071.032 9  -2013743.24529        94.000
  23579057.708    -1062059.974 7   -866106.09026        48.000
  24350444.418    -4124388.435 7  -3319453.14925        42.000
 96  6 10 16 11 15.0010000  0  6G 2G 4G27G 7G26G 9
  21836283.955     2797430.358 9   2142666.56029        84.000
  23563653.352    -4348556.490 7  -4949245.66925        46.000
  22488467.728    11252215.637 7   8658342.87626        60.000
  20739225.023    -2182380.481 9  -2004633.73029        90.000
  23582471.625    -1044152.001 7   -852151.83126        50.000
  24342133.302    -4168085.002 7  -3353502.41625        42.000
 96  6 10 16 11 30.0010000  0  6G 2G 4G27G 7G26G 9
  21839162.922     2812554.667 9   2154451.73029        88.000
  23554937.816    -4394364.289 7  -4984939.99726        42.000
  22498200.040    11303334.516 7   8698175.76226        60.000
  20741469.390    -2170591.490 9  -1995447.50129        92.000
  23585898.972    -1026135.417 7   -838112.97026        50.000
  24333825.093    -4211747.365 7  -3387525.01225        42.000
 96  6 10 16 11 45.0010000  0  6G 2G 4G27G 7G26G 9
  21842048.934     2827715.780 9   2166265.56429        86.000
  23546218.922    -4440135.800 7  -5020606.06326        44.000
  22507940.237    11354535.504 7   8738072.60826        58.000
  20743730.364    -2158701.405 9  -1986182.50429        92.000
  23589349.043    -1008010.688 7   -823989.83126        48.000
  24325521.292    -4255377.375 6  -3421522.40825        40.000
 96  6 10 16 12  0.0010000  0  6G 2G 4G27G 7G26G 9
  21844939.143     2842912.905 9   2178107.48129        86.000
  23537520.983    -4485872.285 7  -5056244.84526        48.000
  22517702.679    11405817.051 7   8778032.24326        60.000
  20746014.153    -2146709.941 9  -1976838.49829        90.000
  23592815.484     -989778.694 7   -809783.08726        48.000
  24317221.898    -4298976.917 6  -3455496.04625        40.000
 96  6 10 16 12 15.0010000  0  6G 2G 4G27G 7G26G 9
  21847839.336     2858146.748 9   2189977.99529        88.000
  23528822.625    -4531572.051 7  -5091855.09225        46.000
  22527477.322    11457182.020 7   8818056.88126        60.000
  20748315.150    -2134617.405 9  -1967415.75929        86.000
  23596307.826     -971440.079 7   -795493.27526        48.000
  24308935.094    -4342543.944 6  -3489444.35925        38.000
 96  6 10 16 12 30.0010000  0  6G 2G 4G27G 7G26G 9
  21850745.883     2873415.687 9   2201875.86329        88.000
  23520133.980    -4577234.911 7  -5127436.53125        50.000
  22537264.526    11508630.991 7   8858146.97526        62.000
  20750634.675    -2122423.572 9  -1957914.06829        88.000
  23599814.828     -952995.197 7   -781120.62526        50.000
  24300645.773    -4386081.406 6  -3523369.66125        36.000
 96  6 10 16 12 45.0010000  0  6G 2G 4G27G 7G26G 9
  21853656.538     2888721.056 9   2213802.12329        86.000
  23511450.282    -4622861.149 7  -5162989.44925        48.000
  22547067.410    11560162.430 7   8898301.31326        62.000
  20752974.974    -2110130.571 9  -1948335.11329        88.000
  23603346.443     -934449.656 7   -766669.57426        50.000
  24292364.456    -4429593.365 6  -3557275.07625        34.000
 96  6 10 16 13  0.0010000  0  6G 2G 4G27G 7G26G 9
  21856576.967     2904062.930 9   2225756.82729        88.000
  23502775.877    -4668452.638 7  -5198515.21926        46.000
  22556892.478    11611774.103 7   8938518.20626        62.000
  20755335.300    -2097739.236 9  -1938679.52129        90.000
  23606894.367     -915806.328 7   -752142.33026        48.000
  24284090.964    -4473079.572 6  -3591160.39125        34.000
 96  6 10 16 13 15.0010000  0  6G 2G 4G27G 7G26G 9
  21859502.341     2919442.347 9   2237740.77829        88.000
  23494103.601    -4714012.470 7  -5234016.35126        44.000
  22566728.099    11663465.660 7   8978797.32426        60.000
  20757710.406    -2085251.584 9  -1928948.89229        90.000
  23610457.161     -897062.987 7   -737537.17626        48.000
  24275815.223    -4516539.365 6  -3625025.13125        32.000
 96  6 10 16 13 30.0010000  0  6G 2G 4G27G 7G26G 9
  21862434.462     2934863.275 9   2249757.06729        86.000
  23485440.228    -4759541.121 7  -5269493.18626        46.000
  22576583.806    11715239.368 7   9019140.46726        60.000
  20760103.200    -2072667.704 9  -1919143.27129        90.000
  23614045.616     -878215.806 7   -722851.06926        48.000
  24267558.009    -4559970.393 6  -3658867.42225        34.000
 96  6 10 16 13 45.0010000  0  6G 2G 4G27G 7G26G 9
  21865381.032     2950326.229 9   2261806.11129        88.000
  23476783.691    -4805042.216 7  -5304948.56926        44.000
  22586451.625    11767092.583 7   9059545.56026        60.000
  20762513.591    -2059992.362 9  -1909266.38729        90.000
  23617655.897     -859266.285 7   -708085.20626        48.000
  24259296.508    -4603376.864 6  -3692690.65525        34.000
 96  6 10 16 14  0.0010000  0  6G 2G 4G27G 7G26G 9
  21868332.788     2965831.738 9   2273888.32329        88.000
  23468128.353    -4850514.420 7  -5340381.54225        46.000
  22596330.266    11819024.135 7   9100011.67526        58.000
  20764944.908    -2047231.816 9  -1899323.10329        94.000
  23621276.581     -840216.662 7   -693241.33826        48.000
  24251042.982    -4646759.248 6  -3726495.07725        38.000
 96  6 10 16 14 15.0010000  0  6G 2G 4G27G 7G26G 9
  21871289.731     2981380.097 9   2286003.93029        88.000
  23459480.779    -4895956.557 7  -5375790.96425        46.000
  22606227.404    11871036.993 7   9140541.15726        56.000
  20767389.445    -2034388.935 9  -1889315.66929        92.000
  23624921.067     -821068.183 7   -678320.45526        48.000
  24242793.983    -4690116.200 6  -3760279.73625        40.000
 96  6 10 16 14 30.0010000  0  6G 2G 4G27G 7G26G 9
  21874254.049     2996972.980 9   2298154.22329        86.000
  23450843.189    -4941366.026 7  -5411174.92426        46.000
  22616144.269    11923135.241 7   9181137.17726        56.000
  20769846.065    -2021463.197 9  -1879243.65829        88.000
  23628581.893     -801816.018 7   -663318.79626        46.000
  24234552.089    -4733443.135 7  -3794041.00125        44.000
 96  6 10 16 14 45.0010000  0  6G 2G 4G27G 7G26G 9
  21877230.898     3012609.568 9   2310338.56229        86.000
  23442209.076    -4986744.747 7  -5446534.90926        50.000
  22626074.834    11975316.805 7   9221798.11126        56.000
  20772323.010    -2008454.096 9  -1869106.70229        88.000
  23632265.833     -782461.938 7   -648237.71926        46.000
  24226315.051    -4776740.596 7  -3827779.26025        44.000
 96  6 10 16 15  0.0010000  0  6G 2G 4G27G 7G26G 9
  21880215.692     3028288.577 9   2322555.96229        88.000
  23433578.381    -5032093.862 7  -5481871.85926        50.000
  22636019.400    12027582.873 7   9262524.89126        52.000
  20774816.264    -1995359.049 9  -1858902.78329        88.000
  23635970.848     -763004.584 7   -633076.19226        46.000
  24218077.114    -4820004.450 7  -3861491.28425        44.000
 96  6 10 16 15 15.0010000  0  6G 2G 4G27G 7G26G 9
  21883208.760     3044008.517 9   2334805.25329        90.000
  23424954.851    -5077410.925 7  -5517183.88825        48.000
  22645977.816    12079934.476 7   9303318.33926        50.000
  20777323.968    -1982177.188 9  -1848631.20029        86.000
  23639692.861     -743437.886 7   -617829.40126        46.000
  24209846.552    -4863231.063 7  -3895174.32825        42.000
 96  6 10 16 15 30.0010000  0  6G 2G 4G27G 7G26G 9
  21886204.346     3059769.243 9   2347086.33029        86.000
  23416337.017    -5122693.816 7  -5552469.27525        46.000
  22655954.249    12132368.780 7   9344176.23526        52.000
  20779849.000    -1968908.143 9  -1838291.68829        86.000
  23643440.087     -723759.787 7   -602495.80626        46.000
  24201624.744    -4906419.668 7  -3928827.77125        42.000
 96  6 10 16 15 45.0010000  0  6G 2G 4G27G 7G26G 9
  21889211.894     3075571.609 9   2359399.88229        84.000
  23407724.669    -5167938.866 7  -5587725.16025        48.000
  22665954.546    12184882.624 7   9385096.08926        52.000
  20782392.619    -1955551.138 9  -1827883.63929        88.000
  23647205.390     -703972.320 7   -587077.02226        46.000
  24193418.045    -4949569.658 7  -3962451.11025        44.000
 96  6 10 16 16  0.0010000  0  6G 2G 4G27G 7G26G 9
  21892227.536     3091412.566 9   2371743.45829        86.000
  23399122.365    -5213145.104 7  -5622950.74526        52.000
  22675960.629    12237473.168 7   9426075.67626        52.000
  20784948.769    -1942106.577 9  -1817407.36929        88.000
  23650986.853     -684078.865 7   -571575.65226        44.000
  24185214.494    -4992681.730 7  -3996044.97825        46.000
 96  6 10 16 16 15.0010000  0  6G 2G 4G27G 7G26G 9
  21895247.106     3107289.116 9   2384114.78729        88.000
  23390527.015    -5258311.437 7  -5658145.26326        50.000
  22685981.582    12290141.019 7   9467115.54526        52.000
  20787523.507    -1928572.365 9  -1806861.21929        86.000
  23654798.144     -664079.109 7   -555991.45726        46.000
  24177019.578    -5035756.580 7  -4029609.78225        48.000
 96  6 10 16 16 30.0010000  0  6G 2G 4G27G 7G26G 9
  21898277.348     3123201.271 9   2396513.85429        88.000
  23381944.886    -5303437.587 7  -5693308.48726        50.000
  22696018.184    12342886.318 7   9508215.76726        56.000
  20790117.131    -1914945.925 9  -1796243.22829        86.000
  23658622.117     -643971.319 7   -540323.08925        42.000
  24168827.809    -5078795.078 7  -4063146.26925        50.000
 96  6 10 16 16 45.0010000  0  6G 2G 4G27G 7G26G 9
  21901309.719     3139150.153 9   2408941.55528        86.000
  23373355.383    -5348522.986 7  -5728439.96926        48.000
  22706070.435    12395707.107 7   9549374.81526        56.000
  20792729.883    -1901225.163 9  -1785551.73829        90.000
  23662466.056     -623756.512 7   -524571.30026        44.000
  24160646.443    -5121797.706 7  -4096654.77425        48.000
 96  6 10 16 17  0.0010000  0  6G 2G 4G27G 7G26G 9
  21904350.424     3155136.322 9   2421398.30228        86.000
  23364790.222    -5393567.988 7  -5763539.98726        46.000
  22716136.866    12448600.134 7   9590590.15226        56.000
  20795358.763    -1887410.132 9  -1774786.77829        90.000
  23666334.338     -603438.205 7   -508738.85026        48.000
  24152469.963    -5164765.998 7  -4130136.59425        48.000
 96  6 10 16 17 15.0010000  0  6G 2G 4G27G 7G26G 9
  21907402.551     3171163.407 9   2433886.94028        88.000
  23356230.758    -5438572.021 7  -5798608.05326        50.000
  22726214.509    12501563.431 7   9631860.23726        58.000
  20798005.181    -1873502.247 9  -1763949.45829        90.000
  23670223.245     -583014.428 7   -492824.21226        48.000
  24144299.659    -5207701.072 7  -4163592.49025        46.000
 96  6 10 16 17 30.0010000  0  6G 2G 4G27G 7G26G 9
  21910462.323     3187235.530 9   2446410.66728        86.000
  23347666.737    -5483531.971 7  -5833641.73626        48.000
  22736305.943    12554595.599 7   9673184.01126        60.000
  20800668.087    -1859502.538 9  -1753040.60629        90.000
  23674128.792     -562485.568 7   -476827.71225        48.000
  24136134.782    -5250603.612 7  -4197023.05325        46.000
 96  6 10 16 17 45.0010000  0  6G 2G 4G27G 7G26G 9
  21913530.578     3203354.593 9   2458970.96728        86.000
  23339121.422    -5528450.414 7  -5868643.09926        44.000
  22746410.957    12607698.283 7   9714562.69926        60.000
  20803347.242    -1845410.476 9  -1742059.77129        92.000
  23678053.615     -541854.774 7   -460751.81525        50.000
  24127977.699    -5293475.241 7  -4230429.47625        46.000
 96  6 10 16 18  0.0010000  0  6G 2G 4G27G 7G26G 9
  21916605.820     3219518.748 9   2471566.40128        88.000
  23330579.466    -5573330.180 7  -5903614.31026        46.000
  22756531.651    12660875.154 8   9755999.18726        64.000
  20806049.002    -1831227.844 9  -1731008.36129        90.000
  23681996.905     -521126.576 7   -444600.02325        50.000
  24119824.303    -5336316.336 7  -4263812.11225        46.000
 96  6 10 16 18 15.0010000  0  6G 2G 4G27G 7G26G 9
  21919688.555     3235725.263 9   2484194.84328        86.000
  23322046.143    -5618175.238 7  -5938558.52526        46.000
  22766664.846    12714124.969 7   9797492.52126        62.000
  20808765.511    -1816957.196 9  -1719888.38929        92.000
  23685965.707     -500300.512 7   -428371.91425        50.000
  24111678.882    -5379126.288 7  -4297170.48525        44.000
 96  6 10 16 18 30.0010000  0  6G 2G 4G27G 7G26G 9
  21922779.655     3251977.276 9   2496858.74128        84.000
  23313520.226    -5662983.784 7  -5973474.29826        46.000
  22776810.033    12767448.481 7   9839043.30926        58.000
  20811498.090    -1802600.071 9  -1708701.02429        94.000
  23689942.304     -479376.369 7   -412067.38225        48.000
  24103537.508    -5421904.471 7  -4330504.13125        42.000
 96  6 10 16 18 45.0010000  0  6G 2G 4G27G 7G26G 9
  21925883.797     3268278.477 9   2509560.95728        86.000
  23304999.794    -5707755.559 7  -6008361.33826        48.000
  22786971.018    12820845.854 7   9880651.64526        60.000
  20814244.159    -1788157.909 9  -1697447.39729        92.000
  23693944.384     -458354.217 7   -395686.48025        50.000
  24095401.531    -5464647.014 6  -4363809.98325        40.000
 96  6 10 16 19  0.0010000  0  6G 2G 4G27G 7G26G 9
  21928994.983     3284628.149 9   2522300.96028        86.000
  23296485.898    -5752490.260 7  -6043219.51926        50.000
  22797150.381    12874313.682 7   9922314.89226        62.000
  20817007.466    -1773632.485 9  -1686128.89029        92.000
  23697963.791     -437235.246 7   -379230.17725        48.000
  24087269.360    -5507352.265 6  -4397086.85025        40.000
 96  6 10 16 19 15.0010000  0  6G 2G 4G27G 7G26G 9
  21932114.443     3301024.108 9   2535077.04328        86.000
  23287984.444    -5797188.492 7  -6078049.26726        52.000
  22807335.290    12927850.817 7   9964032.13126        56.000
  20819787.021    -1759026.773 9  -1674747.81229        92.000
  23702002.355     -416019.459 7   -362698.40325        50.000
  24079160.064    -5550020.300 6  -4430334.65725        40.000
 96  6 10 16 19 30.0010000  0  6G 2G 4G27G 7G26G 9
  21935244.576     3317465.447 9   2547888.46928        84.000
  23279484.878    -5841846.005 7  -6112847.29926        50.000
  22817538.097    12981459.151 7  10005804.82526        56.000
  20822584.834    -1744341.298 9  -1663304.59129        90.000
  23706054.950     -394708.262 7   -346092.35425        52.000
  24071046.931    -5592648.425 6  -4463551.37125        40.000
 96  6 10 16 19 45.0010000  0  6G 2G 4G27G 7G26G 9
  21938379.596     3333949.565 8   2560733.22528        82.000
  23270994.036    -5886460.494 7  -6147611.82726        50.000
  22827748.848    13035139.098 7  10047633.32326        52.000
  20825391.971    -1729575.714 9  -1651798.93329        92.000
  23710124.452     -373304.292 7   -329413.91225        50.000
  24062942.821    -5635236.490 6  -4496736.80525        40.000
 96  6 10 16 20  0.0010000  0  6G 2G 4G27G 7G26G 9
  21941525.828     3350473.899 9   2573609.32028        86.000
  23262512.967    -5931029.791 7  -6182341.16726        48.000
  22837978.546    13088891.144 7  10089518.02926        52.000
  20828217.425    -1714731.633 9  -1640232.12629        88.000
  23714217.369     -351809.811 7   -312664.96125        52.000
  24054842.189    -5677783.287 6  -4529890.12125        40.000
 96  6 10 16 20 15.0010000  0  6G 2G 4G27G 7G26G 9
  21944676.676     3367036.307 9   2586515.07928        84.000
  23254040.773    -5975551.212 7  -6217033.16426        50.000
  22848226.592    13142713.657 7  10131457.65526        50.000
  20831055.231    -1699807.419 9  -1628602.87229        90.000
  23718331.511     -330222.754 7   -295843.87725        52.000
  24046753.849    -5720288.180 6  -4563010.83225        40.000
 96  6 10 16 20 30.0010000  0  6G 2G 4G27G 7G26G 9
  21947837.268     3383638.673 9   2599451.98128        86.000
  23245581.649    -6020023.215 7  -6251686.64826        56.000
  22858477.036    13196604.629 7  10173450.56526        50.000
  20833912.433    -1684803.891 9  -1616911.81829        88.000
  23722452.308     -308542.216 7   -278949.97525        50.000
  24038675.761    -5762753.458 6  -4596100.61525        40.000
 96  6 10 16 20 45.0010000  0  6G 2G 4G27G 7G26G 9
  21951003.496     3400280.743 9   2612419.82528        84.000
  23237128.311    -6064446.670 7  -6286302.30826        54.000
  22868744.028    13250563.952 7  10215496.78826        48.000
  20836779.438    -1669721.736 9  -1605159.49629        88.000
  23726593.071     -286770.507 7   -261985.03425        48.000
  24030600.791    -5805180.648 6  -4629160.74925        40.000
 96  6 10 16 21  0.0010000  0  6G 2G 4G27G 7G26G 9
  21954176.830     3416959.880 9   2625416.54928        86.000
  23228680.639    -6108823.814 7  -6320881.86326        50.000
  22879027.809    13304588.727 7  10257593.99926        46.000
  20839668.807    -1654558.469 9  -1593343.97029        90.000
  23730754.880     -264910.224 7   -244951.07525        50.000
  24022532.267    -5847569.572 7  -4662191.09125        42.000
 96  6 10 16 21 15.0010000  0  6G 2G 4G27G 7G26G 9
  21957358.707     3433672.997 9   2638439.76328        84.000
  23220245.199    -6153154.203 7  -6355424.98626        50.000
  22889320.253    13358679.000 7  10299742.23726        48.000
  20842567.920    -1639312.843 9  -1581464.26129        88.000
  23734927.991     -242962.975 7   -227849.37325        48.000
  24014478.642    -5889921.698 7  -4695192.70325        42.000
 96  6 10 16 21 30.0010000  0  6G 2G 4G27G 7G26G 9
  21960545.141     3450419.670 9   2651489.10728        84.000
  23211817.523    -6197438.092 7  -6389931.86426        54.000
  22899624.750    13412837.943 7  10341943.99426        48.000
  20845486.070    -1623982.900 9  -1569518.84729        90.000
  23739126.765     -220927.252 7   -210678.67725        48.000
  24006423.279    -5932238.102 7  -4728166.48525        44.000
 96  6 10 16 21 45.0010000  0  6G 2G 4G27G 7G26G 9
  21963737.151     3467201.648 9   2664565.96228        84.000
  23203399.681    -6241677.739 7  -6424404.34826        56.000
  22909947.713    13467065.812 7  10384199.46026        50.000
  20848420.769    -1608568.096 9  -1557507.32629        90.000
  23743334.292     -198801.092 7   -193437.51325        48.000
  23998372.892    -5974519.717 7  -4761113.18325        46.000
 96  6 10 16 22  0.0010000  0  6G 2G 4G27G 7G26G 9
  21966940.973     3484017.970 9   2677669.58027        84.000
  23194989.243    -6285877.708 7  -6458845.89226        54.000
  22920283.328    13521359.639 7  10426506.28926        50.000
  20851368.298    -1593070.576 9  -1545431.34629        90.000
  23747564.813     -176581.825 7   -176123.80625        50.000
  23990340.313    -6016769.535 7  -4794035.10425        48.000
 96  6 10 16 22 15.0010000  0  6G 2G 4G27G 7G26G 9
  21970146.894     3500871.864 9   2690802.46927        84.000
  23186584.831    -6330038.390 7  -6493256.77526        56.000
  22930621.581    13575723.138 7  10468867.45026        50.000
  20854332.646    -1577487.665 9  -1533288.81329        92.000
  23751812.033     -154265.390 7   -158734.43625        48.000
  23982304.736    -6058984.696 7  -4826930.01925        48.000
 96  6 10 16 22 30.0010000  0  6G 2G 4G27G 7G26G 9
  21973361.448     3517767.110 9   2703967.58828        84.000
  23178186.056    -6374161.243 7  -6527638.17526        54.000
  22940980.250    13630154.484 7  10511281.47726        52.000
  20857312.643    -1561819.132 9  -1521079.57729        94.000
  23756078.769     -131851.806 7   -141269.34925        48.000
  23974277.373    -6101164.657 7  -4859797.52925        46.000
 96  6 10 16 22 45.0010000  0  6G 2G 4G27G 7G26G 9
  21976585.446     3534707.003 9   2717167.50828        84.000
  23169804.338    -6418244.319 7  -6561988.58926        58.000
  22951348.122    13684652.084 7  10553747.10526        52.000
  20860311.047    -1546066.303 9  -1508804.63729        94.000
  23760361.994     -109342.754 7   -123729.82025        48.000
  23966255.017    -6143306.989 7  -4892635.67725        44.000
 96  6 10 16 23  0.0010000  0  6G 2G 4G27G 7G26G 9
  21979813.432     3551690.459 8   2730401.36027        82.000
  23161420.942    -6462285.149 7  -6596306.11526        58.000
  22961728.826    13739214.806 7  10596263.50426        54.000
  20863327.259    -1530227.397 9  -1496462.63529        94.000
  23764662.786      -86737.825 7   -106115.61125        48.000
  23958247.980    -6185409.258 7  -4925442.63725        44.000
 96  6 10 16 23 15.0010000  0  6G 2G 4G27G 7G26G 9
  21983055.238     3568716.398 9   2743668.31027        84.000
  23153046.330    -6506282.750 7  -6630589.96026        56.000
  22972126.917    13793840.772 7  10638829.17526        56.000
  20866358.611    -1514305.111 9  -1484055.66629        94.000
  23768977.579      -64035.955 7    -88425.83825        48.000
  23950243.132    -6227474.943 7  -4958221.06625        44.000
 96  6 10 16 23 30.0010000  0  6G 2G 4G27G 7G26G 9
  21986307.296     3585787.404 9   2756970.36827        86.000
  23144683.439    -6550236.259 7  -6664839.45026        58.000
  22982537.540    13848530.744 7  10681444.69726        56.000
  20869402.883    -1498302.649 9  -1471586.20829        94.000
  23773318.694      -41232.538 7    -70656.93225        46.000
  23942241.311    -6269504.741 7  -4990971.56025        44.000
 96  6 10 16 23 45.0010000  0  6G 2G 4G27G 7G26G 9
  21989562.862     3602906.441 9   2770309.86527        84.000
  23136323.127    -6594145.499 7  -6699054.44426        54.000
  22992951.581    13903281.049 7  10724107.24526        56.000
  20872463.074    -1482222.593 9  -1459056.31229        96.000
  23777679.265      -18329.379 7    -52810.40625        48.000
  23934249.114    -6311498.883 7  -5023694.26525        44.000
 96  6 10 16 24  0.0010000  0  6G 2G 4G27G 7G26G 9
  21992827.332     3620073.984 9   2783687.16327        84.000
  23127980.442    -6638009.020 7  -6733233.76926        56.000
  23003384.149    13958089.146 7  10766814.85426        56.000
  20875537.146    -1466067.077 9  -1446467.58429        94.000
  23782057.284        4669.856 7    -34888.94125        48.000
  23926271.127    -6353456.726 7  -5056388.69225        44.000
 96  6 10 16 24 15.0010000  0  6G 2G 4G27G 7G26G 9
  21996105.143     3637286.873 9   2797099.80727        86.000
  23119643.754    -6681823.868 7  -6767375.16426        60.000
  23013822.772    14012955.584 7  10809567.92826        56.000
  20878625.308    -1449833.762 9  -1433818.24229        92.000
  23786445.407       27762.152 7    -16894.94225        44.000
  23918291.102    -6395376.366 7  -5089053.27325        44.000
 96  6 10 16 24 30.0010000  0  6G 2G 4G27G 7G26G 9
  21999389.010     3654548.346 9   2810550.30827        86.000
  23111318.307    -6725588.246 7  -6801477.25426        56.000
  23024276.145    14067881.057 7  10852366.97126        54.000
  20881730.349    -1433520.363 9  -1421106.52629        94.000
  23790862.938       50946.300 7      1170.59125        44.000
  23910321.629    -6437256.063 7  -5121686.81325        42.000
 96  6 10 16 24 45.0010000  0  6G 2G 4G27G 7G26G 9
  22002683.279     3671858.589 9   2824038.79627        88.000
  23102997.867    -6769300.119 7  -6835538.43126        56.000
  23034739.951    14122864.794 7  10895211.43126        52.000
  20884847.471    -1417127.776 9  -1408333.08129        92.000
  23795285.806       74223.882 7     19308.98325        46.000
  23902356.383    -6479094.567 7  -5154288.25625        42.000
 96  6 10 16 25  0.0010000  0  6G 2G 4G27G 7G26G 9
  22005984.894     3689211.549 9   2837560.56327        84.000
  23094689.959    -6812962.180 7  -6869560.83126        56.000
  23045213.561    14177907.886 7  10938102.11726        50.000
  20887982.161    -1400658.619 9  -1395499.98429        90.000
  23799737.155       97594.437 7     37519.80025        44.000
  23894401.750    -6520893.540 7  -5186858.93825        42.000
 96  6 10 16 25 15.0010000  0  6G 2G 4G27G 7G26G 9
  22009291.844     3706607.114 9   2851115.53827        86.000
  23086384.359    -6856576.817 7  -6903546.23426        52.000
  23055698.052    14233013.051 7  10981041.17126        48.000
  20891130.671    -1384111.008 9  -1382605.73029        90.000
  23804202.264      121059.730 7     55804.42725        42.000
  23886454.102    -6562654.744 7  -5219400.09525        42.000
 96  6 10 16 25 30.0010000  0  6G 2G 4G27G 7G26G 9
  22012617.322     3724046.534 9   2864704.68527        88.000
  23078096.626    -6900144.508 7  -6937495.09026        54.000
  23066201.011    14288183.228 7  11024030.90826        46.000
  20894293.602    -1367482.997 9  -1369648.83829        92.000
  23808684.701      144620.657 7     74163.55225        42.000
  23878518.536    -6604375.798 7  -5251909.98925        44.000
 96  6 10 16 25 45.0010000  0  6G 2G 4G27G 7G26G 9
  22015943.100     3741529.798 9   2878328.01428        86.000
  23069814.380    -6943665.822 7  -6971407.76126        58.000
  23076705.709    14343419.135 7  11067071.85126        42.000
  20897477.457    -1350773.997 9  -1356628.84729        94.000
  23813181.138      168272.808 6     92593.76325        40.000
  23870588.695    -6646052.070 7  -5284384.96225        44.000
 96  6 10 16 26  0.0010000  0  6G 2G 4G27G 7G26G 9
  22019277.511     3759053.737 9   2891983.03828        84.000
  23061545.384    -6987138.292 7  -7005282.37826        58.000
  23087232.891    14398724.763 7  11110167.11726        42.000
  20900669.707    -1333980.965 9  -1343543.36829        94.000
  23817703.807      192015.570 6    111094.57725        40.000
  23862669.498    -6687682.012 7  -5316823.88125        46.000
 96  6 10 16 26 15.0010000  0  6G 2G 4G27G 7G26G 9
  22022618.578     3776613.851 9   2905666.21928        84.000
  23053279.297    -7030563.589 7  -7039120.24126        58.000
  23097770.326    14454099.908 7  11153316.59126        42.000
  20903882.553    -1317105.817 9  -1330393.91529        96.000
  23822236.309      215848.875 6    129666.03825        40.000
  23854758.514    -6729266.010 7  -5349226.96125        48.000
 96  6 10 16 26 30.0010000  0  6G 2G 4G27G 7G26G 9
  22025964.862     3794210.473 9   2919377.85828        84.000
  23045023.882    -7073941.895 7  -7072921.51426        58.000
  23108323.111    14509544.109 7  11196519.83526        42.000
  20907108.350    -1300150.384 9  -1317181.89729        96.000
  23826797.801      239773.898 7    148308.91125        42.000
  23846852.987    -6770802.606 7  -5381593.15625        46.000
 96  6 10 16 26 45.0010000  0  6G 2G 4G27G 7G26G 9
  22029320.109     3811844.178 9   2933118.40828        86.000
  23036777.940    -7117270.904 7  -7106684.40626        56.000
  23118882.161    14565057.810 7  11239777.22026        42.000
  20910348.717    -1283115.604 9  -1303908.03929        96.000
  23831365.049      263791.075 7    167023.52125        42.000
  23838957.713    -6812289.969 7  -5413920.95725        48.000
 96  6 10 16 27  0.0010000  0  6G 2G 4G27G 7G26G 9
  22032684.470     3829513.892 9   2946887.00228        84.000
  23028546.899    -7160546.756 7  -7140405.84426        56.000
  23129462.706    14620643.480 7  11283090.65226        42.000
  20913609.320    -1265999.584 9  -1290570.88629       100.000
  23835951.904      287901.738 7    185810.98925        42.000
  23831075.000    -6853724.768 7  -5446207.81125        50.000
 96  6 10 16 27 15.0010000  0  6G 2G 4G27G 7G26G 9
  22036053.418     3847220.225 8   2960684.13928        82.000
  23020320.624    -7203768.013 7  -7174084.71026        54.000
  23140055.453    14676298.992 7  11326458.58026        44.000
  20916879.785    -1248803.107 9  -1277171.04229        98.000
  23840558.695      312101.962 7    204668.29325        46.000
  23823192.737    -6895108.625 7  -5478454.95625        50.000
 96  6 10 16 27 30.0010000  0  6G 2G 4G27G 7G26G 9
  22039433.038     3864965.239 9   2974511.43128        84.000
  23012107.779    -7246930.111 7  -7207717.47826        54.000
  23150656.444    14732021.920 7  11369879.03426        44.000
  20920165.901    -1231525.373 9  -1263707.87229        98.000
  23845182.034      336389.540 7    223593.70825        46.000
  23815327.622    -6936439.391 7  -5510660.71425        50.000
 96  6 10 16 27 45.0010000  0  6G 2G 4G27G 7G26G 9
  22042813.258     3882748.220 9   2988368.29628        84.000
  23003905.068    -7290031.107 7  -7241302.62326        56.000
  23161271.915    14787809.878 7  11413350.13326        46.000
  20923472.312    -1214170.886 9  -1250184.89829        98.000
  23849814.577      360762.271 7    242585.42725        44.000
  23807475.757    -6977715.397 7  -5542823.83125        52.000
 96  6 10 16 28  0.0010000  0  6G 2G 4G27G 7G26G 9
  22046203.041     3900569.369 8   3002254.87628        82.000
  22995715.787    -7333069.249 7  -7274838.85026        58.000
  23171903.875    14843664.087 7  11456872.88226        50.000
  20926787.506    -1196738.339 9  -1236601.10529        96.000
  23854469.574      385219.296 7    261642.80125        46.000
  23799633.187    -7018938.761 7  -5574945.92225        52.000
 96  6 10 16 28 15.0010000  0  6G 2G 4G27G 7G26G 9
  22049603.527     3918430.838 8   3016172.90328        80.000
  22987539.308    -7376046.446 7  -7308327.57326        58.000
  23182544.558    14899580.670 7  11500444.23226        52.000
  20930120.809    -1179229.018 9  -1222957.47229        98.000
  23859137.223      409759.705 7    280765.17325        46.000
  23791795.832    -7060111.646 7  -5607028.68525        54.000
 96  6 10 16 28 30.0010000  0  6G 2G 4G27G 7G26G 9
  22053012.977     3936340.265 8   3030128.30128        78.000
  22979368.884    -7418960.155 7  -7341766.82026        60.000
  23193197.414    14955558.241 7  11544063.08626        50.000
  20933465.563    -1161640.280 9  -1209251.96229        98.000
  23863824.688      434385.148 7    299953.80125        46.000
  23783971.369    -7101232.767 7  -5639071.12825        54.000
 96  6 10 16 28 45.0010000  0  6G 2G 4G27G 7G26G 9
  22056431.150     3954300.457 8   3044123.24628        82.000
  22971218.067    -7461809.967 7  -7375156.28526        58.000
  23203856.055    15011599.920 7  11587731.89126        48.000
  20936831.813    -1143968.828 9  -1195482.00029        98.000
  23868523.845      459095.132 7    319208.32425        44.000
  23776155.720    -7142302.999 7  -5671073.89625        52.000
 96  6 10 16 29  0.0010000  0  6G 2G 4G27G 7G26G 9
  22059857.299     3972312.930 8   3058158.92428        82.000
  22963076.183    -7504598.248 7  -7408497.78126        56.000
  23214535.621    15067703.705 7  11631449.08026        50.000
  20940207.536    -1126215.218 9  -1181648.02829        98.000
  23873244.916      483887.764 7    338527.23625        46.000
  23768347.835    -7183325.774 7  -5703039.67025        52.000
 96  6 10 16 29 15.0010000  0  6G 2G 4G27G 7G26G 9
  22063295.318     3990379.943 8   3072237.10928        80.000
  22954942.454    -7547328.671 7  -7441794.18026        58.000
  23225226.460    15123866.437 7  11675212.25926        50.000
  20943599.778    -1108381.210 9  -1167751.40929        94.000
  23877982.147      508762.477 7    357910.13925        46.000
  23760552.212    -7224305.223 7  -5734971.69826        52.000
 96  6 10 16 29 30.0010000  0  6G 2G 4G27G 7G26G 9
  22066745.210     4008501.256 8   3086357.61428        80.000
  22946824.344    -7590002.862 7  -7475046.78426        60.000
  23235922.126    15180088.760 7  11719021.84426        48.000
  20947012.165    -1090465.988 9  -1153791.49129        94.000
  23882731.909      533719.495 7    377357.13425        44.000
  23752762.884    -7265241.415 7  -5766870.01826        52.000
 96  6 10 16 29 45.0010000  0  6G 2G 4G27G 7G26G 9
  22070202.747     4026674.765 8   3100518.78928        82.000
  22938712.290    -7632624.634 7  -7508258.56526        60.000
  23246632.721    15236369.914 7  11762877.26126        48.000
  20950436.485    -1072469.799 9  -1139768.48629        94.000
  23887494.831      558760.877 7    396869.87725        44.000
  23744979.583    -7306135.993 7  -5798735.91626        52.000
 96  6 10 16 30  0.0010000  0  6G 2G 4G27G 7G26G 9
  22073672.125     4044900.737 8   3114720.83128        82.000
  22930612.257    -7675194.817 8  -7541430.14626        64.000
  23257354.049    15292709.468 7  11806778.17026        46.000
  20953871.956    -1054392.839 9  -1125682.55129        94.000
  23892279.609      583888.971 7    416450.17325        48.000
  23737208.662    -7346990.003 7  -5830570.17626        50.000
 96  6 10 16 30 15.0010000  0  6G 2G 4G27G 7G26G 9
  22077148.488     4063178.203 8   3128963.01128        80.000
  22922520.529    -7717713.856 7  -7574561.84026        62.000
  23268081.792    15349105.277 7  11850722.95026        44.000
  20957330.992    -1036237.615 9  -1111535.61229        96.000
  23897077.517      609102.453 7    436097.00325        46.000
  23729443.168    -7387804.694 7  -5862373.83526        50.000
 96  6 10 16 30 30.0010000  0  6G 2G 4G27G 7G26G 9
  22080636.483     4081504.771 8   3143243.44228        80.000
  22914441.302    -7760179.883 7  -7607652.22826        62.000
  23278823.446    15405555.224 7  11894709.89726        44.000
  20960800.370    -1018006.669 9  -1097329.68629        98.000
  23901885.019      634403.300 7    455811.94025        42.000
  23721677.344    -7428577.651 7  -5894144.94926        50.000
 96  6 10 16 30 45.0010000  0  6G 2G 4G27G 7G26G 9
  22084133.113     4099875.376 8   3157558.19528        80.000
  22906369.031    -7802591.461 7  -7640700.18726        62.000
  23289581.198    15462061.118 7  11938740.41926        44.000
  20964282.849     -999700.940 9  -1083065.49829       100.000
  23906721.691      659791.343 7    475594.81926        46.000
  23713925.431    -7469308.816 7  -5925883.50126        48.000
 96  6 10 16 31  0.0010000  0  6G 2G 4G27G 7G26G 9
  22087635.798     4118286.577 8   3171904.58228        80.000
  22898307.851    -7844949.176 7  -7673706.21326        62.000
  23300341.289    15518619.970 7  11982812.22026        42.000
  20967778.159     -981323.245 9  -1068745.21329       102.000
  23911567.446      685265.576 7    495444.83926        46.000
  23706184.010    -7509995.642 7  -5957587.54826        48.000
 96  6 10 16 31 15.0010000  0  6G 2G 4G27G 7G26G 9
  22091147.417     4136736.070 8   3186280.80328        82.000
  22890256.565    -7887252.780 7  -7706670.13226        62.000
  23311113.432    15575228.860 7  12026923.01326        42.000
  20971290.438     -962875.352 9  -1054370.23229       104.000
  23916429.420      710825.336 7    515361.50226        46.000
  23698456.920    -7550637.230 7  -5989256.29026        50.000
 96  6 10 16 31 30.0010000  0  6G 2G 4G27G 7G26G 9
  22094663.922     4155220.813 8   3200684.49928        80.000
  22882218.590    -7929498.791 7  -7739589.07126        62.000
  23321896.907    15631889.544 7  12071074.20726        42.000
  20974814.228     -944357.675 9  -1039940.87529       104.000
  23921309.082      736471.175 7    535345.26626        44.000
  23690730.549    -7591231.000 7  -6020887.76026        50.000
 96  6 10 16 31 45.0010000  0  6G 2G 4G27G 7G26G 9
  22098188.852     4173741.121 9   3215115.88928        84.000
  22874188.529    -7971684.314 7  -7772460.88826        58.000
  23332689.765    15688603.534 6  12115266.87526        40.000
  20978350.940     -925771.111 9  -1025457.84029       102.000
  23926208.321      762203.863 7    555396.67426        48.000
  23683013.741    -7631774.450 7  -6052480.08026        50.000
 96  6 10 16 32  0.0010000  0  6G 2G 4G27G 7G26G 9
  22101722.746     4192298.911 9   3229576.49628        84.000
  22866173.128    -8013807.193 7  -7805283.86826        58.000
  23343489.548    15745369.711 6  12159500.25226        40.000
  20981901.652     -907117.424 9  -1010922.49729       102.000
  23931118.861      788022.184 7    575514.84026        46.000
  23675304.428    -7672267.016 7  -6084032.71126        50.000
 96  6 10 16 32 15.0010000  0  6G 2G 4G27G 7G26G 9
  22105260.567     4210896.190 9   3244067.86328        84.000
  22858172.117    -8055865.543 7  -7838056.61226        56.000
  23354305.791    15802190.072 7  12203775.81026        42.000
  20985463.546     -888395.547 9   -996334.02129       100.000
  23936048.229      813923.091 7    595697.34226        46.000
  23667612.923    -7712706.354 7  -6115543.86826        50.000
 96  6 10 16 32 30.0010000  0  6G 2G 4G27G 7G26G 9
  22108805.822     4229534.788 8   3258591.44328        82.000
  22850184.776    -8097861.570 7  -7870780.80326        58.000
  23365126.559    15859066.254 7  12248094.89526        42.000
  20989037.342     -869603.278 9   -981690.70229        98.000
  23940996.063      839906.462 7    615944.10026        44.000
  23659926.814    -7753091.610 7  -6147012.89926        52.000
 96  6 10 16 32 45.0010000  0  6G 2G 4G27G 7G26G 9
  22112360.252     4248216.319 8   3273148.48428        82.000
  22842198.065    -8139796.867 7  -7903457.65226        56.000
  23375962.078    15915997.958 7  12292457.24526        42.000
  20992628.736     -850739.441 9   -966991.61529        98.000
  23945955.830      865973.703 7    636256.19926        46.000
  23652256.474    -7793423.026 7  -6178439.95426        54.000
 96  6 10 16 33  0.0010000  0  6G 2G 4G27G 7G26G 9
  22115923.585     4266945.626 9   3287742.74528        84.000
  22834226.254    -8181671.500 7  -7936087.21626        56.000
  23386806.890    15972986.841 7  12336864.17126        42.000
  20996235.838     -831802.199 9   -952235.33929        98.000
  23950936.941      892125.740 7    656634.37726        46.000
  23644591.650    -7833700.134 7  -6209824.68826        54.000
 96  6 10 16 33 15.0010000  0  6G 2G 4G27G 7G26G 9
  22119497.441     4285722.441 9   3302374.02328        86.000
  22826270.272    -8223486.891 7  -7968670.59826        54.000
  23397660.697    16030031.653 7  12381314.64026        42.000
  20999848.397     -812793.987 9   -937423.74529        96.000
  23955929.445      918360.896 7    677077.35226        46.000
  23636933.781    -7873925.041 7  -6241168.76226        54.000
 96  6 10 16 33 30.0010000  0  6G 2G 4G27G 7G26G 9
  22123081.879     4304547.429 9   3317042.82528        84.000
  22818330.778    -8265240.722 7  -8001206.03726        62.000
  23408526.434    16087136.681 7  12425811.99326        42.000
  21003480.653     -793713.710 9   -922556.01129        96.000
  23960930.763      944681.938 7    697587.24026        44.000
  23629289.643    -7914097.006 7  -6272471.59226        54.000
 96  6 10 16 33 45.0010000  0  6G 2G 4G27G 7G26G 9
  22126672.553     4323422.496 8   3331750.64927        82.000
  22810394.433    -8306931.735 7  -8033692.52926        62.000
  23419410.130    16144300.786 7  12470355.43226        42.000
  21007124.870     -774561.530 9   -907632.23429        94.000
  23965953.456      971091.121 7    718165.77926        44.000
  23621654.709    -7954212.741 7  -6303730.59526        54.000
 96  6 10 16 34  0.0010000  0  6G 2G 4G27G 7G26G 9
  22130273.391     4342348.419 8   3346498.11127        82.000
  22802472.657    -8348561.529 7  -8066131.33726        62.000
  23430299.041    16201523.607 7  12514944.62526        42.000
  21010785.456     -755336.897 9   -892652.01129        96.000
  23971001.841      997587.249 7    738812.09725        48.000
  23614028.768    -7994272.377 7  -6334945.86426        54.000
 96  6 10 16 34 15.0010000  0  6G 2G 4G27G 7G26G 9
  22133886.459     4361325.843 8   3361285.70027        82.000
  22794564.431    -8390128.462 7  -8098521.15226        62.000
  23441195.478    16258807.047 7  12559581.06326        42.000
  21014456.205     -736035.632 9   -877612.07529        96.000
  23976054.693     1024170.664 7    759526.44025        46.000
  23606420.815    -8034274.767 7  -6366116.55126        56.000
 96  6 10 16 34 30.0010000  0  6G 2G 4G27G 7G26G 9
  22137504.894     4380353.295 9   3376112.29927        84.000
  22786665.770    -8431634.370 8  -8130863.39526        66.000
  23452109.363    16316151.472 7  12604264.99126        44.000
  21018146.920     -716657.497 9   -862512.23729        96.000
  23981130.299     1050842.184 7    780309.38425        46.000
  23598818.258    -8074219.517 7  -6397242.31726        56.000
 96  6 10 16 34 45.0010000  0  6G 2G 4G27G 7G26G 9
  22141135.321     4399427.014 8   3390974.93927        82.000
  22778778.740    -8473077.813 8  -8163156.97326        68.000
  23463025.615    16373555.014 7  12648995.02126        44.000
  21021846.209     -697204.133 9   -847353.76929        96.000
  23986224.073     1077600.853 7    801160.28126        46.000
  23591227.693    -8114106.440 7  -6428323.01826        56.000
 96  6 10 16 35  0.0010000  0  6G 2G 4G27G 7G26G 9
  22144772.163     4418545.137 8   3405872.15427        80.000
  22770907.269    -8514453.050 8  -8195397.39426        66.000
  23473961.265    16431017.909 7  12693771.25526        44.000
  21025562.106     -677674.534 9   -832135.90929        96.000
  23991343.269     1104446.177 7    822078.71326        46.000
  23583649.119    -8153937.230 7  -6459359.99626        56.000
 96  6 10 16 35 15.0010000  0  6G 2G 4G27G 7G26G 9
  22148417.430     4437705.948 8   3420802.65327        80.000
  22763043.593    -8555758.884 8  -8227583.75126        68.000
  23484910.705    16488540.250 7  12738593.82826        44.000
  21029295.002     -658068.829 9   -816858.74029       100.000
  23996460.996     1131374.663 7    843061.92426        46.000
  23576078.281    -8193711.027 7  -6490352.54426        54.000
 96  6 10 16 35 30.0010000  0  6G 2G 4G27G 7G26G 9
  22152073.339     4456909.390 8   3435766.35327        80.000
  22755197.125    -8596992.665 8  -8259713.97226        68.000
  23495867.160    16546121.497 7  12783462.30225        42.000
  21033040.129     -638385.918 9   -801521.40129       100.000
  24001597.070     1158384.891 7    864108.83325        46.000
  23568521.352    -8233427.113 7  -6521300.12626        54.000
 96  6 10 16 35 45.0010000  0  6G 2G 4G27G 7G26G 9
  22155735.244     4476158.046 8   3450765.29727        78.000
  22747367.535    -8638154.379 8  -8291788.05426        72.000
  23506838.245    16603758.240 7  12828374.02326        46.000
  21036799.047     -618624.143 9   -786122.61629       100.000
  24006755.209     1185474.953 7    885217.93625        46.000
  23560975.906    -8273084.798 7  -6552202.23126        52.000
 96  6 10 16 36  0.0010000  0  6G 2G 4G27G 7G26G 9
  22159406.262     4495455.328 8   3465802.14727        76.000
  22739543.132    -8679243.040 8  -8323805.17426        70.000
  23517818.473    16661452.512 7  12873330.59926        46.000
  21040576.552     -598781.430 9   -770660.77029       102.000
  24011925.190     1212642.690 7    906387.58925        48.000
  23553437.624    -8312684.652 7  -6583059.22926        54.000
 96  6 10 16 36 15.0010000  0  6G 2G 4G27G 7G26G 9
  22163090.772     4514802.779 8   3480878.07827        76.000
  22731741.123    -8720259.245 8  -8355765.82226        72.000
  23528810.364    16719205.502 7  12918332.93426        46.000
  21044369.346     -578856.579 9   -755134.91629       102.000
  24017108.302     1239885.504 7    927615.70925        44.000
  23545915.082    -8352228.006 7  -6613872.22526        52.000
 96  6 10 16 36 30.0010000  0  6G 2G 4G27G 7G26G 9
  22166783.015     4534199.978 8   3495992.77627        76.000
  22723951.826    -8761200.067 8  -8387667.74426        72.000
  23539806.961    16777016.029 7  12963380.06425        44.000
  21048176.830     -558850.017 9   -739545.39129       102.000
  24022307.962     1267205.035 7    948903.63525        46.000
  23538400.904    -8391713.133 7  -6644639.85426        54.000
 96  6 10 16 36 45.0010000  0  6G 2G 4G27G 7G26G 9
  22170481.975     4553648.493 8   3511147.42127        72.000
  22716174.340    -8802062.881 8  -8419508.88126        72.000
  23550819.177    16834883.488 7  13008471.54325        42.000
  21051994.807     -538763.805 9   -723893.80729       100.000
  24027525.460     1294601.904 7    970251.84025        48.000
  23530903.185    -8431136.275 7  -6675359.16026        56.000
 96  6 10 16 37  0.0010000  0  6G 2G 4G27G 7G26G 9
  22174194.365     4573152.023 8   3526344.96827        70.000
  22708417.540    -8842844.858 8  -8451287.02726        72.000
  23561843.175    16892806.988 6  13053606.65425        40.000
  21055834.399     -518599.010 9   -708180.98629       100.000
  24032750.243     1322077.030 7    991661.01525        44.000
  23523409.722    -8470496.898 7  -6706029.76726        54.000
 96  6 10 16 37 15.0010000  0  6G 2G 4G27G 7G26G 9
  22177916.708     4592714.956 8   3541588.81327        72.000
  22700668.564    -8883548.994 8  -8483004.54826        72.000
  23572876.047    16950785.918 6  13098785.05125        40.000
  21059683.824     -498358.864 9   -692409.44029        98.000
  24037995.922     1349632.011 7   1013132.38225        44.000
  23515932.808    -8509794.515 7  -6736651.27326        54.000
 96  6 10 16 37 30.0010000  0  6G 2G 4G27G 7G26G 9
  22181651.822     4612338.985 8   3556880.26027        72.000
  22692939.615    -8924177.657 8  -8514663.23826        74.000
  23583911.228    17008820.968 6  13144007.18325        38.000
  21063551.597     -478043.146 9   -676579.02329        96.000
  24043254.761     1377266.258 7   1034665.52725        46.000
  23508462.760    -8549026.432 7  -6767221.59826        54.000
 96  6 10 16 37 45.0010000  0  6G 2G 4G27G 7G26G 9
  22185395.960     4632023.766 8   3572219.07327        72.000
  22685223.407    -8964732.708 8  -8546264.54526        68.000
  23594976.178    17066912.249 6  13189273.07125        40.000
  21067430.761     -457652.650 9   -660690.31829        96.000
  24048520.496     1404978.607 7   1056259.54025        44.000
  23501010.009    -8588194.384 7  -6797742.08126        54.000
 96  6 10 16 38  0.0010000  0  6G 2G 4G27G 7G26G 9
  22189153.918     4651767.108 8   3587603.47527        70.000
  22677515.713    -9005215.800 8  -8577809.79226        68.000
  23606038.460    17125060.096 7  13234583.06825        42.000
  21071326.204     -437191.710 9   -644746.73829        98.000
  24053815.400     1432769.269 7   1077914.61525        46.000
  23493567.422    -8627299.701 7  -6828213.73426        56.000
 96  6 10 16 38 15.0010000  0  6G 2G 4G27G 7G26G 9
  22192920.721     4671566.455 8   3603031.52727        68.000
  22669829.484    -9045625.733 8  -8609298.00826        68.000
  23617117.919    17183265.597 7  13279937.96925        42.000
  21075234.509     -416661.438 9   -628749.14329        98.000
  24059115.521     1460641.183 7   1099632.96125        42.000
  23486137.066    -8666341.517 7  -6858635.92726        56.000
 96  6 10 16 38 30.0010000  0  6G 2G 4G27G 7G26G 9
  22196701.313     4691419.131 8   3618501.13927        72.000
  22662149.161    -9085960.651 7  -8640727.83426        60.000
  23628202.386    17241526.362 7  13325335.93125        42.000
  21079153.186     -396061.760 9   -612697.44529        96.000
  24064433.749     1488595.103 7   1121415.18725        42.000
  23478725.147    -8705319.162 7  -6889008.11226        56.000
 96  6 10 16 38 45.0010000  0  6G 2G 4G27G 7G26G 9
  22200486.613     4711325.653 8   3634012.69827        70.000
  22654488.534    -9126220.406 7  -8672099.06226        60.000
  23639299.264    17299843.288 7  13370777.62525        44.000
  21083085.054     -375394.147 9   -596592.82329        96.000
  24069773.922     1516631.649 7   1143261.81725        42.000
  23471319.584    -8744231.726 7  -6919329.57826        54.000
 96  6 10 16 39  0.0010000  0  6G 2G 4G27G 7G26G 9
  22204284.863     4731287.181 8   3649567.11327        68.000
  22646843.646    -9166407.462 7  -8703413.64626        62.000
  23650405.285    17358215.532 7  13416262.49525        44.000
  21087030.083     -354658.729 9   -580435.36729        98.000
  24075127.886     1544750.398 7   1165172.47725        44.000
  23463924.423    -8783081.358 7  -6949601.99126        54.000
 96  6 10 16 39 15.0010000  0  6G 2G 4G27G 7G26G 9
  22208092.258     4751301.792 8   3665162.92327        68.000
  22639207.962    -9206523.752 8  -8734673.07026        64.000
  23661521.080    17416643.745 7  13461790.97625        44.000
  21090991.420     -333852.392 9   -564222.65029        98.000
  24080492.522     1572952.421 7   1187148.08325        42.000
  23456541.944    -8821870.431 7  -6979827.25726        52.000
 96  6 10 16 39 30.0010000  0  6G 2G 4G27G 7G26G 9
  22211912.933     4771364.775 8   3680796.41527        70.000
  22631589.247    -9246569.618 7  -8765877.59527        62.000
  23672652.793    17475127.350 7  13507362.60925        44.000
  21094962.951     -312971.337 9   -547951.69729        96.000
  24085869.659     1601234.482 7   1209186.03625        42.000
  23449172.326    -8860597.457 7  -7010004.15326        54.000
 96  6 10 16 39 45.0010000  0  6G 2G 4G27G 7G26G 9
  22215742.182     4791472.729 8   3696464.94527        72.000
  22623977.516    -9286542.592 7  -8797025.33427        60.000
  23683795.989    17533665.193 7  13552976.48725        46.000
  21098950.910     -292015.958 9   -531622.84329        94.000
  24091267.632     1629594.977 7   1231285.09925        42.000
  23441816.228    -8899262.506 7  -7040132.73026        56.000
 96  6 10 16 40  0.0010000  0  6G 2G 4G27G 7G26G 9
  22219575.718     4811624.511 8   3712167.61827        72.000
  22616387.251    -9326443.014 8  -8828116.54527        64.000
  23694942.453    17592252.184 7  13598628.66625        48.000
  21102952.600     -270989.492 9   -515238.60329        94.000
  24096681.674     1658034.306 6   1253445.56925        40.000
  23434467.086    -8937864.840 7  -7070212.46526        56.000
 96  6 10 16 40 15.0010000  0  6G 2G 4G27G 7G26G 9
  22223416.779     4831820.186 8   3727904.49227        68.000
  22608810.476    -9366270.760 8  -8859151.16927        66.000
  23706105.465    17650886.660 7  13644317.80425        46.000
  21106967.061     -249891.484 9   -498798.58329       100.000
  24102107.738     1686554.319 6   1275668.90625        36.000
  23427134.252    -8976402.848 7  -7100242.06826        56.000
 96  6 10 16 40 30.0010000  0  6G 2G 4G27G 7G26G 9
  22227268.152     4852057.017 8   3743673.44927        68.000
  22601239.727    -9406029.929 8  -8890132.33327        70.000
  23717269.916    17709564.710 7  13690040.91125        44.000
  21110996.241     -228722.492 9   -482303.27929       100.000
  24107552.269     1715151.099 6   1297952.11925        40.000
  23419814.130    -9014878.641 7  -7130223.20126        58.000
 96  6 10 16 40 45.0010000  0  6G 2G 4G27G 7G26G 9
  22231127.231     4872338.125 8   3759476.89027        70.000
  22593692.962    -9445716.057 8  -8921056.57627        72.000
  23728444.110    17768289.680 7  13735800.65325        42.000
  21115037.114     -207480.877 9   -465751.37429       100.000
  24113002.016     1743827.165 6   1320297.08125        40.000
  23412514.124    -9053288.257 7  -7160152.76226        60.000
 96  6 10 16 41  0.0010000  0  6G 2G 4G27G 7G26G 9
  22234995.753     4892666.310 8   3775317.05227        72.000
  22586153.421    -9485328.066 8  -8951923.06827        72.000
  23739625.110    17827062.241 7  13781597.46825        42.000
  21119097.083     -186164.530 9   -449141.24329        98.000
  24118481.922     1772586.647 7   1342707.04325        44.000
  23405212.948    -9091628.178 7  -7190028.03526        60.000
 96  6 10 16 41 15.0010000  0  6G 2G 4G27G 7G26G 9
  22238872.759     4913042.231 8   3791194.37127        72.000
  22578631.778    -9524862.898 8  -8982729.40327        72.000
  23750818.820    17885880.841 6  13827430.13225        40.000
  21123165.597     -164772.939 9   -432472.47229        96.000
  24123967.135     1801430.561 7   1365182.77325        42.000
  23397929.131    -9129897.781 7  -7219848.47026        60.000
 96  6 10 16 41 30.0010000  0  6G 2G 4G27G 7G26G 9
  22242756.240     4933463.313 8   3807106.89627        72.000
  22571121.078    -9564319.805 8  -9013475.02327        72.000
  23762022.154    17944745.267 6  13873298.52625        38.000
  21127246.492     -143308.537 9   -415746.97929        96.000
  24129471.295     1830353.837 6   1387720.36725        38.000
  23390658.864    -9168097.319 7  -7249614.32826        60.000
 96  6 10 16 41 45.0010000  0  6G 2G 4G27G 7G26G 9
  22246656.480     4953935.147 8   3823058.95827        76.000
  22563627.406    -9603695.438 8  -9044157.32727        72.000
  23773230.015    18003658.069 6  13919204.59325        34.000
  21131349.301     -121773.458 9   -398966.38529        96.000
  24134985.887     1859357.706 6   1410320.71625        36.000
  23383400.499    -9206226.489 7  -7279325.37726        60.000
 96  6 10 16 42  0.0010000  0  6G 2G 4G27G 7G26G 9
  22250560.587     4974462.743 8   3839054.48827        76.000
  22556150.132    -9642989.439 8  -9074776.03527        72.000
  23784451.457    18062619.835 6  13965148.72225        34.000
  21135456.398     -100169.259 9   -382131.95429        94.000
  24140533.426     1888445.001 7   1432986.12825        42.000
  23376161.020    -9244284.759 7  -7308981.15126        60.000
 96  6 10 16 42 15.0010000  0  6G 2G 4G27G 7G26G 9
  22254478.395     4995046.388 8   3855093.68527        78.000
  22548690.277    -9682204.445 8  -9105333.17527        72.000
  23795683.991    18121630.565 6  14011131.05925        34.000
  21139582.771      -78493.224 9   -365241.55129        96.000
  24146078.987     1917614.448 7   1455715.60225        44.000
  23368930.806    -9282272.389 7  -7338581.88426        60.000
 96  6 10 16 42 30.0010000  0  6G 2G 4G27G 7G26G 9
  22258405.287     5015686.743 8   3871177.05827        78.000
  22541243.042    -9721339.005 8  -9135827.61127        72.000
  23806916.435    18180690.645 6  14057151.86625        32.000
  21143721.376      -56745.511 9   -348295.29429        96.000
  24151643.255     1946866.110 7   1478509.08925        42.000
  23361713.932    -9320192.011 7  -7368129.64726        60.000
 96  6 10 16 42 45.0010000  0  6G 2G 4G27G 7G26G 9
  22262344.739     5036383.885 8   3887304.69127        78.000
  22533811.817    -9760390.638 8  -9166257.44127        70.000
  23818170.134    18239799.892 6  14103211.01125        36.000
  21147873.892      -34927.286 9   -331294.08129        98.000
  24157226.680     1976195.501 7   1501363.09125        42.000
  23354513.637    -9358043.595 7  -7397624.36626        58.000
 96  6 10 16 43  0.0010000  0  6G 2G 4G27G 7G26G 9
  22266293.786     5057140.122 8   3903478.38727        78.000
  22526395.971    -9799360.234 8  -9196623.33327        68.000
  23829424.463    18298956.645 6  14149307.18425        34.000
  21152038.219      -13039.621 9   -314238.76929        98.000
  24162824.555     2005600.208 6   1524275.78325        40.000
  23347319.787    -9395826.176 7  -7427065.32626        60.000
 96  6 10 16 43 15.0010000  0  6G 2G 4G27G 7G26G 9
  22270255.783     5077959.698 8   3919701.42827        80.000
  22518996.313    -9838247.986 8  -9226925.46927        70.000
  23840693.182    18358162.493 6  14195441.58025        36.000
  21156218.884        8919.358 9   -297127.88929        94.000
  24168424.138     2035078.908 6   1547246.17125        38.000
  23340148.721    -9433539.563 7  -7456452.37726        62.000
 96  6 10 16 43 30.0010000  0  7G 2G24G 4G27G 7G26G 9
  22274229.262     5098841.335 8   3935972.82327        82.000
  24732560.125    -2478871.016 6  -2214396.15625        30.000
  22511610.536    -9877054.610 8  -9257164.41127        68.000
  23851968.676    18417418.747 6  14241615.26425        38.000
  21160408.184       30948.036 9   -279962.68729        96.000
  24174047.795     2064625.449 6   1570269.43925        40.000
  23332983.412    -9471185.356 7  -7485786.76226        60.000
 96  6 10 16 43 45.0010000  0  7G 2G24G 4G27G 7G26G 9
  22278213.863     5119784.877 8   3952292.44727        82.000
  24722965.327    -2529331.140 6  -2253715.64925        30.000
  22504241.278    -9915781.640 8  -9287341.31127        66.000
  23863258.920    18476725.437 6  14287828.19825        40.000
  21164615.861       53045.806 9   -262743.65329        96.000
  24179682.514     2094240.084 6   1593345.79725        40.000
  23325832.372    -9508765.925 7  -7515070.29926        62.000
 96  6 10 16 44  0.0010000  0  7G 2G24G 4G27G 7G26G 9
  22282212.225     5140792.692 8   3968662.16127        82.000
  24713360.127    -2579779.109 6  -2293025.70525        30.000
  22496885.960    -9954428.834 7  -9317455.98527        62.000
  23874546.256    18536080.765 7  14334079.08925        42.000
  21168831.513       75213.822 9   -245469.88029        98.000
  24185341.846     2123927.393 7   1616478.72725        46.000
  23318691.766    -9546279.116 8  -7544301.37826        64.000
 96  6 10 16 44 15.0010000  0  7G 2G24G 4G27G 7G26G 9
  22286221.140     5161858.344 8   3985076.94127        80.000
  24703762.721    -2630218.159 6  -2332328.79725        32.000
  22489546.621    -9992997.802 7  -9347509.73727        60.000
  23885851.879    18595480.310 7  14380364.40825        44.000
  21173065.632       97451.106 9   -228142.13429        98.000
  24190999.589     2153684.126 7   1639665.75325        44.000
  23311564.500    -9583725.338 7  -7573480.24526        60.000
 96  6 10 16 44 30.0010000  0  7G 2G24G 4G27G 7G26G 9
  22290241.867     5182981.778 8   4001536.76727        80.000
  24694172.420    -2680649.211 6  -2371625.66925        32.000
  22482223.650   -10031484.974 7  -9377499.70127        62.000
  23897163.738    18654925.869 7  14426685.60825        42.000
  21177309.104      119755.005 9   -210762.48029        98.000
  24196673.072     2183509.524 6   1662906.30725        40.000
  23304452.793    -9621105.674 7  -7602607.76426        58.000
 96  6 10 16 44 45.0010000  0  7G 2G24G 4G27G 7G26G 9
  22294269.968     5204161.721 8   4018040.60727        78.000
  24684566.500    -2731073.733 6  -2410917.48225        34.000
  22474914.261   -10069885.836 7  -9407422.43127        62.000
  23908484.621    18714419.995 7  14473044.69225        42.000
  21181566.966      142123.494 9   -193332.48429        98.000
  24202362.173     2213403.075 6   1686199.94925        38.000
  23297352.658    -9658418.984 7  -7631683.05626        60.000
 96  6 10 16 45  0.0010000  0  7G 2G24G 4G27G 7G26G 9
  22298316.537     5225399.024 8   4034589.12527        82.000
  24674975.660    -2781491.949 6  -2450204.36225        34.000
  22467624.177   -10108200.719 8  -9437278.18627        64.000
  23919816.656    18773964.021 7  14519442.61325        42.000
  21185834.332      164557.677 9   -175851.31929       102.000
  24208061.318     2243363.432 6   1709545.66125        38.000
  23290267.723    -9695662.146 7  -7660703.68526        60.000
 96  6 10 16 45 15.0010000  0  7G 2G24G 4G27G 7G26G 9
  22302366.493     5246691.006 8   4051180.28627        78.000
  24665386.798    -2831904.390 6  -2489486.77825        36.000
  22460347.435   -10146430.869 8  -9467067.92027        64.000
  23931157.834    18833554.756 7  14565876.92525        42.000
  21190117.317      187055.262 9   -158320.74929       102.000
  24213779.769     2273392.185 7   1732944.67625        42.000
  23283188.994    -9732837.508 7  -7689671.51226        58.000
 96  6 10 16 45 30.0010000  0  7G 2G24G 4G27G 7G26G 9
  22306425.263     5268035.353 8   4067812.22727        78.000
  24655793.739    -2882313.239 6  -2528766.36325        36.000
  22453090.539   -10184570.712 8  -9496787.26427        66.000
  23942504.949    18893194.798 6  14612349.63725        40.000
  21194411.244      209615.729 9   -140741.16729       100.000
  24219507.484     2303491.766 7   1756398.86525        44.000
  23276131.969    -9769947.166 7  -7718588.14226        56.000
 96  6 10 16 45 45.0010000  0  7G 2G24G 4G27G 7G26G 9
  22310496.355     5289431.826 8   4084484.78127        76.000
  24646198.162    -2932718.251 6  -2568042.94825        34.000
  22445847.193   -10222617.631 8  -9526434.18727        64.000
  23953861.417    18952884.499 6  14658861.07525        38.000
  21198712.727      232240.858 9   -123111.19829       100.000
  24225253.816     2333665.776 7   1779911.07625        44.000
  23269080.851    -9806990.184 7  -7747452.80026        58.000
 96  6 10 16 46  0.0010000  0  7G 2G24G 4G27G 7G26G 9
  22314577.190     5310879.634 8   4101197.34827        78.000
  24636609.060    -2983119.013 6  -2607316.23225        36.000
  22438628.221   -10260570.608 8  -9556007.92327        68.000
  23965233.204    19012621.655 6  14705409.47025        40.000
  21203032.616      254929.619 9   -105431.64729       102.000
  24231005.604     2363915.085 7   1803481.90425        42.000
  23262045.381    -9843965.857 7  -7776265.00726        60.000
 96  6 10 16 46 15.0010000  0  7G 2G24G 4G27G 7G26G 9
  22318669.177     5332376.210 8   4117947.92927        80.000
  24627017.381    -3033515.916 6  -2646586.50225        36.000
  22431425.767   -10298426.783 8  -9585506.22927        70.000
  23976609.219    19072405.939 6  14751994.62325        36.000
  21207362.309      277684.591 9    -87700.50629       102.000
  24236779.067     2394237.677 6   1827109.85125        38.000
  23255022.653    -9880868.826 7  -7805020.54926        60.000
 96  6 10 16 46 30.0010000  0  7G 2G24G 4G27G 7G26G 9
  22322771.837     5353921.246 8   4134736.26927        80.000
  24617429.088    -3083906.867 6  -2685852.16225        38.000
  22424239.742   -10336183.450 8  -9614926.99627        72.000
  23987994.887    19132239.881 6  14798618.45925        38.000
  21211704.203      300508.111 9    -69915.94829       100.000
  24242559.485     2424629.096 6   1850791.50625        38.000
  23248014.614    -9917697.121 7  -7833717.92226        58.000
 96  6 10 16 46 45.0010000  0  7G 2G24G 4G27G 7G26G 9
  22326879.953     5375516.385 8   4151563.64827        78.000
  24607840.167    -3134287.994 6  -2725110.12525        36.000
  22417074.133   -10373839.543 8  -9644269.41727        76.000
  23999391.107    19192124.532 6  14845281.78925        36.000
  21216060.787      323402.119 9    -52076.46229        96.000
  24248354.084     2455090.810 6   1874527.86325        38.000
  23241020.097    -9954449.651 7  -7862356.24326        60.000
 96  6 10 16 47  0.0010000  0  7G 2G24G 4G27G 7G26G 9
  22330996.733     5397160.245 8   4168428.98527        76.000
  24598260.509    -3184657.308 6  -2764358.92325        36.000
  22409927.410   -10411400.504 8  -9673537.68327        76.000
  24010794.283    19252055.135 6  14891980.90825        32.000
  21220431.761      346369.256 9    -34179.99629        96.000
  24254159.745     2485624.183 6   1898320.06525        38.000
  23234039.519    -9991126.629 7  -7890935.69326        60.000
 96  6 10 16 47 15.0010000  0  7G 2G24G 4G27G 7G26G 9
  22335126.344     5418853.900 8   4185333.11927        78.000
  24588679.471    -3235011.693 6  -2803596.10025        36.000
  22402797.746   -10448867.447 8  -9702732.68127        74.000
  24022203.634    19312029.275 6  14938713.96825        34.000
  21224818.744      369410.003 9    -16226.17029        98.000
  24259988.909     2516230.053 6   1922168.74625        38.000
  23227073.961   -10027728.065 7  -7919456.28526        60.000
 96  6 10 16 47 30.0010000  0  7G 2G24G 4G27G 7G26G 9
  22339263.000     5440597.849 8   4202276.42727        76.000
  24579096.665    -3285349.587 6  -2842820.44425        36.000
  22395685.949   -10486239.277 8  -9731853.57627        78.000
  24033633.342    19372049.461 6  14985482.93025        32.000
  21229217.269      392525.709 9      1786.06329        98.000
  24265830.815     2546909.973 7   1946075.17925        42.000
  23220128.909   -10064252.690 7  -7947917.02326        60.000
 96  6 10 16 47 45.0010000  0  7G 2G24G 4G27G 7G26G 9
  22343412.877     5462394.448 8   4219260.78027        76.000
  24569528.010    -3335669.992 6  -2882031.11125        38.000
  22388592.770   -10523516.738 8  -9760900.93327        74.000
  24045057.923    19432116.473 6  15032288.40925        34.000
  21233628.775      415719.219 9     19858.92829        98.000
  24271680.066     2577662.930 7   1970038.49725        42.000
  23213193.181   -10100695.984 7  -7976314.38226        60.000
 96  6 10 16 48  0.0010000  0  7G 2G24G 4G27G 7G26G 9
  22347570.189     5484243.098 8   4236285.70727        74.000
  24559950.570    -3385972.407 6  -2921227.78025        36.000
  22381517.278   -10560705.031 8  -9789878.80527        76.000
  24056491.557    19492225.668 6  15079126.72525        32.000
  21238058.478      438990.055 9     37992.04029        96.000
  24277543.916     2608485.439 6   1994056.04625        38.000
  23206274.151   -10137055.026 8  -8004646.09126        64.000
 96  6 10 16 48 15.0010000  0  7G 2G24G 4G27G 7G26G 9
  22351739.193     5506144.501 8   4253351.72327        76.000
  24550382.784    -3436255.588 6  -2960409.42925        36.000
  22374457.286   -10597804.369 8  -9818787.38427        80.000
  24067943.360    19552376.691 6  15125997.64025        32.000
  21242499.394      462338.362 9     56185.52229        94.000
  24283418.589     2639376.350 6   2018126.85125        36.000
  23199371.639   -10173324.653 8  -8032908.10526        64.000
 96  6 10 16 48 30.0010000  0  7G 2G24G 4G27G 7G26G 9
  22355917.910     5528101.002 8   4270460.68827        74.000
  24540813.109    -3486518.897 6  -2999575.61725        34.000
  22367414.561   -10634815.946 8  -9847627.58127        74.000
  24079396.151    19612570.092 6  15172901.58625        30.000
  21246957.098      485760.355 9     74436.40829        96.000
  24289312.389     2670335.160 6   2042250.56825        36.000
  23192486.636   -10209506.859 8  -8061102.04426        66.000
 96  6 10 16 48 45.0010000  0  7G 2G24G 4G27G 7G26G 9
  22360106.460     5550117.699 8   4287616.52727        74.000
  24531247.541    -3536761.768 6  -3038725.86725        34.000
  22360387.576   -10671738.755 8  -9876398.56627        76.000
  24090860.334    19672808.513 6  15219840.57925        30.000
  21251429.012      509254.201 9     92743.30829        96.000
  24295219.589     2701366.457 6   2066430.77125        40.000
  23185614.013   -10245603.450 8  -8089229.25226        66.000
 96  6 10 16 49  0.0010000  0  7G 2G24G 4G27G 7G26G 9
  22364305.204     5572197.983 8   4304821.93227        72.000
  24521695.134    -3586986.233 6  -3077861.82725        34.000
  22353378.518   -10708574.820 8  -9905101.98427        76.000
  24102331.683    19733090.076 6  15266813.14325        32.000
  21255912.348      532817.857 9    111104.59729        98.000
  24301141.060     2732474.818 7   2090670.98725        42.000
  23178762.916   -10281616.563 8  -8117291.41526        68.000
 96  6 10 16 49 15.0010000  0  7G 2G24G 4G27G 7G26G 9
  22368520.106     5594340.337 8   4322075.72027        72.000
  24512142.307    -3637195.642 6  -3116986.01625        34.000
  22346384.870   -10745324.767 8  -9933738.29027        74.000
  24113810.706    19793412.184 6  15313817.34425        34.000
  21260408.246      556447.839 9    129517.56429        98.000
  24307075.512     2763654.021 7   2114966.47325        42.000
  23171927.408   -10317545.285 8  -8145287.80826        72.000
 96  6 10 16 49 30.0010000  0  7G 2G24G 4G27G 7G26G 9
  22372747.060     5616546.017 8   4339378.83627        72.000
  24502592.688    -3687391.782 6  -3156099.91125        34.000
  22339409.119   -10781984.450 8  -9962304.28727        74.000
  24125298.363    19853777.727 6  15360855.41925        36.000
  21264917.934      580143.483 9    147981.69029       100.000
  24313020.006     2794901.960 6   2139315.48125        40.000
  23165105.991   -10353387.619 8  -8173216.89326        70.000
 96  6 10 16 49 45.0020000  0  7G 2G24G 4G27G 7G26G 9
  22376982.767     5638819.379 8   4356734.70827        70.000
  24493036.624    -3737580.861 6  -3195208.25125        34.000
  22332448.328   -10818555.267 8  -9990801.02927        72.000
  24136795.644    19914191.236 6  15407930.86325        38.000
  21269439.134      603907.290 9    166498.94829       102.000
  24318980.240     2826222.692 6   2163721.27625        36.000
  23158298.154   -10389147.646 8  -8201081.83526        70.000
 96  6 10 16 50  0.0020000  0  7G 2G24G 4G27G 7G26G 9
  22381236.912     5661157.630 8   4374141.12627        70.000
  24483486.675    -3787757.575 6  -3234306.95325        32.000
  22325506.394   -10855030.422 8 -10019223.21327        70.000
  24148292.985    19974640.578 6  15455034.24725        36.000
  21273975.173      627736.427 9    185067.09729       100.000
  24324954.414     2857613.788 6   2188181.78525        34.000
  23151513.521   -10424822.124 8  -8228880.11526        70.000
 96  6 10 16 50 15.0020000  0  7G 2G24G 4G27G 7G26G 9
  22385498.612     5683562.296 8   4391599.29827        70.000
  24473942.782    -3837926.730 6  -3273399.79125        32.000
  22318584.605   -10891411.760 8 -10047572.27527        72.000
  24159804.895    20035129.793 6  15502168.65525        36.000
  21278519.967      651628.299 9    203684.12729       100.000
  24330944.268     2889077.053 6   2212698.58225        34.000
  23144735.213   -10460417.772 8  -8256616.99626        68.000
 96  6 10 16 50 30.0020000  0  7G 2G24G 4G27G 7G26G 9
  22389775.301     5706034.279 8   4409109.92327        68.000
  24464399.009    -3888086.021 6  -3312484.92125        32.000
  22311681.165   -10927695.201 8 -10075845.08827        72.000
  24171321.093    20095659.323 6  15549334.50325        36.000
  21283080.950      675583.360 9    222350.40729       100.000
  24336939.337     2920613.754 6   2237272.61125        38.000
  23137980.889   -10495937.630 8  -8284294.79426        68.000
 96  6 10 16 50 45.0020000  0  7G 2G24G 4G27G 7G26G 9
  22394065.661     5728570.345 8   4426670.47327        72.000
  24454846.932    -3938235.537 6  -3351562.46625        28.000
  22304794.362   -10963881.179 8 -10104041.94527        72.000
  24182848.862    20156230.148 6  15596532.49825        38.000
  21287650.476      699602.779 9    241066.82229       100.000
  24342952.485     2952225.352 6   2261904.96025        38.000
  23131236.548   -10531383.647 8  -8311915.05226        64.000
 96  6 10 16 51  0.0020000  0  7G 2G24G 4G27G 7G26G 9
  22398363.156     5751168.127 8   4444279.13527        70.000
  24445308.105    -3988375.943 6  -3390632.89125        32.000
  22297925.487   -10999972.833 8 -10132165.29527        72.000
  24194388.803    20216839.023 6  15643760.17925        38.000
  21292235.472      723688.360 9    259834.80829       100.000
  24348986.827     2983909.918 6   2286594.26625        36.000
  23124501.831   -10566755.263 7  -8339477.34226        62.000
 96  6 10 16 51 15.0020000  0  7G 2G24G 4G27G 7G26G 9
  22402673.242     5773823.829 8   4461932.92227        68.000
  24435766.791    -4038507.137 6  -3429696.11525        32.000
  22291075.350   -11035970.570 8 -10160215.47627        74.000
  24205920.920    20277483.910 6  15691015.93525        38.000
  21296829.462      747839.484 9    278653.86229       102.000
  24355028.605     3015664.163 6   2311337.78125        34.000
  23117785.070   -10602050.992 7  -8366980.49726        62.000
 96  6 10 16 51 30.0020000  0  7G 2G24G 4G27G 7G26G 9
  22406999.157     5796535.845 8   4479630.58927        68.000
  24426243.164    -4088626.015 6  -3468749.75225        36.000
  22284247.367   -11071871.277 8 -10188190.05227        76.000
  24217471.563    20338167.849 6  15738302.08725        38.000
  21301437.542      772057.310 9    297524.89029       102.000
  24361084.262     3047487.515 6   2336135.14725        36.000
  23111082.311   -10637271.752 7  -8394425.25026        62.000
 96  6 10 16 51 45.0020000  0  7G 2G24G 4G27G 7G26G 9
  22411329.449     5819307.324 8   4497374.60227        70.000
  24416699.451    -4138729.031 6  -3507791.02725        38.000
  22277432.874   -11107673.829 8 -10216088.12727        74.000
  24229030.601    20398892.580 6  15785620.06325        38.000
  21306058.752      796342.863 9    316448.69429       100.000
  24367162.315     3079384.447 6   2360989.85125        36.000
  23104394.720   -10672418.671 7  -8421812.45626        62.000
 96  6 10 16 52  0.0020000  0  7G 2G24G 4G27G 7G26G 9
  22415668.436     5842137.186 8   4515164.08727        70.000
  24407175.104    -4188812.357 6  -3546817.02025        38.000
  22270633.731   -11143379.629 8 -10243910.80727        76.000
  24240590.718    20459656.946 6  15832968.92425        36.000
  21310696.602      820694.185 9    335423.73229        98.000
  24373239.617     3111353.200 6   2385900.58625        38.000
  23097723.709   -10707489.771 8  -8449140.57126        64.000
 96  6 10 16 52 15.0020000  0  7G 2G24G 4G27G 7G26G 9
  22420031.375     5865025.758 8   4532999.34527        70.000
  24397648.569    -4238870.332 6  -3585823.25725        40.000
  22263858.541   -11178989.834 8 -10271659.01427        76.000
  24252169.422    20520462.309 6  15880349.64825        34.000
  21315337.299      845108.971 9    354448.23229        96.000
  24379334.998     3143388.916 6   2410863.45625        40.000
  23091061.181   -10742482.668 7  -8476407.75726        62.000
 96  6 10 16 52 30.0020000  0  7G 2G24G 4G27G 7G26G 9
  22424398.632     5887971.077 8   4550878.78627        70.000
  24388132.048    -4288900.863 6  -3624808.09225        40.000
  22257097.412   -11214507.053 8 -10299334.74327        78.000
  24263744.769    20581310.081 6  15927763.41625        32.000
  21319998.922      869587.736 9    373522.60129        96.000
  24385445.907     3175488.052 6   2435875.76525        40.000
  23084418.020   -10777394.308 7  -8503611.62426        62.000
 96  6 10 16 52 45.0020000  0  7G 2G24G 4G27G 7G26G 9
  22428771.375     5910971.966 8   4568801.53227        66.000
  24378610.759    -4338903.594 6  -3663771.20625        38.000
  22250361.495   -11249931.987 8 -10326938.60127        82.000
  24275321.704    20642200.890 6  15975210.80925        28.000
  21324667.590      894132.107 9    392648.07529        96.000
  24391560.444     3207652.249 6   2460938.76725        40.000
  23077791.078   -10812221.738 8  -8530749.86726        64.000
 96  6 10 16 53  0.0020000  0  7G 2G24G 4G27G 7G26G 9
  22433162.495     5934030.072 8   4586768.91127        68.000
  24369102.931    -4388883.360 6  -3702716.47525        40.000
  22243637.540   -11285267.216 8 -10354472.54027        80.000
  24286926.850    20703132.700 6  16022690.11925        30.000
  21329352.117      918738.627 9    411821.97729        98.000
  24397692.519     3239877.869 6   2486049.58525        38.000
  23071181.613   -10846966.876 7  -8557823.99826        62.000
 96  6 10 16 53 15.0020000  0  7G 2G24G 4G27G 7G26G 9
  22437561.919     5957148.061 8   4604782.92627        72.000
  24359590.187    -4438840.334 6  -3741643.98725        36.000
  22236932.082   -11320509.690 8 -10381934.19427        80.000
  24298524.262    20764102.684 6  16070199.21025        30.000
  21334044.079      943406.142 9    431043.40929        96.000
  24403844.650     3272160.908 6   2511205.14325        38.000
  23064585.520   -10881630.879 8  -8584834.89726        64.000
 96  6 10 16 53 30.0020000  0  7G 2G24G 4G27G 7G26G 9
  22441974.025     5980326.190 8   4622843.80127        74.000
  24350088.534    -4488771.950 6  -3780551.74825        36.000
  22230240.205   -11355656.118 8 -10409321.00627        80.000
  24310133.515    20825112.919 6  16117739.69225        28.000
  21338748.872      968134.987 9    450312.62829        92.000
  24409993.603     3304503.703 6   2536407.35625        34.000
  23058006.484   -10916211.948 8  -8611781.18126        64.000
 96  6 10 16 53 45.0020000  0  7G 2G24G 4G27G 7G26G 9
  22446391.197     6003567.994 8   4640954.28827        74.000
  24340591.049    -4538676.463 6  -3819438.36625        38.000
  22223570.003   -11390707.448 8 -10436633.71427        78.000
  24321748.044    20886161.744 6  16165310.23725        30.000
  21343469.524      992924.446 9    469629.08329        92.000
  24416159.405     3336903.688 6   2561654.06125        38.000
  23051438.751   -10950707.011 8  -8638660.42627        64.000
 96  6 10 16 54  0.0020000  0  7G 2G24G 4G27G 7G26G 9
  22450827.166     6026871.903 8   4659113.15827        74.000
  24331101.329    -4588557.583 6  -3858306.78925        38.000
  22216918.148   -11425666.335 8 -10463874.38027        76.000
  24333379.872    20947245.141 6  16212907.65525        30.000
  21348197.400     1017773.346 9    488991.86429        92.000
  24422340.346     3369359.191 6   2586944.06425        40.000
  23044893.112   -10985113.369 8  -8665470.57227        64.000
 96  6 10 16 54 15.0020000  0  7G 2G24G 4G27G 7G26G 9
  22455275.037     6050234.911 8   4677318.07827        76.000
  24321615.386    -4638417.793 6  -3897158.84225        34.000
  22210283.081   -11460533.468 8 -10491043.56627        80.000
  24345008.881    21008361.396 6  16260530.56125        28.000
  21352937.959     1042682.944 9    508401.92529        96.000
  24428525.364     3401870.599 6   2612277.56325        40.000
  23038360.545   -11019430.900 8  -8692211.48727        64.000
 96  6 10 16 54 30.0020000  0  7G 2G24G 4G27G 7G26G 9
  22459730.582     6073655.592 8   4695567.95127        76.000
  24312133.880    -4688258.724 6  -3935995.89725        34.000
  22203667.321   -11495306.216 8 -10518139.21627        80.000
  24356638.250    21069508.733 6  16308177.81425        30.000
  21357688.110     1067653.632 9    527859.59029        94.000
  24434722.673     3434439.873 7   2637656.17125        42.000
  23031846.984   -11053658.811 8  -8718882.59627        64.000
 96  6 10 16 54 45.0020000  0  7G 2G24G 4G27G 7G26G 9
  22464197.220     6097130.531 8   4713860.11827        76.000
  24302646.738    -4738084.995 6  -3974821.53425        32.000
  22197070.148   -11529981.003 8 -10545158.51727        82.000
  24368289.744    21130685.397 6  16355847.94125        32.000
  21362453.881     1092683.618 9    547363.47229        96.000
  24440926.788     3467068.450 6   2663081.00125        40.000
  23025354.259   -11087799.484 8  -8745485.71727        66.000
 96  6 10 16 55  0.0020000  0  7G 2G24G 4G27G 7G26G 9
  22468679.057     6120664.189 8   4732198.02927        78.000
  24293166.011    -4787894.118 6  -4013633.84125        34.000
  22190490.753   -11564552.827 8 -10572097.59827        80.000
  24379930.206    21191892.648 6  16403541.88025        32.000
  21367225.378     1117769.485 9    566910.90729        94.000
  24447147.242     3499756.942 6   2688552.58725        36.000
  23018872.836   -11121855.587 8  -8772022.91627        68.000
 96  6 10 16 55 15.0020000  0  7G 2G24G 4G27G 7G26G 9
  22473166.051     6144255.789 8   4750581.08727        78.000
  24283692.929    -4837682.903 6  -4052430.31125        34.000
  22183929.255   -11599019.117 8 -10598954.42327        78.000
  24391592.042    21253131.502 6  16451260.49225        34.000
  21372009.436     1142911.678 9    586502.22229        94.000
  24453371.263     3532503.597 6   2714069.43825        34.000
  23012405.923   -11155826.029 8  -8798493.38327        66.000
 96  6 10 16 55 30.0020000  0  7G 2G24G 4G27G 7G26G 9
  22477666.205     6167903.485 8   4769007.85827        80.000
  24274226.653    -4887448.597 6  -4091208.70925        34.000
  22177389.043   -11633381.748 8 -10625730.49127        80.000
  24403252.050    21314402.841 6  16499004.41825        34.000
  21376805.845     1168110.975 9    606138.03529        96.000
  24459629.161     3565310.553 6   2739633.31425        32.000
  23005955.738   -11189707.056 8  -8824894.17827        64.000
 96  6 10 16 55 45.0020000  0  7G 2G24G 4G27G 7G26G 9
  22482173.855     6191606.265 8   4787477.54727        76.000
  24264763.854    -4937192.039 6  -4129969.81725        36.000
  22170873.474   -11667642.032 8 -10652426.80027        80.000
  24414906.632    21375707.295 6  16546774.06025        34.000
  21381609.510     1193365.691 9    625817.01929        98.000
  24465875.907     3598176.851 6   2765243.33725        34.000
  22999526.389   -11223497.944 8  -8851224.73627        64.000
 96  6 10 16 56  0.0020000  0  7G 2G24G 4G27G 7G26G 9
  22486696.794     6215361.829 8   4805988.35527        78.000
  24255303.633    -4986916.311 6  -4168715.98725        36.000
  22164371.395   -11701801.323 8 -10679044.41927        82.000
  24426579.411    21437043.422 6  16594568.37025        34.000
  21386428.674     1218676.280 9    645539.56129       100.000
  24472144.147     3631100.234 6   2790897.82525        36.000
  22993111.640   -11257202.122 8  -8877487.70027        64.000
 96  6 10 16 56 15.0020000  0  7G 2G24G 4G27G 7G26G 9
  22491227.317     6239166.485 8   4824537.43127        76.000
  24245835.347    -5036623.557 6  -4207448.88225        34.000
  22157892.550   -11735859.623 8 -10705583.36427        82.000
  24438257.107    21498410.982 6  16642387.20525        36.000
  21391255.242     1244042.146 9    665305.15429       100.000
  24478417.064     3664083.455 6   2816599.01125        38.000
  22986720.215   -11290824.395 8  -8903686.87227        66.000
 96  6 10 16 56 30.0020000  0  7G 2G24G 4G27G 7G26G 9
  22495764.316     6263019.662 8   4843124.33227        76.000
  24236385.769    -5086312.257 6  -4246167.37925        36.000
  22151431.393   -11769813.980 8 -10732041.29627        78.000
  24449944.336    21559812.438 6  16690232.52825        36.000
  21396092.513     1269462.516 9    685113.23129       100.000
  24484710.997     3697125.100 6   2842345.72525        38.000
  22980332.447   -11324365.671 8  -8929822.93127        66.000
 96  6 10 16 56 45.0020000  0  7G 2G24G 4G27G 7G26G 9
  22500315.046     6286923.725 8   4861750.85427        76.000
  24226928.456    -5135982.756 6  -4284871.63925        36.000
  22144987.474   -11803664.512 8 -10758418.31527        76.000
  24461634.233    21621248.556 6  16738104.81125        34.000
  21400938.509     1294938.035 9    704964.27729       100.000
  24491008.198     3730222.305 6   2868135.77125        38.000
  22973966.744   -11357827.542 8  -8955897.14327        66.000
 96  6 10 16 57  0.0020000  0  7G 2G24G 4G27G 7G26G 9
  22504872.611     6310880.232 8   4880418.25127        76.000
  24217483.795    -5185634.818 6  -4323561.52625        32.000
  22138567.269   -11837412.559 8 -10784715.46228        78.000
  24473332.315    21682721.601 6  16786005.85825        32.000
  21405795.806     1320471.837 9    724860.74929        98.000
  24497315.981     3763374.620 6   2893968.73425        34.000
  22967614.561   -11391210.280 8  -8981909.64826        68.000
 96  6 10 16 57 15.0020000  0  7G 2G24G 4G27G 7G26G 9
  22509442.287     6334889.745 8   4899126.95227        74.000
  24208035.236    -5235267.920 6  -4362236.65425        36.000
  22132160.314   -11871061.405 8 -10810935.33128        78.000
  24485039.060    21744228.153 6  16833933.03525        32.000
  21410666.864     1346065.542 9    744803.88829        98.000
  24503635.936     3796579.304 6   2919842.59225        36.000
  22961279.827   -11424510.541 8  -9007857.89027        68.000
 96  6 10 16 57 30.0020000  0  7G 2G24G 4G27G 7G26G 9
  22514023.356     6358951.365 8   4917876.26127        74.000
  24198590.364    -5284881.861 6  -4400896.83025        36.000
  22125778.812   -11904612.692 8 -10837079.18527        82.000
  24496751.862    21805766.022 6  16881884.58825        30.000
  21415549.943     1371722.617 9    764796.39829       100.000
  24509963.925     3829836.438 6   2945757.13924        34.000
  22954957.833   -11457725.888 8  -9033739.94827        66.000
 96  6 10 16 57 45.0020000  0  7G 2G24G 4G27G 7G26G 9
  22518610.930     6383067.251 8   4936667.84127        72.000
  24189158.924    -5334476.809 6  -4439542.22925        36.000
  22119413.409   -11938065.255 8 -10863146.10928        80.000
  24508464.633    21867335.326 6  16929860.63125        30.000
  21420445.344     1397444.933 9    784839.75729        98.000
  24516308.193     3863147.762 6   2971713.95224        34.000
  22948654.037   -11490856.627 8  -9059556.11226        66.000
 96  6 10 16 58  0.0020000  0  7G 2G24G 4G27G 7G26G 9
  22523209.536     6407237.272 8   4955501.61527        72.000
  24179720.528    -5384051.006 6  -4478171.45025        36.000
  22113069.351   -11971413.175 8 -10889131.49328        82.000
  24520189.756    21928936.938 6  16977861.83825        26.000
  21425353.786     1423233.519 9    804934.75329       100.000
  24522646.675     3896515.230 6   2997714.56725        38.000
  22942363.133   -11523904.038 8  -9085307.35326        64.000
 96  6 10 16 58 15.0020000  0  7G 2G24G 4G27G 7G26G 9
  22527819.085     6431463.514 8   4974379.20727        74.000
  24170297.601    -5433602.639 6  -4516783.10025        36.000
  22106742.231   -12004655.889 8 -10915034.89328        82.000
  24531914.489    21990572.017 6  17025889.13925        26.000
  21430271.042     1449087.688 9    825080.84529        98.000
  24529009.020     3929942.336 6   3023761.64825        38.000
  22936088.836   -11556869.566 8  -9110994.75726        66.000
 96  6 10 16 58 30.0020000  0  7G 2G24G 4G27G 7G26G 9
  22532445.273     6455746.485 8   4993300.98927        74.000
  24160876.623    -5483127.495 6  -4555373.89725        40.000
  22100434.897   -12037790.224 8 -10940853.82528        80.000
  24543642.190    22052241.551 6  17073943.27425        26.000
  21435204.127     1475006.773 9    845277.53229        98.000
  24535384.617     3963427.162 6   3049853.70625        38.000
  22929835.375   -11589749.575 8  -9136615.53826        66.000
 96  6 10 16 58 45.0020000  0  7G 2G24G 4G27G 7G26G 9
  22537073.978     6480090.026 8   5012269.97627        70.000
  24151453.517    -5532622.281 6  -4593941.23125        40.000
  22094151.787   -12070815.999 8 -10966588.17028        82.000
  24555385.061    22113945.278 6  17122024.06325        26.000
  21440152.261     1500992.053 9    865525.78729        98.000
  24541763.121     3996965.527 6   3075987.44725        36.000
  22923594.446   -11622542.405 8  -9162168.37626        66.000
 96  6 10 16 59  0.0020000  0  7G 2G24G 4G27G 7G26G 9
  22541720.672     6504496.513 8   5031288.01827        70.000
  24142036.616    -5582083.198 6  -4632482.18325        40.000
  22087887.893   -12103733.409 8 -10992238.08428        82.000
  24567141.452    22175681.956 6  17170130.57425        26.000
  21445107.951     1527042.833 9    885825.10229        96.000
  24548159.883     4030559.452 6   3102164.50325        32.000
  22917368.026   -11655245.684 8  -9187651.43826        64.000
 96  6 10 16 59 15.0020000  0  7G 2G24G 4G27G 7G26G 9
  22546371.981     6528965.173 8   5050354.47327        68.000
  24132634.765    -5631508.044 6  -4670995.00725        40.000
  22081642.527   -12136541.960 8 -11017803.19628        82.000
  24578895.924    22237448.189 6  17218260.02825        28.000
  21450076.801     1553153.352 9    906170.93929        96.000
  24554558.833     4064207.883 6   3128384.01125        32.000
  22911164.391   -11687860.547 8  -9213065.63426        66.000
 96  6 10 16 59 30.0020000  0  6G 2G24G 4G 7G26G 9
  22551042.448     6553497.305 8   5069470.40827        68.000
  24123234.202    -5680894.263 6  -4709477.78825        34.000
  22075420.934   -12169240.352 8 -11043282.45527        82.000
  21455055.574     1579321.232 9    926561.50129        96.000
  24560974.991     4097912.236 6   3154647.17625        32.000
  22904970.229   -11720386.764 8  -9238410.73526        68.000
 96  6 10 16 59 45.0020000  0  6G 2G24G 4G 7G26G 9
  22555719.840     6578091.125 8   5088634.42627        68.000
  24113848.510    -5730243.523 6  -4747931.73925        34.000
  22069220.776   -12201830.718 9 -11068677.52228        84.000
  21460044.091     1605544.614 9    946995.29129        96.000
  24567395.346     4131674.926 6   3180955.74325        28.000
  22898800.980   -11752826.946 8  -9263688.80526        68.000
 96  6 10 17  0  0.0020000  0  6G 2G24G 4G 7G26G 9
  22560416.928     6602746.667 8   5107846.53627        68.000
  24104466.685    -5779556.969 6  -4786357.76225        38.000
  22063038.996   -12234310.690 8 -11093986.57628        82.000
  21465046.008     1631821.897 9    967471.08029        98.000
  24573831.590     4165495.781 6   3207309.59225        28.000
  22892643.153   -11785179.179 8  -9288898.32126        68.000
 96  6 10 17  0 15.0020000  0  6G 2G24G 4G 7G26G 9
  22565119.713     6627466.755 8   5127108.93527        70.000
  24095094.573    -5828831.193 7  -4824753.23225        42.000
  22056879.040   -12266680.860 9 -11119210.06528        84.000
  21470056.169     1658154.323 9    987989.84329        94.000
  24580280.636     4199372.910 6   3233707.33625        28.000
  22886506.941   -11817439.425 8  -9314036.17526        66.000
 96  6 10 17  0 30.0020000  0  6G 2G24G 4G 7G26G 9
  22569831.101     6652251.227 8   5146421.48627        68.000
  24085717.725    -5878067.360 7  -4863119.07725        44.000
  22050734.674   -12298944.270 8 -11144350.36528        82.000
  21475077.963     1684539.288 9   1008549.55829        94.000
  24586740.774     4233300.455 6   3260144.31925        32.000
  22880383.500   -11849604.737 8  -9339100.03926        66.000
 96  6 10 17  0 45.0020000  0  6G 2G24G 4G 7G26G 9
  22574560.057     6677099.468 8   5165783.73727        66.000
  24076351.099    -5927267.866 7  -4901457.12325        42.000
  22044621.006   -12331100.670 9 -11169407.28828        84.000
  21480111.928     1710976.304 9   1029149.81829        96.000
  24593205.318     4267274.597 6   3286617.72425        30.000
  22874282.754   -11881673.970 8  -9364089.03026        68.000
 96  6 10 17  1  0.0020000  0  6G 2G24G 4G 7G26G 9
  22579299.836     6702012.142 8   5185196.19426        64.000
  24066999.733    -5976437.052 7  -4939770.77625        42.000
  22038525.027   -12363150.976 9 -11194381.54728        86.000
  21485147.152     1737462.117 9   1049788.09429        96.000
  24599682.124     4301298.121 6   3313129.51525        32.000
  22868198.616   -11913648.109 8  -9389003.94926        68.000
 96  6 10 17  1 15.0020000  0  6G 2G24G 4G 7G26G 9
  22584054.215     6726987.650 8   5204657.61626        64.000
  24057645.429    -6025576.311 7  -4978061.05825        42.000
  22032440.289   -12395094.147 9 -11219272.32428        84.000
  21490199.015     1763995.376 9   1070463.36029        98.000
  24606162.018     4335372.821 6   3339681.22425        32.000
  22862128.658   -11945526.814 8  -9413844.48226        68.000
 96  6 10 17  1 30.0020000  0  6G 2G24G 4G 7G26G 9
  22588819.176     6752025.454 8   5224167.58026        66.000
  24048302.756    -6074687.399 6  -5016329.40625        40.000
  22026386.130   -12426930.556 9 -11244079.89528        86.000
  21495258.043     1790578.309 9   1091177.32429       100.000
  24612655.883     4369497.409 6   3366271.78925        32.000
  22856084.062   -11977308.958 8  -9438609.80126        70.000
 96  6 10 17  1 45.0020000  0  6G 2G24G 4G 7G26G 9
  22593597.238     6777127.207 8   5243727.37926        66.000
  24038959.904    -6123771.566 6  -5054576.78425        40.000
  22020343.274   -12458661.947 9 -11268805.63428        86.000
  21500324.505     1817213.806 9   1111932.25129        98.000
  24619164.137     4403671.399 6   3392900.83025        32.000
  22850053.227   -12008991.716 8  -9463297.65126        66.000
 96  6 10 17  2  0.0020000  0  6G 2G24G 4G 7G26G 9
  22598385.643     6802292.602 8   5263336.76226        68.000
  24029623.468    -6172830.127 6  -5092804.22525        38.000
  22014327.009   -12490285.587 9 -11293447.42328        86.000
  21505406.857     1843902.513 9   1132728.63229        98.000
  24625672.452     4437892.565 6   3419566.60925        32.000
  22844044.697   -12040573.770 8  -9487907.02527        68.000
 96  6 10 17  2 15.0020000  0  6G 2G24G 4G 7G26G 9
  22603186.070     6827521.492 8   5282995.62226        66.000
  24020299.233    -6221862.616 7  -5131011.31925        42.000
  22008331.879   -12521799.931 9 -11318004.04928        86.000
  21510492.086     1870642.925 9   1153565.31629        98.000
  24632194.646     4472157.237 6   3446266.32525        32.000
  22838053.375   -12072055.744 8  -9512438.43727        70.000
 96  6 10 17  2 30.0020000  0  6G 2G24G 4G 7G26G 9
  22608001.576     6852816.275 8   5302705.82226        66.000
  24010969.632    -6270864.604 7  -5169194.66025        42.000
  22002354.227   -12553203.310 9 -11342474.19628        86.000
  21515589.817     1897436.325 9   1174443.28229        98.000
  24638727.604     4506469.058 6   3473002.80425        32.000
  22832082.588   -12103435.838 8  -9536890.43927        72.000
 96  6 10 17  2 45.0020000  0  6G 2G24G 4G 7G26G 9
  22612826.706     6878175.861 8   5322466.51926        64.000
  24001653.461    -6319838.309 7  -5207355.96725        44.000
  21996400.409   -12584494.006 9 -11366856.54828        86.000
  21520700.589     1924284.877 9   1195364.22829        98.000
  24645261.131     4540831.196 6   3499778.43525        32.000
  22826131.978   -12134717.353 8  -9561265.61927        72.000
 96  6 10 17  3  0.0020000  0  6G 2G24G 4G 7G26G 9
  22617661.849     6903600.878 8   5342278.22226        66.000
  23992338.939    -6368782.840 7  -5245494.52425        44.000
  21990467.666   -12615671.834 9 -11391150.93928        86.000
  21525820.624     1951191.472 9   1216330.41129        96.000
  24651812.675     4575248.632 6   3526597.19825        32.000
  22820194.738   -12165901.914 8  -9585565.30127        70.000
 96  6 10 17  3 15.0020000  0  6G 2G24G 4G 7G26G 9
  22622515.428     6929091.210 8   5362140.82126        68.000
  23983027.745    -6417695.138 7  -5283607.98725        46.000
  21984556.029   -12646739.808 9 -11415359.74628        86.000
  21530951.482     1978160.597 9   1237345.31229        96.000
  24658368.357     4609720.972 6   3553458.74225        34.000
  22814278.244   -12196989.208 8  -9609789.13327        72.000
 96  6 10 17  3 30.0020000  0  6G 2G24G 4G 7G26G 9
  22627378.122     6954646.537 8   5382054.04826        68.000
  23973727.794    -6466573.487 7  -5321695.01325        44.000
  21978663.818   -12677699.497 9 -11439484.17128        86.000
  21536095.261     2005192.695 9   1258409.26729        94.000
  24664933.152     4644244.639 6   3580360.28425        34.000
  22808383.575   -12227979.713 8  -9633937.57927        74.000
 96  6 10 17  3 45.0020000  0  6G 2G24G 4G 7G26G 9
  22632255.296     6980268.114 8   5402018.90026        70.000
  23964430.450    -6515415.325 7  -5359753.54425        46.000
  21972795.800   -12708549.497 9 -11463523.11628        84.000
  21541254.480     2032291.148 9   1279524.93829        94.000
  24671513.657     4678822.612 6   3607304.13825        32.000
  22802506.443   -12258870.619 8  -9658008.41827        74.000
 96  6 10 17  4  0.0020000  0  6G 2G24G 4G 7G26G 9
  22637140.774     7005952.769 8   5422032.89826        68.000
  23955147.646    -6564219.683 7  -5397782.89025        48.000
  21966942.562   -12739288.822 9 -11487475.81328        84.000
  21546424.011     2059453.589 9   1300690.47429        92.000
  24678103.484     4713455.572 6   3634290.85325        34.000
  22796642.473   -12289664.110 8  -9682003.34327        72.000
 96  6 10 17  4 15.0020000  0  6G 2G24G 4G 7G26G 9
  22642039.382     7031697.722 8   5442093.88826        68.000
  23945863.733    -6612984.598 7  -5435781.48625        46.000
  21961116.276   -12769914.970 9 -11511340.34028        84.000
  21551602.986     2086678.410 9   1321904.61729        92.000
  24684715.287     4748144.502 6   3661321.15725        36.000
  22790802.036   -12320361.664 8  -9705923.52127        68.000
 96  6 10 17  4 30.0020000  0  6G 2G24G 4G 7G26G 9
  22646952.981     7057504.041 8   5462202.69026        70.000
  23936591.303    -6661708.598 7  -5473748.23425        42.000
  21955308.756   -12800429.431 9 -11535117.82228        86.000
  21556792.573     2113962.979 9   1343165.31029        92.000
  24691324.752     4782888.241 6   3688394.15225        34.000
  22784977.099   -12350963.183 8  -9729768.84227        68.000
 96  6 10 17  4 45.0020000  0  6G 2G24G 4G 7G26G 9
  22651875.663     7083375.201 8   5482362.01326        70.000
  23927332.213    -6710389.299 6  -5511681.22625        40.000
  21949523.721   -12830830.354 9 -11558806.85628        86.000
  21561995.651     2141310.259 9   1364474.87129        90.000
  24697942.640     4817690.432 6   3715512.70725        32.000
  22779177.014   -12381465.823 8  -9753537.11527        72.000
 96  6 10 17  5  0.0020000  0  6G 2G24G 4G 7G26G 9
  22656810.157     7109308.017 8   5502569.42526        70.000
  23918073.362    -6759031.554 7  -5549584.25125        42.000
  21943760.631   -12861121.521 9 -11582410.35128        84.000
  21567214.798     2168715.248 9   1385829.40729        92.000
  24704575.398     4852546.408 6   3742673.17625        34.000
  22773387.182   -12411874.524 8  -9777232.19527        70.000
 96  6 10 17  5 15.0020000  0  6G 2G24G 4G 7G26G 9
  22661756.103     7135301.923 8   5522824.40126        74.000
  23908826.054    -6807633.562 7  -5587455.93225        42.000
  21938019.425   -12891303.726 9 -11605928.92628        84.000
  21572437.542     2196174.271 9   1407226.03729        92.000
  24711220.928     4887453.733 6   3769873.66925        36.000
  22767620.734   -12442186.871 8  -9800852.18027        68.000
 96  6 10 17  5 30.0020000  0  6G 2G24G 4G 7G26G 9
  22666716.109     7161355.656 8   5543126.00326        72.000
  23899586.990    -6856196.089 7  -5625296.81525        42.000
  21932294.558   -12921374.910 9 -11629361.01128        84.000
  21577675.846     2223681.878 9   1428660.53429        92.000
  24717867.806     4922409.778 6   3797112.15725        30.000
  22761872.004   -12472404.312 8  -9824398.24927        72.000
 96  6 10 17  5 45.0020000  0  6G 2G24G 4G 7G26G 9
  22671682.381     7187467.902 8   5563473.19526        70.000
  23890351.764    -6904719.147 7  -5663106.94325        44.000
  21926595.264   -12951332.245 9 -11652704.39228        84.000
  21582915.259     2251235.085 9   1450130.55829        92.000
  24724530.454     4957417.468 6   3824390.88825        28.000
  22756137.274   -12502524.855 8  -9847868.80027        70.000
 96  6 10 17  6  0.0020000  0  6G 2G24G 4G 7G26G 9
  22676664.092     7213639.151 8   5583866.35426        72.000
  23881125.681    -6953203.694 7  -5700887.09525        44.000
  21920914.886   -12981173.302 8 -11675957.15228        82.000
  21588168.132     2278833.754 9   1471636.01229        92.000
  24731203.474     4992477.275 6   3851710.18025        30.000
  22750423.709   -12532547.183 8  -9871262.80527        72.000
 96  6 10 17  6 15.0020000  0  6G 2G24G 4G 7G26G 9
  22681655.756     7239871.152 8   5604306.86526        74.000
  23871905.204    -7001652.989 7  -5738639.77325        46.000
  21915256.664   -13010897.283 9 -11699118.68028        84.000
  21593429.190     2306476.546 9   1493175.84029        92.000
  24737892.533     5027586.168 6   3879067.71425        30.000
  22744730.890   -12562471.231 8  -9894580.24027        72.000
 96  6 10 17  6 30.0020000  0  6G 2G24G 4G 7G26G 9
  22686656.804     7266164.755 8   5624795.38526        72.000
  23862695.879    -7050069.619 7  -5776367.01725        48.000
  21909623.413   -13040504.574 8 -11722189.30228        82.000
  21598696.544     2334164.538 9   1514750.88529        94.000
  24744574.218     5062740.139 6   3906460.37425        30.000
  22739052.072   -12592298.534 8  -9917822.28727        72.000
 96  6 10 17  6 45.0020000  0  6G 2G24G 4G 7G26G 9
  22691671.373     7292520.859 8   5645332.61826        70.000
  23853486.975    -7098454.289 7  -5814069.33625        44.000
  21904012.048   -13069996.783 9 -11745170.22528        84.000
  21603976.968     2361902.133 9   1536364.60029        96.000
  24751283.663     5097938.564 6   3933887.70925        34.000
  22733399.455   -12622026.691 8  -9940987.07427        72.000
 96  6 10 17  7  0.0020000  0  6G 2G24G 4G 7G26G 9
  22696702.070     7318937.983 8   5665917.38526        70.000
  23844281.877    -7146806.549 7  -5851746.41925        42.000
  21898426.944   -13099371.439 9 -11768059.53928        86.000
  21609263.088     2389693.472 9   1558020.18229        96.000
  24757978.058     5133181.874 6   3961350.03925        32.000
  22727758.260   -12651657.403 8  -9964075.92727        72.000
 96  6 10 17  7 15.0020000  0  6G 2G24G 4G 7G26G 9
  22701738.074     7345414.460 8   5686548.40226        70.000
  23835087.482    -7195124.838 7  -5889397.02325        42.000
  21892857.520   -13128627.604 9 -11790856.53928        86.000
  21614563.029     2417538.705 9   1579717.75629        96.000
  24764693.439     5168468.131 6   3988845.82025        30.000
  22722140.420   -12681189.003 8  -9987087.55227        74.000
 96  6 10 17  7 30.0020000  0  6G 2G24G 4G 7G26G 9
  22706787.178     7371950.619 8   5707225.90526        68.000
  23825900.402    -7243406.456 7  -5927019.01325        44.000
  21887311.000   -13157761.477 9 -11813558.28828        86.000
  21619871.514     2445438.754 9   1601458.04729        94.000
  24771425.429     5203796.609 6   4016374.46725        34.000
  22716538.228   -12710618.023 8 -10010019.23127        72.000
 96  6 10 17  7 45.0020000  0  6G 2G24G 4G 7G26G 9
  22711848.724     7398548.804 8   5727951.74526        68.000
  23816715.061    -7291650.639 7  -5964611.84325        46.000
  21881790.682   -13186771.953 9 -11836163.84828        84.000
  21625193.160     2473394.491 9   1623241.73429        98.000
  24778147.076     5239166.888 6   4043935.67625        30.000
  22710961.369   -12739941.964 8 -10032869.04727        74.000
 96  6 10 17  8  0.0020000  0  6G 2G24G 4G 7G26G 9
  22716928.348     7425208.496 8   5748725.51126        70.000
  23807549.267    -7339858.860 7  -6002176.66825        44.000
  21876292.338   -13215661.726 9 -11858675.34128        86.000
  21630520.892     2501406.688 9   1645069.41329        96.000
  24784882.363     5274575.384 6   4071526.61924        28.000
  22705399.289   -12769163.368 8 -10055638.97127        74.000
 96  6 10 17  8 15.0020000  0  6G 2G24G 4G 7G26G 9
  22722006.442     7451929.823 8   5769547.31826        70.000
  23798381.853    -7388030.326 7  -6039712.87525        46.000
  21870818.547   -13244432.579 9 -11881094.17428        86.000
  21635863.793     2529473.454 9   1666939.62029        98.000
  24791632.250     5310019.096 6   4099145.10624        28.000
  22699860.653   -12798283.689 8 -10078330.11827        78.000
 96  6 10 17  8 30.0020000  0  6G 2G24G 4G 7G26G 9
  22727102.644     7478711.443 8   5790416.11126        68.000
  23789222.264    -7436159.269 7  -6077215.95325        44.000
  21865365.952   -13273085.608 9 -11903421.18928        88.000
  21641216.108     2557594.179 9   1688851.86129        96.000
  24798390.082     5345496.798 6   4126790.09124        28.000
  22694336.498   -12827305.293 8 -10100944.35027        76.000
 96  6 10 17  8 45.0020000  0  6G 2G24G 4G 7G26G 9
  22732214.106     7505555.038 8   5811333.16426        68.000
  23780069.810    -7484239.648 7  -6114681.16125        42.000
  21859938.150   -13301620.831 9 -11925656.43828        90.000
  21646573.759     2585769.277 9   1710806.48529        94.000
  24805138.470     5381009.068 6   4154461.99424        26.000
  22688834.886   -12856223.517 8 -10123478.03327        78.000
 96  6 10 17  9  0.0020000  0  6G 2G24G 4G 7G26G 9
  22737330.514     7532460.693 8   5832298.61726        68.000
  23770933.665    -7532270.719 7  -6152107.94825        44.000
  21854528.815   -13330039.707 9 -11947801.02428        88.000
  21651949.158     2613994.097 9   1732799.84029        94.000
  24811900.199     5416556.961 6   4182161.62924        28.000
  22683349.584   -12885037.632 8 -10145930.58127        78.000
 96  6 10 17  9 15.0020000  0  6G 2G24G 4G 7G26G 9
  22742467.937     7559428.108 8   5853312.17926        70.000
  23761798.869    -7580250.566 7  -6189494.76625        46.000
  21849142.204   -13358341.577 9 -11969854.41528        86.000
  21657328.154     2642263.780 9   1754828.16529        94.000
  24818675.239     5452141.257 6   4209889.60124        28.000
  22677885.776   -12913749.028 8 -10168303.10727        78.000
 96  6 10 17  9 30.0020000  0  6G 2G24G 4G 7G26G 9
  22747611.057     7586461.296 8   5874376.96626        68.000
  23752683.200    -7628178.726 7  -6226841.41825        48.000
  21843780.595   -13386525.387 9 -11991815.83428        86.000
  21662714.315     2670577.129 9   1776890.50329        94.000
  24825453.846     5487764.999 6   4237648.23824        26.000
  22672440.856   -12942353.623 8 -10190592.38827        78.000
 96  6 10 17  9 45.0020000  0  6G 2G24G 4G 7G26G 9
  22752766.048     7613560.725 8   5895493.40626        64.000
  23743573.736    -7676056.809 7  -6264148.99625        48.000
  21838439.193   -13414591.915 9 -12013685.81928        88.000
  21668110.070     2698934.731 9   1798987.35229        94.000
  24832237.969     5523429.091 6   4265438.49424        28.000
  22667015.841   -12970853.928 8 -10212800.39727        78.000
 96  6 10 17 10  0.0020000  0  6G 2G24G 4G 7G26G 9
  22757934.770     7640726.236 7   5916661.33726        62.000
  23734467.450    -7723885.728 7  -6301418.24625        44.000
  21833121.265   -13442543.638 9 -12035466.38728        88.000
  21673515.388     2727338.247 9   1821119.95029        94.000
  24839041.579     5559134.777 6   4293261.10924        28.000
  22661617.119   -12999251.580 8 -10234928.44327        82.000
 96  6 10 17 10 15.0020000  0  6G 2G24G 4G 7G26G 9
  22763114.434     7667957.408 7   5937880.40226        62.000
  23725381.011    -7771665.496 7  -6338649.22125        44.000
  21827823.392   -13470380.153 9 -12057157.16728        88.000
  21678930.928     2755788.608 9   1843289.05829        92.000
  24845833.617     5594883.360 6   4321117.14524        26.000
  22656229.729   -13027547.710 8 -10256977.37027        80.000
 96  6 10 17 10 30.0020000  0  6G 2G24G 4G 7G26G 9
  22768309.118     7695249.951 8   5959147.32226        64.000
  23716295.740    -7819395.795 7  -6375841.60625        44.000
  21822549.293   -13498100.252 9 -12078757.24928        88.000
  21684354.474     2784286.534 9   1865495.23929        92.000
  24852657.163     5630675.470 6   4349007.10424        24.000
  22650864.103   -13055743.142 8 -10278947.84527        80.000
 96  6 10 17 10 45.0020000  0  6G 2G24G 4G 7G26G 9
  22773518.012     7722606.246 8   5980463.90026        66.000
  23707222.341    -7867079.655 7  -6412997.87025        44.000
  21817296.300   -13525701.600 9 -12100264.78928        88.000
  21689787.193     2812835.346 9   1887741.05329        92.000
  24859469.557     5666512.794 5   4376932.18324        20.000
  22645519.973   -13083837.344 8 -10300839.41927        82.000
 96  6 10 17 11  0.0020000  0  6G 2G24G 4G 7G26G 9
  22778735.959     7750027.604 8   6001831.17726        66.000
  23698154.339    -7914721.802 7  -6450121.60825        44.000
  21812066.630   -13553183.112 9 -12121678.94928        88.000
  21695228.126     2841437.254 9   1910028.25529        90.000
  24866299.699     5702398.200 5   4404894.75924        18.000
  22640190.352   -13111830.946 8 -10322652.60927        80.000
 96  6 10 17 11 15.0020000  0  6G 2G24G 4G 7G26G 9
  22783961.612     7777510.253 8   6023246.18626        68.000
  23689096.380    -7962325.784 7  -6487215.59125        46.000
  21806860.974   -13580544.565 9 -12142999.54729        88.000
  21700681.771     2870092.122 9   1932356.71329        90.000
  24873122.346     5738331.088 5   4432894.43724        16.000
  22634883.067   -13139728.978 8 -10344391.32227        78.000
 96  6 10 17 11 30.0020000  0  6G 2G24G 4G 7G26G 9
  22789209.449     7805056.865 8   6044711.08226        68.000
  23680038.331    -8009891.489 7  -6524279.73525        46.000
  21801674.325   -13607783.184 9 -12164224.43829        84.000
  21706146.897     2898804.541 9   1954730.01529        90.000
  24879992.270     5774310.986 5   4460930.66424        20.000
  22629593.109   -13167528.944 8 -10366053.63427        80.000
 96  6 10 17 11 45.0020000  0  6G 2G24G 4G 7G26G 9
  22794457.346     7832665.215 7   6066224.07226        62.000
  23670997.939    -8057420.925 7  -6561315.65725        46.000
  21796514.507   -13634901.692 8 -12185355.73129        82.000
  21711619.788     2927575.430 9   1977148.89129        88.000
  24886839.559     5810333.496 6   4489000.15024        22.000
  22624320.299   -13195230.221 8 -10387639.02727        80.000
 96  6 10 17 12  0.0020000  0  6G 2G24G 4G 7G26G 9
  22799724.819     7860332.016 7   6087782.61626        62.000
  23661957.668    -8104912.709 7  -6598322.21525        48.000
  21791373.696   -13661900.312 9 -12206393.60529        84.000
  21717104.401     2956403.231 9   1999612.09829        86.000
  24893701.779     5846396.168 6   4517100.88523        26.000
  22619069.524   -13222834.299 8 -10409148.68727        78.000
 96  6 10 17 12 15.0020000  0  6G 2G24G 4G 7G26G 9
  22805000.117     7888057.446 7   6109386.82526        62.000
  23652931.816    -8152363.839 7  -6635297.10825        50.000
  21786261.365   -13688778.742 9 -12227337.82929        84.000
  21722602.775     2985286.595 9   2022118.61029        90.000
  24900570.504     5882496.182 6   4545230.67623        26.000
  22613833.199   -13250339.269 8 -10430581.13427        78.000
 96  6 10 17 12 30.0020000  0  6G 2G24G 4G 7G26G 9
  22810285.638     7915841.582 7   6131036.79026        62.000
  23643910.701    -8199772.348 7  -6672238.77925        50.000
  21781171.938   -13715533.676 9 -12248185.83329        84.000
  21728110.832     3014226.185 9   2044668.93029        90.000
  24907450.411     5918632.973 6   4573389.23323        28.000
  22608619.928   -13277743.153 8 -10451934.80727        78.000
 96  6 10 17 12 45.0020000  0  6G 2G24G 4G 7G26G 9
  22815588.187     7943689.040 7   6152736.07826        62.000
  23634898.790    -8247136.594 7  -6709145.92825        50.000
  21776104.037   -13742162.311 9 -12268935.39629        84.000
  21733626.114     3043222.427 9   2067263.39829        90.000
  24914330.528     5954807.748 6   4601577.36023        30.000
  22603420.148   -13305040.589 8 -10473205.51227        74.000
 96  6 10 17 13  0.0020000  0  6G 2G24G 4G 7G26G 9
  22820899.010     7971604.041 8   6174487.99726        64.000
  23625890.626    -8294456.520 7  -6746018.61125        48.000
  21771060.508   -13768665.328 9 -12289587.08629        84.000
  21739155.786     3072270.617 9   2089898.34129        92.000
  24921215.771     5991017.131 6   4629792.47823        26.000
  22598247.469   -13332229.351 8 -10494391.55127        76.000
 96  6 10 17 13 15.0020000  0  6G 2G24G 4G 7G26G 9
  22826222.935     7999584.365 8   6196290.84326        66.000
  23616894.394    -8341727.357 7  -6782852.98625        50.000
  21766040.094   -13795042.274 9 -12310140.53429        84.000
  21744692.473     3101367.540 9   2112571.27129        92.000
  24928120.172     6027258.218 6   4658032.29223        24.000
  22593099.373   -13359306.339 8 -10515490.50727        76.000
 96  6 10 17 13 30.0020000  0  6G 2G24G 4G 7G26G 9
  22831560.889     8027631.847 8   6218146.03026        66.000
  23607910.094    -8388946.591 7  -6819647.19025        50.000
  21761046.931   -13821292.005 9 -12330594.86329        84.000
  21750238.753     3130511.418 9   2135280.78329        92.000
  24935016.537     6063529.756 6   4686295.80023        26.000
  22587965.817   -13386268.144 8 -10536499.70027        72.000
 96  6 10 17 13 45.0020000  0  6G 2G24G 4G 7G26G 9
  22836908.437     8055746.707 8   6240053.70326        64.000
  23598934.847    -8436110.587 7  -6856398.35425        50.000
  21756073.074   -13847415.806 9 -12350951.07129        84.000
  21755791.989     3159700.602 9   2158025.58429        92.000
  24941934.578     6099831.034 6   4714582.40723        28.000
  22582857.983   -13413112.329 8 -10557417.23627        74.000
 96  6 10 17 14  0.0020000  0  6G 2G24G 4G 7G26G 9
  22842271.694     8083928.130 8   6262013.22326        64.000
  23589973.901    -8483216.073 7  -6893103.88025        52.000
  21751127.158   -13873413.258 9 -12371208.80929        84.000
  21761353.379     3188931.552 9   2180802.95129        92.000
  24948849.831     6136165.522 6   4742894.92224        28.000
  22577769.455   -13439840.843 8 -10578244.63927        72.000
 96  6 10 17 14 15.0020000  0  6G 2G24G 4G 7G26G 9
  22847647.063     8112179.882 8   6284027.54726        64.000
  23581022.758    -8530260.613 7  -6929761.94425        50.000
  21746205.435   -13899281.249 9 -12391365.68129        86.000
  21766927.330     3218204.153 9   2203612.75929        94.000
  24955766.283     6172533.626 6   4771233.70324        28.000
  22572710.218   -13466452.508 8 -10598980.98127        74.000
 96  6 10 17 14 30.0020000  0  6G 2G24G 4G 7G26G 9
  22853039.460     8140505.903 8   6306099.75826        64.000
  23572081.358    -8577244.507 7  -6966372.73525        50.000
  21741309.495   -13925018.023 9 -12411420.30229        88.000
  21772502.690     3247520.921 9   2226456.97929        92.000
  24962685.882     6208939.081 6   4799601.56225        26.000
  22567666.899   -13492945.383 8 -10619624.76927        76.000
 96  6 10 17 14 45.0020000  0  6G 2G24G 4G 7G26G 9
  22858443.939     8168905.635 8   6328229.40826        64.000
  23563150.600    -8624170.654 7  -7002938.53925        50.000
  21736432.621   -13950623.768 9 -12431372.82229        86.000
  21778089.892     3276882.185 9   2249335.87729        90.000
  24969625.958     6245383.175 6   4827999.53525        28.000
  22562647.324   -13519321.009 8 -10640177.20827        78.000
 96  6 10 17 15  0.0020000  0  6G 2G24G 4G 7G26G 9
  22863863.467     8197378.876 8   6350416.34826        64.000
  23554229.047    -8671040.018 7  -7039460.11025        50.000
  21731586.895   -13976099.816 9 -12451224.26929        88.000
  21783686.148     3306285.247 9   2272247.34729        92.000
  24976571.100     6281862.169 6   4856424.61525        28.000
  22557648.465   -13545582.800 8 -10660640.92927        80.000
 96  6 10 17 15 15.0020000  0  6G 2G24G 4G 7G26G 9
  22869293.907     8225921.564 8   6372657.39526        66.000
  23545322.452    -8717850.687 7  -7075935.92925        52.000
  21726762.485   -14001448.571 9 -12470976.54529        90.000
  21789289.209     3335731.770 9   2295192.69329        92.000
  24983517.381     6318376.026 6   4884876.96225        28.000
  22552675.178   -13571732.529 8 -10681017.33427        82.000
 96  6 10 17 15 30.0020000  0  6G 2G24G 4G 7G26G 9
  22874740.117     8254528.663 8   6394948.61126        68.000
  23536421.494    -8764607.681 7  -7112369.95725        50.000
  21721965.506   -14026673.161 9 -12490632.06329        88.000
  21794902.103     3365221.058 9   2318171.33829        92.000
  24990478.382     6354924.509 6   4913356.29925        30.000
  22547719.549   -13597773.568 9 -10701309.05027        86.000
 96  6 10 17 15 45.0020000  0  6G 2G24G 4G 7G26G 9
  22880195.980     8283204.734 8   6417293.60226        68.000
  23527539.993    -8811307.810 7  -7148759.63425        52.000
  21717186.005   -14051769.842 9 -12510187.90729        88.000
  21800522.402     3394759.432 9   2341188.25129        90.000
  24997435.006     6391515.024 6   4941868.40725        30.000
  22542786.104   -13623701.887 9 -10721512.93228        84.000
 96  6 10 17 16  0.0020000  0  6G 2G24G 4G 7G26G 9
  22885665.873     8311949.978 8   6439692.45926        68.000
  23518664.577    -8857950.621 7  -7185104.65525        50.000
  21712437.113   -14076735.980 9 -12529642.02429        88.000
  21806152.265     3424346.560 9   2364243.15129        88.000
  25004400.564     6428148.790 6   4970414.17925        26.000
  22537871.186   -13649520.201 9 -10741631.09028        88.000
